[[[{"header":{"parameterUnit":"kt","parameterCategory":2,"dx":1,"dy":1,"la1":29.587661999999998,"la2":31.0,"lo1":-88.76705300000003,"lo2":-86.6583820000003,"nx":115,"ny":88,"refTime":"2022-09-24T06:00:00:Z","depth":0,"parameterNumber":1,"parameterNumberName":"U-component_of_WINDS"},"data":[18.5743,18.4357,18.4036,18.5563,18.7991,18.7814,18.8972,19.0593,19.0754,18.9203,18.722,18.6847,18.6883,18.6483,18.6919,18.681,18.7064,18.8064,18.7606,18.7354,18.8646,18.9665,19.1162,19.284,19.3176,19.4084,19.4983,19.4983,19.4983,19.4983,19.4983,19.4983,19.4983,19.4983,19.4983,19.5016,19.5083,19.5315,19.5381,19.5645,19.63,19.6821,19.7241,19.7466,19.7531,19.7402,19.7305,19.7305,19.6886,19.6333,19.5874,19.5513,19.5381,19.5315,19.5149,19.5083,19.4983,19.4983,19.4983,19.4983,19.4983,19.4983,19.4983,19.4983,19.4983,19.4983,19.4983,19.4983,19.4983,19.4983,19.4983,19.4983,19.4983,19.4983,19.4983,19.4983,19.5149,19.5182,19.5282,19.5513,19.5841,19.6071,19.6235,19.6137,19.6659,19.7144,19.708,19.7241,19.7916,19.8137,19.8265,19.8233,19.8233,19.871,19.9025,19.8518,19.8391,19.836,19.8455,19.8742,19.8742,19.836,19.8455,19.9091,19.9282,19.9282,19.9282,19.9282,19.9282,19.9282,19.9282,19.8902,19.7723,19.7466,19.8298,18.6453,18.6004,18.4565,18.5722,18.8211,18.7071,18.8706,19.2127,19.2585,19.1452,18.9941,19.2201,19.1853,19.1577,19.2157,19.1231,19.0856,19.1439,19.2802,19.3074,19.304,19.304,19.3447,19.4084,19.4285,19.475,19.4983,19.4983,19.4983,19.4983,19.4983,19.4983,19.4983,19.5016,19.4983,19.5049,19.5381,19.5776,19.6071,19.6333,19.6983,19.7627,19.8235,19.8679,19.8933,19.8615,19.8169,19.7817,19.7595,19.7144,19.6789,19.6398,19.6137,19.5908,19.5645,19.5381,19.5315,19.5282,19.5182,19.5215,19.5083,19.5016,19.4983,19.4983,19.4983,19.4983,19.4983,19.4983,19.4983,19.4983,19.4983,19.4983,19.4983,19.4983,19.5016,19.5016,19.5315,19.5579,19.5743,19.6038,19.6267,19.6463,19.617,19.5612,19.6104,19.6853,19.7144,19.7241,19.753,19.8201,19.8455,19.8391,19.8584,19.8805,19.9154,19.9028,19.8965,19.8836,19.8773,19.8931,19.9059,19.8868,19.8965,19.9282,19.9282,19.9282,19.9282,19.9282,19.9282,19.9282,19.9282,19.9091,19.8075,19.8044,19.8489,18.7182,18.6993,18.5905,18.6738,18.8382,18.7885,18.9137,19.1665,19.2698,19.255,19.2229,19.3061,19.361,19.3616,19.4218,19.3616,19.3481,19.455,19.485,19.4983,19.455,19.4983,19.4983,19.4783,19.4983,19.4983,19.4983,19.4983,19.4983,19.4983,19.5248,19.5579,19.5709,19.5809,19.6203,19.6203,19.6398,19.6626,19.6626,19.7241,19.8298,19.852,19.8996,19.9059,19.9185,19.9091,19.8742,19.8679,19.8265,19.7851,19.7659,19.7305,19.6886,19.6756,19.6431,19.6203,19.6072,19.617,19.6072,19.5908,19.5709,19.5511,19.5412,19.5083,19.5049,19.5083,19.5083,19.5049,19.5049,19.4983,19.4983,19.4983,19.4983,19.5083,19.5213,19.5313,19.5513,19.5875,19.6203,19.6431,19.6691,19.6886,19.6724,19.617,19.6464,19.7305,19.7659,19.7787,19.8298,19.8868,19.8581,19.8486,19.8805,19.9122,19.9217,19.9282,19.9282,19.9282,19.9154,19.9185,19.9185,19.9217,19.9282,19.9282,19.9282,19.9282,19.9282,19.9282,19.9282,19.9282,19.9282,19.9282,19.9154,19.8996,19.9028,18.7839,18.7745,18.7086,18.7319,18.819,18.8222,18.9027,19.0444,19.1603,19.1859,19.2021,19.2343,19.3017,19.3781,19.4273,19.4562,19.4588,19.485,19.495,19.4983,19.4983,19.4983,19.4983,19.4983,19.4983,19.4983,19.4983,19.4983,19.4983,19.5049,19.5315,19.6005,19.6071,19.6365,19.6821,19.6886,19.7047,19.737,19.7563,19.8266,19.8933,19.9154,19.9282,19.9282,19.9282,19.9185,19.9185,19.9185,19.8836,19.8552,19.8391,19.8074,19.7595,19.7434,19.7305,19.7144,19.6918,19.6886,19.6756,19.6594,19.6398,19.6104,19.5743,19.5414,19.5215,19.5215,19.528,19.5182,19.5116,19.5049,19.4983,19.4983,19.5016,19.5182,19.5412,19.5577,19.5678,19.6137,19.6594,19.6886,19.7209,19.7305,19.7305,19.7305,19.7466,19.7659,19.7849,19.8169,19.8552,19.8933,19.8615,19.8805,19.9122,19.9185,19.9217,19.9282,19.9282,19.9282,19.9282,19.9282,19.9282,19.9282,19.9282,19.9282,19.9282,19.9282,19.9282,19.9282,19.9282,19.9282,19.9282,19.9282,19.9282,19.9282,19.9282,18.8461,18.8399,18.7777,18.7374,18.6804,18.6901,18.7674,18.893,18.9188,18.9123,18.951,19.0508,19.186,19.302,19.3471,19.3953,19.4468,19.4919,19.4983,19.4983,19.4983,19.4983,19.4983,19.4983,19.4983,19.4983,19.4983,19.4983,19.4983,19.5182,19.5513,19.6071,19.6267,19.6789,19.7338,19.7467,19.7724,19.8042,19.8489,19.887,19.9154,19.9282,19.9282,19.9282,19.9282,19.9282,19.9282,19.9217,19.9217,19.9185,19.9122,19.9091,19.8679,19.8328,19.7755,19.7498,19.7499,19.7434,19.7435,19.7177,19.7047,19.6821,19.6398,19.6235,19.6072,19.6072,19.5973,19.5908,19.5711,19.5579,19.5579,19.5579,19.5579,19.5678,19.5809,19.5941,19.6104,19.6398,19.6853,19.7208,19.7595,19.7882,19.7882,19.7916,19.8012,19.7627,19.7723,19.7914,19.8298,19.8776,19.8805,19.9122,19.9217,19.9217,19.9282,19.9282,19.9282,19.9282,19.9282,19.9282,19.9282,19.9282,19.9282,19.9282,19.9282,19.9282,19.9282,19.9282,19.9282,19.9282,19.9282,19.9282,19.9282,19.9282,19.9282,18.9169,18.9077,18.843,18.8026,18.7714,18.7403,18.7504,18.7924,18.7989,18.838,18.8801,18.9316,19.0379,19.1667,19.2505,19.3213,19.3824,19.4339,19.4725,19.4725,19.4983,19.4919,19.4983,19.4983,19.4983,19.4983,19.4983,19.4983,19.5116,19.5381,19.5973,19.6724,19.7177,19.7756,19.8139,19.8266,19.8489,19.871,19.8962,19.9185,19.9282,19.9282,19.9282,19.9282,19.9282,19.9282,19.9282,19.9282,19.9217,19.9282,19.9282,19.9282,19.9154,19.9028,19.852,19.8425,19.8266,19.8266,19.8171,19.7914,19.7755,19.7563,19.7112,19.7015,19.7015,19.6918,19.6756,19.6691,19.6398,19.6203,19.6235,19.6268,19.6235,19.6203,19.6301,19.6398,19.6561,19.6659,19.7047,19.7529,19.7946,19.8265,19.8423,19.8489,19.8394,19.8298,19.833,19.8394,19.8615,19.8902,19.9091,19.9282,19.9282,19.9282,19.9282,19.9282,19.9282,19.9282,19.9282,19.9282,19.9282,19.9282,19.9282,19.9282,19.9282,19.9282,19.9282,19.9282,19.9282,19.9282,19.9282,19.9282,19.9282,19.9282,19.9282,18.9839,18.9748,18.9107,18.8831,18.8769,18.8337,18.8057,18.787,18.7839,18.8013,18.8445,18.8381,18.9155,19.025,19.1345,19.1925,19.2569,19.3277,19.3695,19.3953,19.3888,19.4275,19.4532,19.479,19.4983,19.4983,19.4983,19.4983,19.5085,19.5775,19.6463,19.7273,19.7723,19.8394,19.8902,19.9282,19.9154,19.9185,19.9185,19.9282,19.9282,19.9282,19.9282,19.9282,19.9282,19.9282,19.9282,19.9282,19.9282,19.9282,19.9282,19.9282,19.9282,19.9282,19.9282,19.9282,19.9282,19.9282,19.9154,19.8742,19.8423,19.8296,19.801,19.8074,19.8042,19.7851,19.7337,19.7241,19.7047,19.6789,19.6691,19.6724,19.6724,19.6724,19.6756,19.6821,19.6853,19.7047,19.7305,19.7787,19.7913,19.8328,19.8965,19.8965,19.887,19.9091,19.9251,19.9122,19.9251,19.9154,19.9282,19.9282,19.9282,19.9282,19.9282,19.9282,19.9282,19.9282,19.9282,19.9282,19.9282,19.9282,19.9282,19.9282,19.9282,19.9282,19.9282,19.9282,19.9282,19.9282,19.9282,19.9282,19.9282,19.9282,19.9282,19.0442,19.0382,18.9778,18.9535,18.947,18.9444,18.9107,18.8554,18.8523,18.8216,18.7687,18.7817,18.8213,18.8801,18.9027,18.9896,19.0927,19.1249,19.1474,19.1732,19.2633,19.2891,19.3373,19.4017,19.4082,19.4532,19.463,19.4148,19.4889,19.5356,19.6464,19.7559,19.8038,19.8679,19.9059,19.9282,19.9282,19.9282,19.9282,19.9282,19.9282,19.9282,19.9282,19.9282,19.9282,19.9282,19.9282,19.9282,19.9282,19.9282,19.9282,19.9282,19.9282,19.9282,19.9282,19.9282,19.9282,19.9282,19.9217,19.9217,19.9059,19.8996,19.8965,19.9091,19.8965,19.8489,19.8137,19.7946,19.7787,19.7498,19.7371,19.7403,19.7467,19.7403,19.7403,19.737,19.7434,19.7433,19.7723,19.7914,19.8137,19.8455,19.9091,19.9282,19.9091,19.9282,19.9282,19.9282,19.9282,19.9282,19.9282,19.9282,19.9282,19.9282,19.9282,19.9282,19.9282,19.9282,19.9282,19.9282,19.9282,19.9282,19.9282,19.9282,19.9282,19.9282,19.9282,19.9282,19.9282,19.9282,19.9282,19.9282,19.9282,19.9282,19.9282,19.0472,19.0442,19.0262,19.0171,19.0171,19.0171,19.0051,18.9778,18.9383,18.8831,18.8306,18.8213,18.8163,18.8275,18.8829,18.9734,18.951,19.0315,19.0863,19.0959,19.1507,19.1669,19.183,19.2054,19.2797,19.2311,19.228,19.2734,19.3222,19.4226,19.5488,19.69,19.8091,19.8702,19.9122,19.9282,19.9282,19.9282,19.9282,19.9282,19.9282,19.9282,19.9282,19.9282,19.9282,19.9282,19.9282,19.9282,19.9282,19.9282,19.9282,19.9282,19.9282,19.9282,19.9282,19.9282,19.9282,19.9282,19.9282,19.9282,19.9282,19.9282,19.9282,19.9282,19.9154,19.8996,19.8805,19.8742,19.8647,19.852,19.8586,19.8618,19.8618,19.8425,19.8394,19.8298,19.8233,19.7946,19.8008,19.8201,19.8423,19.8773,19.9185,19.9217,19.9282,19.9282,19.9282,19.9282,19.9282,19.9282,19.9282,19.9282,19.9282,19.9282,19.9282,19.9282,19.9282,19.9282,19.9282,19.9282,19.9282,19.9282,19.9282,19.9282,19.9282,19.9282,19.9282,19.9282,19.9282,19.9282,19.9282,19.9282,19.9282,19.9282,19.9282,19.0472,19.0472,19.0472,19.0472,19.0472,19.0472,19.0472,19.0412,19.0051,18.9505,18.8985,18.8893,18.8523,18.8252,18.8812,18.9043,18.8923,18.9894,19.0087,19.0151,19.0701,19.0734,19.1121,19.1541,19.1735,19.1606,19.1638,19.2089,19.2086,19.3409,19.4696,19.5918,19.7495,19.8659,19.9085,19.9282,19.9282,19.9282,19.9282,19.9282,19.9282,19.9282,19.9282,19.9282,19.9282,19.9282,19.9282,19.9282,19.9282,19.9282,19.9282,19.9282,19.9282,19.9282,19.9282,19.9282,19.9282,19.9282,19.9282,19.9282,19.9282,19.9282,19.9282,19.9282,19.9282,19.9282,19.9282,19.9154,19.9059,19.9091,19.9282,19.9217,19.9185,19.9091,19.9059,19.8996,19.8836,19.8518,19.8391,19.8615,19.8742,19.9091,19.9217,19.9282,19.9282,19.9282,19.9282,19.9282,19.9282,19.9282,19.9282,19.9282,19.9282,19.9282,19.9282,19.9282,19.9282,19.9282,19.9282,19.9282,19.9282,19.9282,19.9282,19.9282,19.9282,19.9282,19.9282,19.9282,19.9282,19.9282,19.9282,19.9282,19.9282,19.9282,19.9282,19.0472,19.0472,19.0472,19.0472,19.0472,19.0472,19.0472,19.0472,19.0412,19.0081,18.953,18.95,18.9199,18.8773,18.8749,18.8789,18.873,18.8696,18.8826,18.9089,18.9839,19.0417,19.0807,19.1264,19.1431,19.2494,19.2043,19.1654,19.236,19.2966,19.4322,19.5674,19.657,19.7604,19.9019,19.9217,19.9282,19.9282,19.9282,19.9282,19.9282,19.9282,19.9282,19.9282,19.9282,19.9282,19.9282,19.9282,19.9282,19.9282,19.9282,19.9282,19.9282,19.9282,19.9282,19.9282,19.9282,19.9282,19.9282,19.9282,19.9282,19.9282,19.9282,19.9282,19.9282,19.9282,19.9282,19.9282,19.9282,19.9282,19.9282,19.9282,19.9282,19.9185,19.9185,19.9154,19.9154,19.8996,19.8965,19.8996,19.9154,19.9282,19.9282,19.9282,19.9282,19.9282,19.9282,19.9282,19.9282,19.9282,19.9282,19.9282,19.9282,19.9282,19.9282,19.9282,19.9282,19.9282,19.9282,19.9282,19.9282,19.9282,19.9282,19.9282,19.9282,19.9282,19.9282,19.9282,19.9282,19.9282,19.9282,19.9282,19.9282,19.9282,19.9282,19.0472,19.0472,19.0472,19.0472,19.0472,19.0472,19.0472,19.0472,19.0472,19.0352,19.0201,19.0201,18.9869,18.9413,18.923,18.9077,18.8739,18.8646,18.8584,18.8811,18.9102,18.9139,18.9304,18.9756,19.0401,18.979,18.9886,19.0327,19.0828,19.1767,19.3285,19.4608,19.5442,19.642,19.7604,19.859,19.9282,19.9282,19.9282,19.9282,19.9282,19.9282,19.9282,19.9282,19.9282,19.9282,19.9282,19.9282,19.9282,19.9282,19.9282,19.9282,19.9282,19.9282,19.9282,19.9282,19.9282,19.9282,19.9282,19.9282,19.9282,19.9282,19.9282,19.9282,19.9282,19.9282,19.9282,19.9282,19.9282,19.9282,19.9282,19.9282,19.9282,19.9282,19.9282,19.9282,19.9282,19.9282,19.9282,19.9282,19.9282,19.9282,19.9282,19.9282,19.9282,19.9282,19.9282,19.9282,19.9282,19.9282,19.9282,19.9282,19.9282,19.9282,19.9282,19.9282,19.9282,19.9282,19.9282,19.9282,19.9282,19.9282,19.9282,19.9282,19.9282,19.9282,19.9282,19.9282,19.9282,19.9282,19.9282,19.9282,19.9282,19.9282,19.9282,19.0472,19.0472,19.0472,19.0472,19.0472,19.0472,19.0472,19.0472,19.0472,19.0472,19.0442,19.0472,19.0262,18.999,18.9869,18.9657,18.9352,18.9291,18.9322,18.9291,18.9291,18.9322,18.9291,18.9483,18.926,18.9483,18.9417,18.9596,18.9869,19.0878,19.2368,19.3344,19.3957,19.4908,19.6157,19.7472,19.859,19.8985,19.9282,19.9282,19.9282,19.9282,19.9282,19.9282,19.9282,19.9282,19.9248,19.9248,19.9217,19.9282,19.9282,19.9282,19.9282,19.9282,19.9282,19.9282,19.9282,19.9282,19.9282,19.9282,19.9282,19.9282,19.9217,19.9282,19.9282,19.9282,19.9282,19.9282,19.9282,19.9282,19.9282,19.9282,19.9282,19.9282,19.9282,19.9282,19.9282,19.9282,19.9282,19.9282,19.9282,19.9282,19.9282,19.9282,19.9282,19.9282,19.9282,19.9282,19.9282,19.9282,19.9282,19.9282,19.9282,19.9282,19.9282,19.9282,19.9282,19.9282,19.9282,19.9282,19.9282,19.9282,19.9282,19.9282,19.9282,19.9282,19.9282,19.9282,19.9282,19.9282,19.9282,19.9282,19.9282,19.9282,19.9282,19.0472,19.0472,19.0472,19.0472,19.0472,19.0472,19.0472,19.0472,19.0472,19.0472,19.0472,19.0472,19.0472,19.0412,19.0352,19.0352,19.0412,19.0472,19.0292,19.0322,19.0442,19.0292,19.0232,19.0201,19.0322,19.0322,19.0201,19.0232,19.0574,19.065,19.1332,19.2343,19.2869,19.3593,19.4711,19.6092,19.7407,19.8033,19.8296,19.8428,19.8428,19.8493,19.8559,19.8625,19.8756,19.8888,19.8888,19.8559,19.8362,19.8362,19.8296,19.8296,19.8656,19.8722,19.8985,19.9182,19.9282,19.8756,19.8296,19.823,19.8691,19.8822,19.8691,19.8362,19.8722,19.8985,19.9282,19.9282,19.9282,19.9282,19.9282,19.9282,19.9282,19.9282,19.9282,19.9282,19.9282,19.9282,19.9282,19.9282,19.9282,19.9282,19.9282,19.9282,19.9282,19.9282,19.9282,19.9282,19.9282,19.9282,19.9282,19.9282,19.9282,19.9282,19.9282,19.9282,19.9282,19.9282,19.9282,19.9282,19.9282,19.9282,19.9282,19.9282,19.9282,19.9282,19.9282,19.9282,19.9282,19.9282,19.9282,19.9282,19.9282,19.9282,19.9282,19.0472,19.0472,19.0472,19.0472,19.0472,19.0472,19.0472,19.0472,19.0472,19.0472,19.0472,19.0472,19.0472,19.0472,19.0472,19.0472,19.0472,19.0472,19.0472,19.0472,19.0472,19.0472,19.0472,19.0472,19.0472,19.0472,19.0472,19.0472,19.0472,19.0538,19.0669,19.1028,19.1949,19.2738,19.3461,19.4579,19.55,19.6126,19.6192,19.6192,19.6126,19.6061,19.6061,19.6061,19.5929,19.5833,19.5863,19.5995,19.6061,19.6126,19.6192,19.6784,19.7407,19.767,19.7999,19.8656,19.8756,19.8099,19.685,19.6258,19.5929,19.5929,19.5929,19.6718,19.7472,19.8722,19.9217,19.8822,19.8985,19.9085,19.9248,19.9248,19.9248,19.9282,19.9282,19.9282,19.9282,19.9282,19.9282,19.9282,19.9282,19.9282,19.9282,19.9282,19.9282,19.9282,19.9282,19.9282,19.9282,19.9282,19.9282,19.9282,19.9282,19.9282,19.9282,19.9282,19.9282,19.9282,19.9282,19.9282,19.9282,19.9282,19.9282,19.9282,19.9282,19.9282,19.9282,19.9282,19.9282,19.9282,19.9282,19.9282,19.9282,19.9282,19.9282,19.0472,19.0472,19.0472,19.0472,19.0472,19.0472,19.0472,19.0472,19.0472,19.0472,19.0472,19.0472,19.0472,19.0472,19.0472,19.0472,19.0472,19.0472,19.0472,19.0472,19.0472,19.0472,19.0472,19.0472,19.0472,19.0472,19.0472,19.0472,19.0472,19.0472,19.0472,19.0669,19.1291,19.1751,19.1883,19.3102,19.3694,19.4022,19.4417,19.4746,19.4746,19.4811,19.4811,19.4811,19.4877,19.4877,19.4877,19.4746,19.4746,19.4746,19.4746,19.5272,19.5828,19.6157,19.6355,19.731,19.731,19.6521,19.5009,19.4877,19.4943,19.4811,19.4943,19.5074,19.5894,19.6749,19.7178,19.731,19.7867,19.8196,19.8262,19.8853,19.9116,19.9282,19.9282,19.9282,19.9282,19.9282,19.9282,19.9282,19.9282,19.9282,19.9282,19.9282,19.9282,19.9282,19.9282,19.9282,19.9282,19.9282,19.9282,19.9282,19.9282,19.9282,19.9282,19.9282,19.9282,19.9282,19.9282,19.9282,19.9282,19.9282,19.9282,19.9282,19.9282,19.9282,19.9282,19.9282,19.9282,19.9282,19.9282,19.9282,19.9282,19.9282,19.9282,19.0472,19.0472,19.0472,19.0472,19.0472,19.0472,19.0472,19.0472,19.0472,19.0472,19.0472,19.0472,19.0472,19.0472,19.0472,19.0472,19.0472,19.0472,19.0472,19.0472,19.0472,19.0472,19.0472,19.0472,19.0472,19.0472,19.0472,19.0472,19.0472,19.0472,19.0472,19.0472,19.0604,19.0538,19.0867,19.1883,19.2343,19.2606,19.3496,19.4088,19.4022,19.3957,19.3957,19.4022,19.3957,19.386,19.3759,19.3694,19.3825,19.3957,19.4088,19.4285,19.4548,19.4548,19.4483,19.4351,19.4285,19.4285,19.4022,19.3759,19.3759,19.3694,19.3891,19.4285,19.4548,19.4746,19.4877,19.468,19.596,19.6749,19.7012,19.8064,19.8788,19.8919,19.9051,19.9282,19.9282,19.9282,19.9282,19.9282,19.9282,19.9282,19.9282,19.9282,19.9282,19.9282,19.9282,19.9282,19.9282,19.9282,19.9282,19.9282,19.9282,19.9282,19.9282,19.9282,19.9282,19.9282,19.9282,19.9282,19.9282,19.9282,19.9282,19.9282,19.9282,19.9282,19.9282,19.9282,19.9282,19.9282,19.9282,19.9282,19.9282,19.9282,19.9282,19.0472,19.0472,19.0472,19.0472,19.0472,19.0472,19.0472,19.0472,19.0472,19.0472,19.0472,19.0472,19.0472,19.0472,19.0472,19.0472,19.0472,19.0472,19.0472,19.0472,19.0472,19.0472,19.0472,19.0472,19.0472,19.0472,19.0472,19.0472,19.0472,19.0472,19.0472,19.0472,19.0472,19.0472,19.0472,19.0962,19.0831,19.0998,19.1261,19.1327,19.1357,19.1327,19.1327,19.1327,19.1327,19.1524,19.1721,19.1721,19.1721,19.1656,19.1656,19.1949,19.2869,19.3067,19.2541,19.159,19.1393,19.1327,19.1458,19.1524,19.1787,19.1853,19.1524,19.205,19.2606,19.3198,19.3527,19.4548,19.5171,19.5237,19.5434,19.6618,19.7341,19.7767,19.8459,19.9248,19.9116,19.9217,19.9151,19.9051,19.9282,19.9282,19.9282,19.9282,19.9282,19.9282,19.9282,19.9282,19.9282,19.9282,19.9282,19.9282,19.9248,19.9248,19.9282,19.9282,19.9282,19.9282,19.9282,19.9282,19.9282,19.9282,19.9282,19.9282,19.9282,19.9282,19.9282,19.9282,19.9282,19.9282,19.9282,19.9282,19.9282,19.9282,19.9282,19.0472,19.0472,19.0472,19.0472,19.0472,19.0472,19.0472,19.0472,19.0472,19.0472,19.0472,19.0472,19.0472,19.0472,19.0472,19.0472,19.0472,19.0472,19.0472,19.0472,19.0472,19.0472,19.0472,19.0472,19.0472,19.0472,19.0472,19.0472,19.0472,19.0472,19.0472,19.0472,19.0472,19.0472,19.0472,19.0472,19.0538,19.0538,19.0538,19.0538,19.0538,19.0538,19.0538,19.0538,19.0538,19.0472,19.0472,19.0472,19.0472,19.0472,19.0472,19.0897,19.1357,19.1554,19.1291,19.0735,19.0604,19.0538,19.0538,19.0472,19.0472,19.0472,19.0538,19.0867,19.1357,19.1686,19.1883,19.2672,19.3067,19.3694,19.3759,19.5074,19.5828,19.6223,19.7275,19.7999,19.8327,19.8853,19.8656,19.8196,19.8525,19.8756,19.8954,19.8888,19.9151,19.9282,19.9282,19.9282,19.9282,19.9282,19.9282,19.9248,19.9248,19.9217,19.9217,19.9217,19.9282,19.9282,19.9282,19.9282,19.9282,19.9282,19.9282,19.9282,19.9282,19.9282,19.9282,19.9282,19.9282,19.9282,19.9282,19.9282,19.9282,19.9282,19.9282,18.991,19.0173,19.0108,19.0275,19.0472,19.0472,19.0472,19.0472,19.0472,19.0472,19.0472,19.0472,19.0472,19.0472,19.0472,19.0472,19.0472,19.0472,19.0472,19.0472,19.0472,19.0472,19.0472,19.0472,19.0472,19.0472,19.0472,19.0472,19.0472,19.0472,19.0472,19.0472,19.0472,19.0472,19.0472,19.0472,19.0472,19.0472,19.0472,19.0472,19.0472,19.0472,19.0472,19.0472,19.0472,19.0472,19.0472,19.0472,19.0472,19.0472,19.0472,19.0538,19.0604,19.0604,19.0604,19.0472,19.0472,19.0472,19.0472,19.0472,19.0472,19.0472,19.0472,19.0538,19.0538,19.0604,19.0867,19.116,19.1751,19.2278,19.2343,19.3593,19.4285,19.4746,19.5697,19.6683,19.6881,19.7341,19.7639,19.6946,19.7604,19.8099,19.7704,19.7507,19.7441,19.7376,19.7376,19.7441,19.7507,19.777,19.8099,19.8428,19.8788,19.8888,19.8888,19.8756,19.8954,19.8954,19.9116,19.9116,19.9151,19.9217,19.9282,19.9282,19.9282,19.9217,19.9217,19.9282,19.9282,19.9282,19.9282,19.9282,19.9282,19.9282,19.9282,18.7572,18.8691,18.8691,18.9384,19.0436,19.0406,19.0275,19.0406,19.0472,19.0209,19.0472,19.0472,19.0341,19.0472,19.0472,19.0472,19.0472,19.0472,19.0472,19.0472,19.0472,19.0472,19.0472,19.0472,19.0472,19.0472,19.0472,19.0472,19.0472,19.0472,19.0472,19.0472,19.0472,19.0472,19.0472,19.0472,19.0472,19.0472,19.0472,19.0472,19.0472,19.0472,19.0472,19.0472,19.0472,19.0472,19.0472,19.0472,19.0472,19.0472,19.0472,19.0472,19.0472,19.0472,19.0472,19.0436,19.0143,19.0012,18.9946,19.0143,19.0275,19.0472,19.0406,19.0406,19.0472,19.0472,19.0472,19.0604,19.0765,19.0998,19.0932,19.2116,19.2804,19.3198,19.425,19.5009,19.514,19.5206,19.5535,19.5206,19.5798,19.6324,19.6126,19.6192,19.5732,19.5403,19.5403,19.5403,19.5337,19.5469,19.5798,19.6126,19.7012,19.7341,19.7441,19.7538,19.8296,19.8493,19.8919,19.8985,19.9019,19.8691,19.8393,19.8691,19.9051,19.9217,19.9151,19.9217,19.9282,19.9282,19.9282,19.9282,19.9282,19.9282,19.9282,18.6622,18.7244,18.7244,18.7609,18.8135,18.8266,18.8266,18.8266,18.8201,18.8661,18.9253,18.9414,18.9844,19.0502,19.0472,19.0472,19.0472,19.0472,19.0472,19.0472,19.0472,19.0472,19.0472,19.0472,19.0472,19.0472,19.0472,19.0472,19.0472,19.0472,19.0472,19.0472,19.0472,19.0472,19.0472,19.0472,19.0472,19.0472,19.0472,19.0472,19.0472,19.0472,19.0472,19.0472,19.0472,19.0472,19.0406,19.0472,19.0472,19.0143,18.9026,18.8201,18.8201,18.8171,18.8201,18.8266,18.8201,18.8266,18.8266,18.8266,18.8595,18.9187,18.9348,18.9779,19.0275,19.0472,19.0472,19.0472,19.0472,19.0472,19.0538,19.1291,19.1423,19.1751,19.2804,19.3562,19.3628,19.3628,19.3628,19.379,19.422,19.4548,19.4746,19.514,19.4943,19.4548,19.4483,19.4548,19.4351,19.422,19.4351,19.4417,19.5302,19.5894,19.6092,19.6552,19.7244,19.7573,19.7867,19.7999,19.7867,19.7538,19.7341,19.7604,19.7801,19.8262,19.8625,19.9217,19.9282,19.8888,19.8788,19.9085,19.9085,19.8625,19.8559,18.5504,18.5767,18.5767,18.5965,18.6162,18.6228,18.6228,18.6294,18.6294,18.7017,18.7704,18.7901,18.8464,18.9516,18.9318,18.9581,18.9289,18.9289,18.9844,18.9976,19.0275,19.0275,18.9486,18.9844,18.9976,19.0012,19.0305,19.0472,19.0472,19.0472,19.0472,19.0472,19.0472,19.0472,19.0472,19.0472,19.0472,19.0472,19.0472,19.0472,19.0472,19.0472,19.0472,19.0472,19.0472,19.0341,19.0173,19.0042,18.991,18.9121,18.7609,18.6557,18.6557,18.6491,18.6491,18.6557,18.6425,18.6359,18.6294,18.6491,18.6754,18.777,18.7967,18.8332,18.9486,18.9354,18.9552,19.0042,19.0042,19.0078,19.0406,19.0472,19.0604,19.0897,19.162,19.2212,19.2212,19.2146,19.2146,19.2343,19.3036,19.3825,19.3759,19.3562,19.3562,19.3759,19.3759,19.3825,19.3628,19.3431,19.3233,19.2905,19.3724,19.4316,19.4645,19.5237,19.5666,19.5929,19.6289,19.6552,19.5894,19.5565,19.5995,19.6355,19.6552,19.6946,19.7244,19.777,19.7704,19.7967,19.7999,19.7639,19.7441,19.777,19.7639,18.3137,18.4292,18.4292,18.5044,18.603,18.6162,18.5899,18.6096,18.5899,18.6096,18.6454,18.6425,18.6688,18.6622,18.7214,18.682,18.682,18.7148,18.7638,18.8625,18.9384,18.9055,18.7411,18.8164,18.8559,18.8756,18.991,19.0143,19.0012,19.0275,19.0406,19.0341,19.0436,19.0472,19.0472,19.0472,19.0472,19.0472,19.0472,19.0406,19.0209,19.0239,19.0078,19.0012,18.9946,18.9516,18.8822,18.8493,18.7967,18.6754,18.6425,18.5965,18.606,18.6096,18.603,18.5899,18.5767,18.5833,18.603,18.5767,18.6191,18.6359,18.6425,18.6557,18.6885,18.7148,18.7543,18.8464,18.8559,18.9055,18.9815,19.0341,19.0341,19.0472,19.0436,19.0699,19.0669,19.0669,19.0699,19.0765,19.0801,19.0932,19.0932,19.0962,19.1094,19.2116,19.1919,19.1984,19.1984,19.205,19.1919,19.1721,19.2247,19.2869,19.333,19.379,19.4022,19.4088,19.4448,19.4382,19.379,19.3856,19.4417,19.4877,19.5039,19.5302,19.5863,19.5863,19.5535,19.5732,19.6389,19.5995,19.557,19.6258,19.6521,18.2311,18.2808,18.2808,18.3232,18.3692,18.3758,18.3758,18.3758,18.3758,18.4189,18.4913,18.4949,18.5439,18.6162,18.6162,18.6162,18.6228,18.6228,18.652,18.7214,18.774,18.7346,18.6622,18.6688,18.7112,18.7244,18.7674,18.8003,18.8201,18.8954,18.9217,18.9414,19.0108,19.0472,19.0341,19.0472,19.0472,19.0472,19.0472,19.0042,18.9348,18.9282,18.8924,18.8135,18.8003,18.7872,18.728,18.7112,18.606,18.4284,18.3758,18.3758,18.3758,18.3758,18.3758,18.3758,18.3758,18.3758,18.3758,18.3758,18.4058,18.4781,18.4978,18.5373,18.5965,18.6228,18.6294,18.7017,18.7112,18.7441,18.8003,18.8792,18.9581,19.0042,18.899,18.8398,18.9217,18.9253,18.9647,19.0209,19.0472,19.0472,19.0538,19.0538,19.0538,19.0406,19.0209,19.0209,19.0275,19.0538,19.0669,19.0867,19.1261,19.1524,19.1919,19.205,19.2182,19.205,19.2146,19.2015,19.1751,19.1751,19.251,19.3233,19.3461,19.379,19.468,19.514,19.4483,19.422,19.4746,19.4877,19.5009,19.5403,19.5337,18.0798,18.0798,18.0732,18.0798,18.0798,18.0732,18.093,18.1296,18.139,18.2217,18.3334,18.3532,18.4058,18.5007,18.4978,18.5139,18.4913,18.4913,18.5176,18.5599,18.5307,18.511,18.511,18.5439,18.5665,18.5767,18.6228,18.6228,18.6294,18.7309,18.777,18.7836,18.8727,18.9253,18.9354,18.9187,18.9384,18.9384,18.9318,18.8727,18.7901,18.7836,18.7244,18.6294,18.6294,18.6294,18.6228,18.5899,18.4321,18.1653,18.0996,18.0798,18.0798,18.0798,18.0704,18.0732,18.0798,18.0798,18.0864,18.1127,18.1756,18.278,18.3203,18.3992,18.5044,18.5044,18.5241,18.5636,18.5702,18.5833,18.6294,18.7178,18.8135,18.8924,18.7674,18.682,18.7572,18.7836,18.8164,18.9121,18.9223,18.9091,18.9121,18.9121,18.9121,18.9121,18.9121,18.9055,18.899,18.9121,18.9581,18.9844,19.0143,19.0275,19.0341,19.0341,19.0341,19.0239,19.0173,19.0239,19.0371,19.0436,19.1094,19.1686,19.1883,19.208,19.3036,19.3825,19.3628,19.3036,19.3168,19.297,19.3365,19.3825,19.3628,17.7745,17.7707,17.7745,17.797,17.7942,17.8036,17.8731,17.9624,17.9755,18.0573,18.1719,18.1851,18.2048,18.2114,18.2179,18.2245,18.2245,18.2311,18.2874,18.3269,18.2743,18.2311,18.248,18.3466,18.3992,18.4321,18.5373,18.5899,18.5702,18.6096,18.6359,18.6359,18.6622,18.6557,18.6885,18.6557,18.682,18.6885,18.6754,18.6688,18.6389,18.6359,18.6162,18.5994,18.5899,18.5862,18.557,18.4387,18.2517,18.0084,17.8666,17.8233,17.7904,17.7773,17.8008,17.8139,17.7811,17.8036,17.8139,17.9126,17.9887,18.015,18.1164,18.2179,18.2114,18.2179,18.2574,18.3795,18.3963,18.4555,18.5636,18.6228,18.6162,18.6425,18.5899,18.5833,18.6228,18.6294,18.6557,18.6688,18.6491,18.6557,18.6885,18.682,18.682,18.682,18.6885,18.7017,18.7148,18.7872,18.8362,18.8792,18.9253,18.9318,18.9157,18.9157,18.9354,18.9253,18.9151,18.9253,18.945,18.9647,19.0108,19.0209,19.0406,19.0568,19.0962,19.1458,19.159,19.1721,19.1524,19.0867,19.0998,19.1458,19.1524,17.7482,17.7482,17.7482,17.7482,17.7482,17.7482,17.7811,17.8205,17.8271,17.86,17.9023,17.9154,17.9154,17.9154,17.9154,17.9652,18.0413,18.0478,18.031,17.9849,17.9257,17.9718,18.0544,18.107,18.1728,18.2706,18.3297,18.3561,18.3561,18.4387,18.4913,18.511,18.5767,18.6162,18.6228,18.6228,18.6228,18.6228,18.6162,18.5767,18.511,18.4883,18.4452,18.3692,18.3561,18.3495,18.3363,18.1164,17.9389,17.8403,17.7811,17.7482,17.7482,17.7416,17.7482,17.7482,17.7482,17.7416,17.7548,17.7876,17.8271,17.8337,17.8797,17.9154,17.9154,17.9126,17.9783,18.1004,18.1333,18.1859,18.3334,18.4255,18.3926,18.2414,18.294,18.3495,18.3626,18.4255,18.5044,18.5767,18.6096,18.6228,18.6228,18.6228,18.6228,18.6228,18.6228,18.6228,18.6294,18.6622,18.682,18.7214,18.7872,18.8069,18.7908,18.8135,18.8332,18.8069,18.7836,18.7872,18.8201,18.8398,18.8464,18.8595,18.8924,18.9055,18.9253,18.9581,18.988,19.0406,19.0735,19.0209,18.991,19.0012,18.9749,17.6129,17.6194,17.6167,17.6129,17.6129,17.6101,17.6458,17.6824,17.6824,17.7087,17.7416,17.7482,17.7482,17.7482,17.7482,17.8008,17.8835,17.8412,17.8046,17.7679,17.7548,17.8074,17.8835,17.8966,17.952,18.0469,18.0996,18.123,18.1493,18.2743,18.34,18.3532,18.4416,18.4847,18.4781,18.4847,18.4942,18.4942,18.4942,18.4452,18.3532,18.34,18.2677,18.1456,18.1259,18.0996,18.0469,17.86,17.7378,17.6824,17.6824,17.6561,17.6167,17.6101,17.6129,17.6129,17.6129,17.6129,17.6167,17.6496,17.6824,17.689,17.7313,17.7416,17.7482,17.7548,17.8008,17.8769,17.8966,17.9295,18.0507,18.1822,18.153,17.9229,17.9915,18.0535,18.0667,18.1362,18.2611,18.386,18.4613,18.4876,18.4847,18.4781,18.4679,18.4679,18.465,18.465,18.4847,18.5044,18.557,18.5702,18.6162,18.6557,18.6885,18.7148,18.6885,18.6359,18.6096,18.5965,18.6491,18.682,18.6754,18.682,18.7346,18.7638,18.7836,18.8099,18.8398,18.8858,18.896,18.9055,18.9121,18.8924,18.8464,17.3169,17.3235,17.3235,17.3235,17.3235,17.3208,17.3997,17.4917,17.5153,17.5772,17.6561,17.7247,17.7049,17.7219,17.6984,17.7219,17.689,17.5904,17.5904,17.6956,17.7181,17.7219,17.7482,17.7482,17.7679,17.8008,17.9032,17.9624,17.9689,18.0967,18.1719,18.1851,18.1916,18.1916,18.1982,18.1982,18.1982,18.1916,18.1916,18.1916,18.1945,18.1785,18.1061,17.9821,17.9558,17.8835,17.7548,17.7219,17.6364,17.535,17.5153,17.4589,17.3432,17.3235,17.3169,17.3235,17.3235,17.3235,17.3366,17.4298,17.489,17.5246,17.643,17.6824,17.6824,17.7022,17.7153,17.7416,17.7482,17.7613,17.7942,17.89,17.9032,17.7811,17.7811,17.8008,17.7876,17.7679,17.8205,17.9755,18.1164,18.1916,18.1982,18.1916,18.2114,18.2179,18.2245,18.2282,18.2706,18.3466,18.4029,18.4292,18.4715,18.511,18.5636,18.603,18.5176,18.4584,18.4255,18.4255,18.4781,18.5044,18.4913,18.5007,18.5468,18.5862,18.606,18.6885,18.7148,18.728,18.682,18.6885,18.7214,18.7477,18.7083,17.0314,17.0314,17.0314,17.0314,17.0314,17.0287,17.055,17.1076,17.2024,17.2682,17.3301,17.4156,17.455,17.455,17.455,17.4156,17.3142,17.2682,17.3208,17.4484,17.455,17.5115,17.5904,17.6035,17.6561,17.7416,17.8008,17.8139,17.8271,17.8666,17.8957,17.8957,17.8863,17.8957,17.8957,17.8891,17.8957,17.8957,17.8863,17.8957,17.8957,17.8957,17.8694,17.8074,17.7191,17.6035,17.4616,17.3602,17.2879,17.2353,17.1498,17.0748,17.038,17.0314,17.0314,17.0314,17.0314,17.0287,17.038,17.0775,17.1405,17.2353,17.2879,17.3602,17.4457,17.455,17.5049,17.5744,17.6035,17.6496,17.7087,17.6928,17.6533,17.627,17.689,17.7482,17.7482,17.7416,17.7613,17.8139,17.8731,17.8891,17.8891,17.8929,17.9455,18.0281,18.0347,18.0901,18.1719,18.2377,18.2611,18.2677,18.31,18.3232,18.3297,18.2611,18.1662,18.2348,18.2348,18.2611,18.2969,18.31,18.31,18.3232,18.3495,18.3889,18.4584,18.557,18.603,18.6294,18.5439,18.4518,18.5241,18.5767,18.5439,16.8907,16.8907,16.8907,16.8907,16.8907,16.8907,16.8907,16.9038,16.992,17.0314,17.0446,17.1262,17.1656,17.1656,17.1656,17.1196,17.0314,17.0314,17.0775,17.1564,17.1629,17.2418,17.3668,17.3799,17.4523,17.58,17.5904,17.6194,17.6627,17.7285,17.7482,17.7482,17.7482,17.7482,17.7482,17.7482,17.7482,17.7482,17.7482,17.7482,17.7548,17.7482,17.6627,17.5274,17.426,17.3142,17.1695,17.0775,17.0314,17.0314,16.9459,16.8907,16.8907,16.8907,16.8907,16.8907,16.8907,16.8907,16.8907,16.8907,16.9367,17.0183,17.0314,17.0775,17.1459,17.1695,17.2024,17.2879,17.3405,17.3799,17.4194,17.3575,17.2983,17.318,17.426,17.4983,17.5246,17.5668,17.6167,17.6561,17.6693,17.6956,17.7416,17.7482,17.7811,17.8666,17.8835,17.9257,18.0046,18.0272,18.0272,18.0338,18.0338,18.0338,18.0338,17.9389,17.906,17.9981,18.0441,18.0535,18.0338,18.0338,18.0507,18.0535,18.0338,18.0573,18.0836,18.1756,18.1822,18.2151,18.2245,18.1785,18.3071,18.1822,18.2151,16.8709,16.8644,16.8644,16.8539,16.8709,16.8578,16.8644,16.8446,16.8709,16.8841,16.8802,16.9038,16.8907,16.8709,16.8709,16.8775,16.8841,16.8868,16.8972,16.917,16.9104,16.9722,17.0906,17.0972,17.1722,17.2906,17.3038,17.3695,17.5087,17.6496,17.7313,17.7219,17.7049,17.7181,17.7022,17.6956,17.7247,17.6984,17.6956,17.7181,17.7181,17.6984,17.4852,17.1629,17.1038,17.0511,16.9235,16.8933,16.8841,16.8841,16.8578,16.8578,16.8644,16.8578,16.8512,16.8512,16.8578,16.8578,16.8512,16.8446,16.8578,16.8868,16.8841,16.8907,16.9301,16.9301,16.9433,16.9104,17.038,17.038,16.9525,16.963,16.9498,16.9498,17.0446,17.1103,17.1169,17.2353,17.3564,17.4523,17.4852,17.5312,17.6693,17.7219,17.7115,17.7285,17.7416,17.7548,17.7811,17.7745,17.7811,17.7876,17.7811,17.7482,17.7444,17.7416,17.7416,17.8102,17.8468,17.7876,17.7548,17.7482,17.7613,17.7745,17.8074,17.8074,17.7679,17.7811,17.8337,17.86,17.8891,17.8825,17.9652,17.8139,17.8403,16.5659,16.5685,16.5685,16.5685,16.5659,16.5685,16.5659,16.579,16.6895,16.7381,16.7487,16.8446,16.7723,16.5856,16.5685,16.6277,16.7289,16.7381,16.7947,16.8841,16.8907,16.9104,16.9433,16.9498,16.9722,17.0024,17.0183,17.0906,17.2287,17.3695,17.4419,17.4353,17.4353,17.4353,17.4353,17.4353,17.4353,17.4353,17.4353,17.4353,17.409,17.2353,17.0709,16.963,16.9525,16.9367,16.8907,16.7881,16.7381,16.7381,16.6277,16.5659,16.5659,16.5659,16.5659,16.5659,16.5659,16.5685,16.5659,16.5659,16.6145,16.7224,16.7381,16.7815,16.8644,16.8907,16.8907,16.8775,16.8276,16.7908,16.7579,16.8341,16.8841,16.8907,16.9196,16.9498,16.9498,16.9761,17.0353,17.0682,17.1827,17.2418,17.2906,17.3761,17.4813,17.5641,17.5904,17.6232,17.7153,17.735,17.735,17.7482,17.7444,17.6956,17.6167,17.5969,17.6496,17.6956,17.7285,17.7219,17.7482,17.751,17.7444,17.6655,17.7285,17.735,17.689,17.7153,17.7707,17.7548,17.7613,17.7707,17.7087,17.735,17.7416,16.441,16.441,16.441,16.441,16.441,16.441,16.441,16.4502,16.5422,16.5843,16.5908,16.6671,16.6119,16.4476,16.441,16.4962,16.5843,16.5843,16.6303,16.7,16.7132,16.7395,16.8013,16.8013,16.8407,16.8841,16.8907,16.9367,17.0183,17.1038,17.1432,17.1432,17.1432,17.1432,17.1432,17.1459,17.1459,17.1459,17.1432,17.1432,17.1262,16.9788,16.8644,16.8144,16.8013,16.7815,16.7066,16.6303,16.5843,16.5777,16.4962,16.441,16.441,16.441,16.441,16.441,16.441,16.441,16.441,16.441,16.483,16.5711,16.5843,16.6171,16.7,16.7132,16.7132,16.7,16.6343,16.5843,16.5908,16.6606,16.7132,16.7132,16.7684,16.8078,16.8078,16.8539,16.8907,16.8972,16.963,17.0183,17.0314,17.0906,17.2024,17.3273,17.4194,17.4682,17.5443,17.5734,17.5734,17.5668,17.518,17.472,17.4589,17.4457,17.4786,17.5471,17.5734,17.5734,17.5603,17.5734,17.5734,17.5668,17.5537,17.5509,17.5706,17.5734,17.5734,17.5603,17.5668,17.5734,17.5734,17.5706,17.5049,16.441,16.441,16.441,16.441,16.441,16.441,16.441,16.4476,16.4476,16.4344,16.4041,16.4081,16.4081,16.4213,16.4173,16.4278,16.4476,16.4476,16.4476,16.4541,16.441,16.5225,16.65,16.6566,16.7224,16.8249,16.8381,16.8381,16.8709,16.8775,16.8868,16.8907,16.8907,16.9038,16.8972,16.8972,16.8972,16.8907,16.8644,16.8512,16.8512,16.8512,16.7881,16.6592,16.6592,16.5908,16.4673,16.441,16.4476,16.441,16.4344,16.4239,16.4239,16.4107,16.4016,16.4016,16.395,16.4016,16.4016,16.4081,16.4016,16.4213,16.4239,16.437,16.4607,16.4278,16.4107,16.4107,16.4239,16.4304,16.4213,16.4476,16.4739,16.4962,16.5817,16.6592,16.6632,16.775,16.8512,16.8539,16.8512,16.8736,16.8709,16.9038,16.9657,17.0972,17.1958,17.2643,17.2774,17.2774,17.2774,17.2577,17.1854,17.1629,17.2353,17.2774,17.2682,17.2709,17.2774,17.2774,17.284,17.284,17.2774,17.284,17.2747,17.2813,17.284,17.2774,17.2774,17.2747,17.2774,17.2774,17.2774,17.284,17.209,16.441,16.441,16.441,16.441,16.441,16.441,16.441,16.441,16.441,16.3161,16.1346,16.1148,16.174,16.2752,16.2792,16.341,16.4344,16.441,16.441,16.441,16.441,16.4633,16.4962,16.4962,16.5159,16.5396,16.5462,16.608,16.7158,16.7224,16.7815,16.8775,16.8907,16.8907,16.8907,16.8907,16.8907,16.8775,16.6606,16.5462,16.5462,16.5488,16.5291,16.5028,16.4962,16.483,16.4476,16.441,16.441,16.4344,16.3384,16.2818,16.2752,16.174,16.1148,16.1148,16.1148,16.1148,16.1148,16.1148,16.1609,16.2686,16.2752,16.3252,16.4081,16.2463,16.1148,16.128,16.2135,16.2818,16.2924,16.3713,16.441,16.441,16.4804,16.5028,16.4962,16.5225,16.5488,16.5619,16.6566,16.725,16.7421,16.8183,16.8907,16.9262,16.9657,16.992,16.992,16.992,16.992,16.9827,16.963,16.963,16.9788,16.9985,17.0024,16.992,16.9985,17.0117,17.0117,16.9985,16.9985,17.0117,17.0024,17.0183,16.9959,16.9959,17.009,17.0156,17.0248,17.0024,17.0156,17.0117,16.9564,16.2529,16.2529,16.2504,16.2504,16.2463,16.2463,16.2504,16.2504,16.2504,16.1609,16.0228,16.0162,16.0648,16.1305,16.1371,16.174,16.2463,16.2529,16.2832,16.345,16.345,16.3844,16.441,16.441,16.441,16.441,16.441,16.4896,16.5645,16.5711,16.608,16.6803,16.6869,16.6869,16.6869,16.6842,16.6869,16.6842,16.5265,16.441,16.441,16.441,16.441,16.441,16.441,16.441,16.441,16.3818,16.345,16.3515,16.2069,16.1371,16.1305,15.999,15.9201,15.9201,15.8584,15.819,15.819,15.819,15.8807,16.0187,16.0344,16.045,16.0557,15.9727,15.9201,15.9267,16.0516,16.1305,16.1371,16.2003,16.2529,16.2529,16.3121,16.345,16.3515,16.3976,16.441,16.4502,16.5225,16.5711,16.5711,16.6408,16.7066,16.7815,16.7947,16.8276,16.8841,16.7855,16.7066,16.7815,16.7947,16.821,16.8841,16.8907,16.8907,16.8907,16.8907,16.8907,16.8907,16.8907,16.8972,16.8907,16.8907,16.8907,16.8972,16.8907,16.8907,16.8907,16.8907,16.8907,16.8907,16.8907,16.8381,15.9899,15.9899,16.0096,16.0162,16.0162,16.0162,16.0162,16.0096,15.9307,15.8913,15.9004,15.9004,15.9044,15.9307,15.9505,15.9636,15.9924,16.0096,16.0845,16.1963,16.2029,16.2661,16.3818,16.3818,16.3976,16.4173,16.4107,16.4213,16.441,16.4476,16.441,16.4476,16.441,16.4476,16.441,16.441,16.441,16.441,16.441,16.441,16.441,16.441,16.4344,16.4147,16.4107,16.4081,16.391,16.2661,16.2029,16.1963,16.0425,15.957,15.9505,15.7952,15.7015,15.6793,15.5675,15.4861,15.4688,15.4664,15.519,15.6398,15.6924,15.6398,15.4885,15.6003,15.6793,15.6858,15.8215,15.9307,15.9307,15.9439,15.9727,15.9924,16.0977,16.1831,16.2029,16.2989,16.3687,16.3647,16.4041,16.4173,16.4213,16.441,16.5159,16.6106,16.6434,16.6829,16.7395,16.6053,16.5225,16.6106,16.6461,16.6961,16.7657,16.8249,16.7986,16.8315,16.8118,16.792,16.7894,16.792,16.792,16.8183,16.7986,16.8052,16.8052,16.8249,16.8052,16.792,16.792,16.7986,16.792,16.7986,16.7395,15.8437,15.8503,15.9702,16.0162,16.0162,16.0162,16.0162,15.9833,0.0,0.0,0.0,15.3175,15.3809,15.4968,15.611,15.7294,15.8503,15.9661,16.0294,16.0557,16.0557,16.0688,16.0951,16.0951,16.1543,16.2686,16.2686,16.3252,16.4436,16.441,16.441,16.441,16.441,16.441,16.441,16.441,16.441,16.441,16.441,16.441,16.441,16.441,16.391,16.2686,16.2686,16.2135,16.0951,16.0688,16.0582,16.0516,15.8058,15.6636,15.6571,15.4162,15.2189,15.1113,15.0808,15.0061,14.8811,14.868,14.8811,14.9009,15.1334,15.1597,14.89,15.0126,15.0981,15.0981,15.3349,15.4902,15.4902,15.5913,15.7097,15.8305,15.8634,15.9292,16.0359,16.082,16.0951,16.1083,16.1937,16.2686,16.2752,16.3647,16.4607,16.4804,16.4896,16.5028,16.5093,16.4739,16.437,16.483,16.5028,16.5028,16.5265,16.5422,16.5199,16.5462,16.5422,16.5199,16.5199,16.5265,16.5199,16.5488,16.5265,16.533,16.5265,16.5462,16.5199,16.5265,16.5291,16.5265,16.5265,16.5291,16.5002,15.4754,15.482,15.5543,15.5847,0.0,15.5847,15.5453,15.4574,15.177,15.0939,15.1597,15.1663,15.1992,15.2691,15.3438,15.4096,15.4844,15.5543,15.6217,15.6941,15.7664,15.8387,15.9135,15.9833,16.0582,16.124,16.1214,16.1609,16.2241,16.2241,16.2661,16.3384,16.341,16.3713,16.441,16.441,16.3687,16.2332,16.2306,16.2266,16.2266,16.2266,16.1937,16.124,16.124,0.0,0.0,0.0,0.0,0.0,0.0,0.0,0.0,0.0,0.0,14.7299,14.651,14.5786,14.5086,14.502,14.4954,14.502,14.7059,14.6707,14.309,14.5566,14.721,14.7276,14.9117,15.0431,15.0455,15.177,15.2888,15.3702,15.4993,15.611,15.6875,15.7532,15.828,15.9004,15.9687,16.0476,16.1108,16.1872,16.2529,16.3187,16.3384,16.3647,16.4173,16.3252,16.2595,16.3252,16.391,16.441,16.441,16.441,16.4476,16.441,16.441,16.441,16.441,16.441,16.441,16.441,16.441,16.441,16.441,16.441,16.441,16.441,16.441,16.4081,16.2529,16.2332,16.2266,15.0413,15.0413,15.0676,15.0742,15.0742,15.0216,14.9295,14.8219,14.8219,14.8877,14.9953,14.9953,14.9953,15.0018,15.0282,15.0347,15.0413,15.0676,15.1507,15.2996,15.4138,15.5477,15.6858,15.8017,15.8741,15.8979,15.8979,15.9242,15.9793,15.9793,16.0516,16.1897,16.1897,16.2463,16.3555,0.0,0.0,0.0,16.0031,16.0162,16.0162,16.0162,16.0056,15.9793,15.953,0.0,15.8913,15.6415,15.5017,15.4598,15.2189,0.0,0.0,0.0,0.0,0.0,0.0,0.0,0.0,0.0,0.0,0.0,14.092,14.0504,13.7742,14.0569,14.3005,14.4132,14.5532,14.645,14.6794,14.7728,14.8351,14.868,15.0694,15.2207,15.2535,15.3809,15.5124,15.6267,15.6924,15.7754,15.907,15.9661,16.0319,16.1634,16.1897,16.2398,16.3424,16.1674,16.0688,16.17,16.2726,16.3555,16.3621,16.3581,16.3358,16.3647,16.3647,16.3555,16.3515,16.3515,16.3555,16.3515,16.3647,16.3581,16.3555,16.3647,16.345,16.3621,16.3555,16.2924,16.0688,16.0228,16.0162,14.5829,14.5961,14.7233,14.7717,14.7496,14.5086,14.3902,14.3705,14.3727,14.3836,14.3968,14.3968,14.399,14.4099,14.526,14.5829,14.5961,14.7167,14.8548,14.9995,15.0258,15.1071,15.2452,15.2583,15.3349,15.4574,15.4574,15.5823,15.824,15.8305,15.9004,16.0359,16.0425,16.0557,16.0622,15.819,15.745,15.8305,15.953,16.0162,16.0162,16.0162,15.9596,15.8305,15.7097,15.5847,15.4574,15.302,15.1597,15.0324,14.868,14.7036,14.5632,14.3002,14.092,0.0,13.8027,0.0,0.0,0.0,0.0,0.0,0.0,0.0,0.0,13.3292,13.5854,14.1012,14.2659,14.4026,14.5511,14.4446,14.4208,14.5458,14.5895,14.6618,14.7891,14.9337,15.0389,15.061,15.2757,15.4837,15.6176,15.7582,15.8832,16.0056,16.0228,16.0187,16.0557,16.0096,15.9833,16.0359,16.0622,16.0622,16.0688,16.0688,16.0688,16.0688,16.082,16.0754,16.0754,16.082,16.0754,16.082,16.0951,16.082,16.0754,16.082,16.082,16.0885,16.0688,16.0294,15.9833,15.9636,16.0162,14.3814,14.3902,14.4494,14.2893,13.9934,13.8684,13.8575,13.9298,13.9298,13.9759,14.0526,14.0526,14.0526,14.0569,14.2038,14.263,14.2761,14.4142,14.5152,14.5875,14.6618,14.7759,14.9163,14.9995,15.1179,15.2583,15.2583,15.3217,15.4425,15.4515,15.519,15.6546,15.6612,15.5363,15.302,15.2559,15.2625,15.3307,15.4688,15.5453,15.5453,15.6242,15.5954,15.4491,15.3833,15.2823,15.1442,14.9929,14.8482,14.7013,14.5589,14.377,14.1556,13.9474,13.7304,0.0,0.0,0.0,0.0,0.0,0.0,0.0,0.0,0.0,0.0,0.0,13.0562,13.5493,13.7294,13.876,14.0324,14.0433,14.1121,14.2627,14.4215,14.507,14.4741,14.6233,14.7186,14.6997,14.8788,15.0652,15.2165,15.357,15.528,15.7491,15.6439,15.5387,15.5453,15.5412,15.5716,15.648,15.6612,15.6875,15.7664,15.782,15.7795,15.7886,15.8478,15.8938,15.9004,15.9661,16.0162,16.0162,16.0162,16.0162,16.0162,16.0162,16.0162,15.9768,15.7664,15.565,15.5387,15.5453,15.5691,14.0811,14.0723,14.0065,13.7238,13.3292,13.3226,13.3884,13.4892,13.487,13.5462,13.6493,13.6559,13.6493,13.6559,13.7676,13.8356,13.8684,13.9759,14.0877,14.1929,14.3025,14.4448,14.6115,14.7365,14.8482,14.9492,14.9558,14.969,15.0018,15.0084,15.0808,15.2075,15.1155,14.9117,14.6312,14.7299,14.8088,14.8417,14.9798,15.0742,15.1137,15.2494,15.2757,15.1687,15.0939,15.0084,14.8943,14.7102,14.5326,14.3505,14.2433,14.0416,13.7216,13.5331,0.0,0.0,0.0,0.0,0.0,0.0,0.0,0.0,0.0,11.8804,12.1828,0.0,12.601,0.0,13.2105,13.386,13.5365,13.6448,0.0,0.0,14.1661,14.2908,14.2025,14.3335,14.4246,14.4048,14.5248,14.6707,14.8219,14.969,15.1268,15.2954,15.1728,15.0676,15.1071,15.14,15.1992,15.3086,15.3349,15.3677,15.4664,15.4885,15.4885,15.4861,15.5806,15.6464,15.6464,15.745,15.8124,15.8149,15.8149,15.8149,15.7993,15.8149,15.7886,15.6941,15.3612,15.0545,15.0545,15.0939,15.1442,13.5002,13.4805,13.2022,13.0641,13.0181,13.0247,13.0247,13.0378,13.0378,13.0444,13.0555,13.0576,13.0576,13.0576,13.0707,0.0,13.27,13.2787,13.5068,13.8926,13.9057,14.0569,14.3179,14.331,14.3442,14.3573,14.353,14.4231,14.55,14.55,14.6247,14.7496,14.3748,14.2235,14.3179,14.331,14.4034,14.5369,14.6773,14.8219,14.9666,15.1071,15.1794,15.1597,14.8966,14.743,14.7233,14.4668,14.1907,13.932,13.8991,13.6953,13.2766,0.0,0.0,0.0,0.0,0.0,0.0,0.0,0.0,0.0,0.0,0.0,0.0,0.0,0.0,12.5255,12.8269,0.0,13.2506,13.2573,0.0,0.0,0.0,13.7718,13.8991,14.0373,14.1297,14.1286,0.0,0.0,14.5172,14.6641,14.7102,14.6026,14.6815,14.8022,14.9469,15.0587,15.1663,15.1465,15.1728,15.1794,15.1597,15.1639,15.1663,15.1663,15.2081,15.2123,15.2147,15.232,15.232,15.2452,15.232,15.2386,15.232,15.2386,15.1465,14.8943,14.7891,14.7496,14.7562,14.8482,14.9403,12.9084,12.5072,12.3889,12.2883,12.1982,12.1963,12.1982,12.1963,12.1982,12.1963,12.1963,12.1963,12.1963,12.2028,12.2949,0.0,0.0,0.0,13.0333,13.2109,13.3818,13.5725,13.772,13.8641,13.9496,14.0263,14.0263,14.0591,14.1161,14.1161,13.9649,13.6777,0.0,0.0,13.772,13.9408,14.0986,14.241,14.4711,14.6575,14.8022,14.8637,14.8482,14.7628,14.5612,14.4142,14.3288,14.1381,13.9013,13.612,13.4323,13.1693,0.0,0.0,0.0,0.0,0.0,0.0,0.0,0.0,0.0,0.0,0.0,10.9621,11.2756,0.0,0.0,0.0,12.2451,12.4777,12.8169,12.9082,0.0,0.0,0.0,0.0,0.0,0.0,0.0,13.7245,13.9765,14.1913,14.2424,14.3022,14.2832,14.136,14.309,14.4823,14.5415,0.0,14.6335,14.6335,14.6335,14.6335,14.6335,14.6335,14.6335,14.6335,14.7036,14.7628,14.7693,14.8374,14.89,14.89,14.8966,14.8877,14.8966,14.7454,14.5875,14.4823,14.456,14.456,14.456,14.5086,14.5809,12.1897,0.0,0.0,0.0,0.0,11.5603,11.5621,11.5556,11.5621,11.5603,11.5603,11.5603,0.0,0.0,0.0,0.0,0.0,0.0,12.4796,12.5947,12.7966,13.0136,13.2437,13.3445,13.4673,13.6098,13.6098,13.6077,13.6033,13.4561,13.1945,12.8258,0.0,0.0,0.0,0.0,13.8071,13.9605,14.2344,14.4448,14.5852,14.5941,14.5589,14.504,14.3222,14.16,14.0175,13.8334,13.5835,13.2569,12.9589,0.0,0.0,0.0,0.0,0.0,0.0,0.0,0.0,0.0,0.0,0.0,0.0,0.0,0.0,0.0,0.0,0.0,0.0,0.0,12.3019,12.4549,12.6494,0.0,0.0,0.0,0.0,0.0,0.0,0.0,0.0,0.0,13.8558,13.8888,13.9012,0.0,0.0,14.1976,14.2858,14.3431,14.3696,14.3696,14.4198,0.0,14.4436,14.4046,14.3652,14.3586,14.402,14.4405,14.4405,14.5195,14.5918,14.5918,14.5941,14.5326,14.3902,14.2087,14.114,14.1074,14.1029,14.1029,14.103,14.1032,14.1469,0.0,0.0,0.0,0.0,0.0,0.0,0.0,0.0,11.253,11.2399,0.0,11.2351,0.0,0.0,0.0,0.0,0.0,11.5504,0.0,0.0,12.1626,12.3908,12.7743,12.794,12.8709,13.005,13.0115,13.0115,12.9741,12.4917,0.0,0.0,0.0,0.0,0.0,0.0,13.5133,13.6667,13.9496,14.16,14.2981,14.3047,14.3639,14.4843,14.2279,14.0131,13.8663,13.5923,13.2372,12.8052,12.5138,0.0,0.0,0.0,0.0,0.0,0.0,0.0,0.0,0.0,0.0,0.0,0.0,0.0,0.0,0.0,0.0,0.0,0.0,0.0,0.0,11.8475,0.0,0.0,0.0,0.0,0.0,0.0,0.0,0.0,0.0,0.0,13.2851,13.3994,13.5839,13.8417,0.0,0.0,0.0,0.0,14.5656,14.5656,14.7271,14.8366,14.8047,14.6656,14.5598,14.5244,0.0,0.0,14.2917,14.296,14.3005,14.3004,14.2895,14.1271,13.5942,13.6133,13.6817,13.6837,13.683,13.6696,13.667,13.6935,13.7231,0.0,0.0,0.0,0.0,0.0,0.0,0.0,0.0,0.0,10.1268,0.0,10.1268,0.0,0.0,0.0,0.0,0.0,0.0,0.0,0.0,11.6584,11.8799,12.1335,12.2044,12.3232,0.0,12.4916,12.2932,0.0,0.0,0.0,0.0,0.0,0.0,0.0,0.0,13.1669,13.5002,13.7874,14.0065,14.1403,14.2367,14.2652,14.2235,14.1249,13.9145,13.5923,13.2043,12.7986,0.0,0.0,0.0,0.0,0.0,0.0,0.0,0.0,0.0,0.0,0.0,0.0,0.0,0.0,0.0,0.0,0.0,0.0,0.0,0.0,0.0,0.0,0.0,11.6368,0.0,0.0,0.0,0.0,0.0,0.0,0.0,0.0,0.0,12.7336,13.0703,13.3781,13.4858,13.6407,13.8577,14.1693,0.0,0.0,0.0,0.0,0.0,0.0,0.0,14.4266,14.3013,14.2604,14.2002,14.1024,13.9887,13.8977,13.8734,0.0,0.0,13.5126,13.5216,13.5565,13.5565,13.4712,13.4354,13.5361,13.4729,13.4829,0.0,0.0,0.0,0.0,0.0,0.0,0.0,0.0,0.0,9.4021,9.4102,0.0,0.0,0.0,0.0,0.0,0.0,0.0,0.0,0.0,0.0,0.0,11.5069,11.6263,0.0,0.0,0.0,0.0,0.0,0.0,0.0,0.0,0.0,0.0,0.0,0.0,12.7903,13.225,13.5505,13.8071,14.0,14.092,14.1183,14.0723,13.9802,13.7764,13.441,0.0,0.0,0.0,0.0,0.0,0.0,0.0,0.0,0.0,0.0,0.0,0.0,0.0,0.0,0.0,0.0,0.0,0.0,0.0,0.0,0.0,0.0,0.0,0.0,0.0,11.1802,0.0,0.0,0.0,0.0,0.0,0.0,0.0,0.0,0.0,0.0,0.0,13.0593,13.2683,13.445,13.6815,14.0443,14.1787,14.2785,0.0,0.0,0.0,0.0,0.0,0.0,0.0,0.0,0.0,0.0,0.0,0.0,0.0,0.0,13.1605,13.1995,13.2438,13.2841,13.2841,0.0,0.0,0.0,0.0,0.0,0.0,0.0,0.0,0.0,0.0,0.0,0.0,0.0,0.0,0.0,9.1536,0.0,0.0,9.1522,0.0,0.0,0.0,0.0,0.0,0.0,0.0,0.0,0.0,0.0,0.0,0.0,0.0,0.0,0.0,0.0,0.0,0.0,0.0,0.0,0.0,0.0,12.3856,12.8282,13.2295,13.5725,13.8465,13.8597,13.9254,14.046,13.7917,13.5681,13.406,0.0,0.0,0.0,0.0,0.0,0.0,0.0,0.0,0.0,0.0,0.0,0.0,0.0,0.0,0.0,0.0,0.0,0.0,0.0,0.0,0.0,0.0,0.0,0.0,0.0,0.0,10.8098,11.0821,11.3224,0.0,0.0,0.0,0.0,0.0,0.0,0.0,0.0,0.0,0.0,13.2823,13.448,13.903,14.266,14.4694,14.4834,14.6482,14.7706,14.7246,14.4695,14.2542,0.0,0.0,0.0,0.0,0.0,0.0,0.0,0.0,0.0,0.0,0.0,0.0,0.0,0.0,0.0,0.0,0.0,0.0,0.0,0.0,0.0,0.0,0.0,0.0,0.0,0.0,0.0,0.0,0.0,0.0,0.0,0.0,0.0,0.0,0.0,0.0,0.0,0.0,0.0,0.0,0.0,0.0,0.0,0.0,0.0,0.0,0.0,0.0,0.0,0.0,0.0,0.0,0.0,0.0,12.1374,12.6763,13.0649,13.4081,13.704,13.8071,13.8356,13.7698,13.5944,13.3313,0.0,0.0,0.0,0.0,0.0,0.0,0.0,0.0,0.0,0.0,0.0,0.0,0.0,0.0,0.0,0.0,0.0,0.0,0.0,0.0,0.0,0.0,0.0,0.0,0.0,0.0,0.0,0.0,10.7242,10.8455,11.0025,0.0,0.0,0.0,0.0,0.0,0.0,0.0,0.0,0.0,0.0,13.1641,13.6267,13.9489,14.1845,14.296,14.4551,14.5207,14.4023,14.3305,14.2037,13.9653,0.0,0.0,0.0,0.0,0.0,0.0,0.0,0.0,0.0,0.0,0.0,0.0,0.0,0.0,0.0,0.0,0.0,0.0,0.0,0.0,0.0,0.0,0.0,0.0,0.0,0.0,0.0,0.0,0.0,0.0,0.0,0.0,0.0,0.0,0.0,0.0,0.0,0.0,0.0,0.0,0.0,0.0,0.0,0.0,0.0,0.0,0.0,0.0,0.0,0.0,0.0,0.0,0.0,11.8821,12.4576,12.8425,13.2109,13.5528,13.7019,13.7391,13.647,13.4476,13.1447,0.0,0.0,0.0,0.0,0.0,0.0,0.0,0.0,0.0,0.0,0.0,0.0,0.0,0.0,0.0,0.0,0.0,0.0,0.0,0.0,0.0,0.0,0.0,0.0,0.0,0.0,0.0,0.0,10.3257,10.4541,10.6111,0.0,0.0,0.0,0.0,0.0,0.0,0.0,0.0,0.0,0.0,12.8591,13.2623,13.6257,0.0,0.0,14.1674,14.1745,14.0238,13.9642,13.8559,13.5996,13.395,0.0,0.0,0.0,0.0,0.0,0.0,0.0,0.0,0.0,0.0,0.0,0.0,0.0,0.0,0.0,0.0,0.0,0.0,0.0,0.0,0.0,0.0,0.0,0.0,0.0,0.0,0.0,0.0,0.0,0.0,0.0,0.0,0.0,0.0,0.0,0.0,0.0,0.0,0.0,0.0,0.0,0.0,0.0,0.0,0.0,0.0,0.0,0.0,0.0,0.0,0.0,0.0,11.6229,12.1868,12.5662,12.9762,13.3994,13.5549,13.6273,13.6141,13.3161,12.9661,0.0,0.0,0.0,0.0,0.0,0.0,0.0,0.0,0.0,0.0,0.0,0.0,0.0,0.0,0.0,0.0,0.0,0.0,0.0,0.0,0.0,0.0,0.0,0.0,0.0,0.0,0.0,0.0,0.0,0.0,0.0,0.0,0.0,0.0,0.0,0.0,0.0,0.0,0.0,0.0,0.0,12.5235,12.8362,13.2715,13.6211,0.0,0.0,13.7553,13.5854,13.4414,13.2857,13.1229,0.0,0.0,0.0,0.0,0.0,0.0,0.0,0.0,0.0,0.0,0.0,0.0,0.0,0.0,0.0,0.0,0.0,0.0,0.0,0.0,0.0,0.0,0.0,0.0,0.0,0.0,0.0,0.0,0.0,0.0,0.0,0.0,0.0,0.0,0.0,0.0,0.0,0.0,0.0,0.0,0.0,0.0,0.0,0.0,0.0,0.0,0.0,0.0,0.0,0.0,0.0,0.0,0.0,0.0,11.9069,12.3683,12.8229,13.2437,13.4081,13.43,13.3116,12.9215,0.0,0.0,0.0,0.0,0.0,0.0,0.0,0.0,0.0,0.0,0.0,0.0,0.0,0.0,0.0,0.0,0.0,0.0,0.0,0.0,0.0,0.0,0.0,0.0,0.0,0.0,0.0,9.1036,0.0,0.0,0.0,0.0,0.0,0.0,0.0,0.0,0.0,0.0,0.0,0.0,0.0,0.0,12.0359,12.3414,12.6994,12.9776,0.0,0.0,13.2371,12.9718,12.892,12.7707,0.0,0.0,0.0,0.0,0.0,0.0,0.0,0.0,0.0,0.0,0.0,0.0,0.0,0.0,0.0,0.0,0.0,0.0,0.0,0.0,0.0,0.0,0.0,0.0,0.0,0.0,0.0,0.0,0.0,0.0,0.0,0.0,0.0,0.0,0.0,0.0,0.0,0.0,0.0,0.0,0.0,0.0,0.0,0.0,0.0,0.0,0.0,0.0,0.0,0.0,0.0,0.0,0.0,0.0,11.4677,11.9071,12.4187,12.868,13.2363,13.4656,13.4446,13.1737,12.8463,12.396,0.0,0.0,0.0,0.0,0.0,0.0,0.0,0.0,0.0,0.0,0.0,0.0,0.0,0.0,0.0,0.0,0.0,0.0,0.0,0.0,0.0,0.0,0.0,0.0,0.0,0.0,0.0,0.0,0.0,0.0,0.0,0.0,0.0,0.0,0.0,0.0,0.0,0.0,0.0,0.0,0.0,0.0,11.9645,12.2214,0.0,0.0,0.0,12.665,12.4224,0.0,0.0,0.0,0.0,0.0,0.0,0.0,0.0,0.0,0.0,0.0,0.0,0.0,0.0,0.0,0.0,0.0,0.0,0.0,0.0,0.0,0.0,0.0,0.0,0.0,0.0,0.0,0.0,0.0,0.0,0.0,0.0,0.0,0.0,0.0,0.0,0.0,0.0,0.0,0.0,0.0,0.0,0.0,0.0,0.0,0.0,0.0,0.0,0.0,0.0,0.0,0.0,0.0,0.0,0.0,0.0,0.0,11.9909,12.5059,12.9413,13.2793,13.5468,13.4994,13.1329,12.8854,12.4657,0.0,0.0,0.0,0.0,0.0,0.0,0.0,0.0,0.0,0.0,0.0,0.0,0.0,0.0,0.0,0.0,0.0,0.0,0.0,0.0,0.0,0.0,0.0,0.0,0.0,0.0,0.0,0.0,0.0,0.0,0.0,0.0,0.0,0.0,0.0,0.0,0.0,0.0,0.0,0.0,0.0,11.3532,11.6435,11.823,11.9729,0.0,0.0,12.0989,11.9443,11.917,0.0,0.0,0.0,0.0,0.0,0.0,0.0,0.0,0.0,0.0,0.0,0.0,0.0,0.0,0.0,0.0,0.0,0.0,0.0,0.0,0.0,0.0,0.0,0.0,0.0,0.0,0.0,0.0,0.0,0.0,0.0,0.0,0.0,0.0,0.0,0.0,0.0,0.0,0.0,0.0,0.0,0.0,0.0,0.0,0.0,0.0,0.0,0.0,0.0,0.0,0.0,0.0,0.0,0.0,0.0,0.0,11.6394,12.0819,12.5698,13.1004,13.1893,13.1822,13.1019,12.6186,12.1289,0.0,0.0,0.0,0.0,0.0,0.0,0.0,0.0,0.0,0.0,0.0,0.0,0.0,0.0,0.0,0.0,0.0,0.0,0.0,0.0,0.0,0.0,0.0,0.0,0.0,0.0,0.0,0.0,0.0,0.0,0.0,0.0,0.0,0.0,0.0,0.0,0.0,0.0,0.0,0.0,0.0,11.1595,11.339,11.5008,0.0,0.0,0.0,0.0,11.6281,11.5995,0.0,0.0,0.0,0.0,0.0,0.0,0.0,0.0,0.0,0.0,0.0,0.0,0.0,0.0,0.0,0.0,0.0,0.0,0.0,0.0,0.0,0.0,0.0,0.0,0.0,0.0,0.0,0.0,0.0,0.0,0.0,0.0,0.0,0.0,0.0,0.0,0.0,0.0,0.0,0.0,0.0,0.0,0.0,0.0,0.0,0.0,0.0,0.0,0.0,0.0,0.0,0.0,0.0,0.0,0.0,0.0,11.6759,12.166,12.6131,13.0029,13.2281,13.2124,12.9411,12.4912,12.0257,0.0,0.0,0.0,0.0,0.0,0.0,0.0,0.0,0.0,0.0,0.0,0.0,0.0,0.0,0.0,0.0,0.0,0.0,0.0,0.0,0.0,0.0,0.0,0.0,0.0,0.0,0.0,0.0,0.0,0.0,0.0,0.0,0.0,0.0,0.0,0.0,0.0,0.0,0.0,0.0,10.6019,10.7874,11.0178,0.0,0.0,0.0,0.0,0.0,0.0,11.1726,11.1166,0.0,0.0,0.0,0.0,0.0,0.0,0.0,0.0,0.0,0.0,0.0,0.0,0.0,0.0,0.0,0.0,0.0,0.0,0.0,0.0,0.0,0.0,0.0,0.0,0.0,0.0,0.0,0.0,0.0,0.0,0.0,0.0,0.0,0.0,0.0,0.0,0.0,0.0,0.0,0.0,0.0,0.0,0.0,0.0,0.0,0.0,0.0,0.0,0.0,0.0,0.0,0.0,0.0,0.0,0.0,11.7295,12.2875,12.665,12.8639,13.262,13.2393,12.761,12.4013,11.9603,11.4081,0.0,0.0,0.0,0.0,0.0,0.0,0.0,0.0,0.0,0.0,0.0,0.0,0.0,0.0,0.0,0.0,0.0,0.0,0.0,0.0,0.0,0.0,0.0,0.0,0.0,0.0,0.0,0.0,0.0,0.0,0.0,0.0,0.0,0.0,0.0,0.0,0.0,0.0,0.0,10.2513,10.4092,0.0,0.0,0.0,0.0,0.0,0.0,0.0,0.0,10.7763,0.0,0.0,0.0,0.0,0.0,0.0,0.0,0.0,0.0,0.0,0.0,0.0,0.0,0.0,0.0,0.0,0.0,0.0,0.0,0.0,0.0,0.0,0.0,0.0,0.0,0.0,0.0,0.0,0.0,0.0,0.0,0.0,0.0,0.0,0.0,0.0,0.0,0.0,0.0,0.0,0.0,0.0,0.0,0.0,0.0,0.0,0.0,0.0,0.0,0.0,0.0,0.0,0.0,0.0,0.0,0.0,11.8374,12.2283,12.5257,12.7346,12.8011,12.7131,12.1988,11.679,11.1714,0.0,0.0,0.0,0.0,0.0,0.0,0.0,0.0,0.0,0.0,0.0,0.0,0.0,0.0,0.0,0.0,0.0,0.0,0.0,0.0,0.0,0.0,0.0,0.0,0.0,0.0,0.0,0.0,0.0,0.0,0.0,0.0,0.0,0.0,0.0,0.0,0.0,0.0,9.4879,9.8894,0.0,0.0,0.0,0.0,0.0,0.0,0.0,0.0,10.812,0.0,0.0,0.0,0.0,0.0,0.0,0.0,0.0,0.0,0.0,0.0,0.0,0.0,0.0,0.0,0.0,0.0,0.0,0.0,0.0,0.0,0.0,0.0,0.0,0.0,0.0,0.0,0.0,0.0,0.0,0.0,0.0,0.0,0.0,0.0,0.0,0.0,0.0,0.0,0.0,0.0,0.0,0.0,0.0,0.0,0.0,0.0,0.0,0.0,0.0,0.0,0.0,0.0,0.0,0.0,0.0,0.0,0.0,12.0085,12.3141,12.4866,12.5245,12.4254,11.8809,11.4597,0.0,0.0,0.0,0.0,0.0,0.0,0.0,0.0,0.0,0.0,0.0,0.0,0.0,0.0,0.0,0.0,0.0,0.0,0.0,0.0,0.0,0.0,0.0,0.0,0.0,0.0,0.0,0.0,0.0,0.0,0.0,0.0,0.0,0.0,0.0,0.0,0.0,0.0,0.0,0.0,0.0,0.0,0.0,0.0,0.0,0.0,0.0,0.0,0.0,0.0,0.0,0.0,0.0,0.0,0.0,0.0,0.0,0.0,0.0,0.0,0.0,0.0,0.0,0.0,0.0,0.0,0.0,0.0,0.0,0.0,0.0,0.0,0.0,0.0,0.0,0.0,0.0,0.0,0.0,0.0,0.0,0.0,0.0,0.0,0.0,0.0,0.0,0.0,0.0,0.0,0.0,0.0,0.0,0.0,0.0,0.0,0.0,0.0,0.0,0.0,0.0,0.0,0.0,0.0,0.0,0.0,0.0,0.0,11.8135,12.0561,12.2155,12.244,12.106,11.5985,11.2594,0.0,0.0,0.0,0.0,0.0,0.0,0.0,0.0,0.0,0.0,0.0,0.0,0.0,0.0,0.0,0.0,0.0,0.0,0.0,0.0,0.0,0.0,0.0,0.0,0.0,0.0,0.0,0.0,0.0,0.0,0.0,0.0,0.0,0.0,0.0,0.0,0.0,0.0,0.0,0.0,0.0,0.0,0.0,0.0,0.0,0.0,0.0,0.0,9.8955,0.0,0.0,0.0,0.0,0.0,0.0,0.0,0.0,0.0,0.0,0.0,0.0,0.0,0.0,0.0,0.0,0.0,0.0,0.0,0.0,0.0,0.0,0.0,0.0,0.0,0.0,0.0,0.0,0.0,0.0,0.0,0.0,0.0,0.0,0.0,0.0,0.0,0.0,0.0,0.0,0.0,0.0,0.0,0.0,0.0,0.0,0.0,0.0,0.0,0.0,0.0,0.0,0.0,0.0,0.0,0.0,0.0,0.0,0.0,11.5485,11.5781,11.7351,11.8088,11.7791,11.4643,11.0864,0.0,0.0,0.0,0.0,0.0,0.0,0.0,0.0,0.0,0.0,0.0,0.0,0.0,0.0,0.0,0.0,0.0,0.0,0.0,0.0,0.0,0.0,0.0,0.0,0.0,0.0,0.0,0.0,0.0,0.0,0.0,0.0,0.0,0.0,0.0,0.0,0.0,0.0,0.0,0.0,0.0,0.0,0.0,0.0,0.0,0.0,0.0,0.0,0.0,0.0,0.0,0.0,0.0,0.0,0.0,0.0,0.0,0.0,0.0,0.0,0.0,0.0,0.0,0.0,0.0,0.0,0.0,0.0,0.0,0.0,0.0,0.0,0.0,0.0,0.0,0.0,0.0,0.0,0.0,0.0,0.0,0.0,0.0,0.0,0.0,0.0,0.0,0.0,0.0,0.0,0.0,0.0,0.0,0.0,0.0,0.0,0.0,0.0,0.0,0.0,0.0,0.0,0.0,0.0,0.0,0.0,0.0,0.0,11.2796,11.3724,11.5222,11.4794,11.2023,10.9882,10.7303,0.0,0.0,0.0,0.0,0.0,0.0,0.0,0.0,0.0,0.0,0.0,0.0,0.0,0.0,0.0,0.0,0.0,0.0,0.0,0.0,0.0,0.0,0.0,0.0,0.0,0.0,0.0,0.0,0.0,0.0,0.0,0.0,0.0,0.0,0.0,0.0,0.0,0.0,0.0,0.0,0.0,0.0,0.0,0.0,0.0,0.0,0.0,0.0,0.0,0.0,0.0,0.0,0.0,0.0,0.0,0.0,0.0,0.0,0.0,0.0,0.0,0.0,0.0,0.0,0.0,0.0,0.0,0.0,0.0,0.0,0.0,0.0,0.0,0.0,0.0,0.0,0.0,0.0,0.0,0.0,0.0,0.0,0.0,0.0,0.0,0.0,0.0,0.0,0.0,0.0,0.0,0.0,0.0,0.0,0.0,0.0,0.0,0.0,0.0,0.0,0.0,0.0,0.0,0.0,0.0,0.0,0.0,0.0,0.0,11.1463,11.1869,11.0585,10.761,10.554,10.3603,0.0,0.0,0.0,0.0,0.0,0.0,0.0,0.0,0.0,0.0,0.0,0.0,0.0,0.0,0.0,0.0,0.0,0.0,0.0,0.0,0.0,0.0,0.0,0.0,0.0,0.0,0.0,0.0,0.0,0.0,0.0,0.0,0.0,0.0,0.0,0.0,0.0,0.0,0.0,0.0,0.0,0.0,0.0,0.0,0.0,0.0,0.0,0.0,0.0,0.0,0.0,0.0,0.0,0.0,0.0,0.0,0.0,0.0,0.0,0.0,0.0,0.0,0.0,0.0,0.0,0.0,0.0,0.0,0.0,0.0,0.0,0.0,0.0,0.0,0.0,0.0,0.0,0.0,0.0,0.0,0.0,0.0,0.0,0.0,0.0,0.0,0.0,0.0,0.0,0.0,0.0,0.0,0.0,0.0,0.0,0.0,0.0,0.0,0.0,0.0,0.0,0.0,0.0,0.0,0.0,0.0,0.0,0.0,0.0,10.8334,10.5519,10.4663,10.5733,10.29,9.9913,0.0,0.0,0.0,0.0,0.0,0.0,0.0,0.0,0.0,0.0,0.0,0.0,0.0,0.0,0.0,0.0,0.0,0.0,0.0,0.0,0.0,0.0,0.0,0.0,0.0,0.0,0.0,0.0,0.0,0.0,0.0,0.0,0.0,0.0,0.0,0.0,0.0,0.0,0.0,0.0,0.0,0.0,0.0,0.0,0.0,0.0,0.0,0.0,0.0,0.0,0.0,0.0,0.0,0.0,0.0,0.0,0.0,0.0,0.0,0.0,0.0,0.0,0.0,0.0,0.0,0.0,0.0,0.0,0.0,0.0,0.0,0.0,0.0,0.0,0.0,0.0,0.0,0.0,0.0,0.0,0.0,0.0,0.0,0.0,0.0,0.0,0.0,0.0,0.0,0.0,0.0,0.0,0.0,0.0,0.0,0.0,0.0,0.0,0.0,0.0,0.0,0.0,0.0,0.0,0.0,0.0,0.0,0.0,0.0,10.0779,10.0606,10.0739,10.132,9.8252,9.603,9.4765,0.0,0.0,0.0,0.0,0.0,0.0,0.0,0.0,0.0,0.0,0.0,0.0,0.0,0.0,0.0,0.0,0.0,0.0,0.0,0.0,0.0,0.0,0.0,0.0,0.0,0.0,0.0,0.0,0.0,0.0,0.0,0.0,0.0,0.0,0.0,0.0,0.0,0.0,0.0,0.0,0.0,0.0,0.0,0.0,0.0,0.0,0.0,0.0,0.0,0.0,0.0,0.0,0.0,0.0,0.0,0.0,0.0,0.0,0.0,0.0,0.0,0.0,0.0,0.0,0.0,0.0,0.0,0.0,0.0,0.0,0.0,0.0,0.0,0.0,0.0,0.0,0.0,0.0,0.0,0.0,0.0,0.0,0.0,0.0,0.0,0.0,0.0,0.0,0.0,0.0,0.0,0.0,0.0,0.0,0.0,0.0,0.0,0.0,0.0,0.0,0.0,0.0,0.0,0.0,0.0,0.0,0.0,0.0,9.4908,9.5469,9.603,9.6458,9.3819,9.2178,0.0,0.0,0.0,0.0,0.0,0.0,0.0,0.0,0.0,0.0,0.0,0.0,0.0,0.0,0.0,0.0,0.0,0.0,0.0,0.0,0.0,0.0,0.0,0.0,0.0,0.0,0.0,0.0,0.0,0.0,0.0,0.0,0.0,0.0,0.0,0.0,0.0,0.0,0.0,0.0,0.0,0.0,0.0,0.0,0.0,0.0,0.0,0.0,0.0,0.0,0.0,0.0,0.0,0.0,0.0,0.0,0.0,0.0,0.0,0.0,0.0,0.0,0.0,0.0,0.0,0.0,0.0,0.0,0.0,0.0,0.0,0.0,0.0,0.0,0.0,0.0,0.0,0.0,0.0,0.0,0.0,0.0,0.0,0.0,0.0,0.0,0.0,0.0,0.0,0.0,0.0,0.0,0.0,0.0,0.0,0.0,0.0,0.0,0.0,0.0,0.0,0.0,0.0,0.0,0.0,0.0,0.0,0.0,8.8593,9.1366,9.018,9.0403,9.1517,9.018,8.8619,0.0,0.0,0.0,0.0,0.0,0.0,0.0,0.0,0.0,0.0,0.0,0.0,0.0,0.0,0.0,0.0,0.0,0.0,0.0,0.0,0.0,0.0,0.0,0.0,0.0,0.0,0.0,0.0,0.0,0.0,0.0,0.0,0.0,0.0,0.0,0.0,0.0,0.0,0.0,0.0,0.0,0.0,0.0,0.0,0.0,0.0,0.0,0.0,0.0,0.0,0.0,0.0,0.0,0.0,0.0,0.0,0.0,0.0,0.0,0.0,0.0,0.0,0.0,0.0,0.0,0.0,0.0,0.0,0.0,0.0,0.0,0.0,0.0,0.0,0.0,0.0,0.0,0.0,0.0,0.0,0.0,0.0,0.0,0.0,0.0,0.0,0.0,0.0,0.0,0.0,0.0,0.0,0.0,0.0,0.0,0.0,0.0,0.0,0.0,0.0,0.0,0.0,0.0,0.0,0.0,0.0,0.0,0.0,0.0,8.8307,0.0,8.9475,0.0,8.8459,8.7398,0.0,0.0,0.0,0.0,0.0,0.0,0.0,0.0,0.0,0.0,0.0,0.0,0.0,0.0,0.0,0.0,0.0,0.0,0.0,0.0,0.0,0.0,0.0,0.0,0.0,0.0,0.0,0.0,0.0,0.0,0.0,0.0,0.0,0.0,0.0,0.0,0.0,0.0,0.0,0.0,0.0,0.0,0.0,0.0,0.0,0.0,0.0,0.0,0.0,0.0,0.0,0.0,0.0,0.0,0.0,0.0,0.0,0.0,0.0,0.0,0.0,0.0,0.0,0.0,0.0,0.0,0.0,0.0,0.0,0.0,0.0,0.0,0.0,0.0,0.0,0.0,0.0,0.0,0.0,0.0,0.0,0.0,0.0,0.0,0.0,0.0,0.0,0.0,0.0,0.0,0.0,0.0,0.0,0.0,0.0,0.0,0.0,0.0,0.0,0.0,0.0,0.0,0.0,0.0,0.0,0.0,0.0,0.0,0.0,8.5979,8.7058,8.7558,8.7495,8.655,8.6042,0.0,0.0,0.0,0.0,0.0,0.0,0.0,0.0,0.0,0.0,0.0,0.0,0.0,0.0,0.0,0.0,0.0,0.0,0.0,0.0,0.0,0.0,0.0,0.0,0.0,0.0,0.0,0.0,0.0,0.0,0.0,0.0,0.0,0.0,0.0,0.0,0.0,0.0,0.0,0.0,0.0,0.0,0.0,0.0,0.0,0.0,0.0,0.0,0.0,0.0,0.0,0.0,0.0,0.0,0.0,0.0,0.0,0.0,0.0,0.0,0.0,0.0,0.0,0.0,0.0,0.0,0.0,0.0,0.0,0.0,0.0,0.0,0.0,0.0,0.0,0.0,0.0,0.0,0.0,0.0,0.0,0.0,0.0,0.0,0.0,0.0,0.0,0.0,0.0,0.0,0.0,0.0,0.0,0.0,0.0,0.0,0.0,0.0,0.0,0.0,0.0,0.0,0.0,0.0,0.0,0.0,0.0,0.0,0.0,0.0,8.4577,8.4569,8.4632,8.4569,8.4569,0.0,0.0,0.0,0.0,0.0,0.0,0.0,0.0,0.0,0.0,0.0,0.0,0.0,0.0,0.0,0.0,0.0,0.0,0.0,0.0,0.0,0.0,0.0,0.0,0.0,0.0,0.0,0.0,0.0,0.0,0.0,0.0,0.0,0.0,0.0,0.0,0.0,0.0,0.0,0.0,0.0,0.0,0.0,0.0,0.0,0.0,0.0,0.0,0.0,0.0,0.0,0.0,0.0,0.0,0.0,0.0,0.0,0.0,0.0,0.0,0.0,0.0,0.0,0.0,0.0,0.0,0.0,0.0,0.0,0.0,0.0,0.0,0.0,0.0,0.0,0.0,0.0,0.0,0.0,0.0,0.0,0.0,0.0,0.0,0.0,0.0,0.0,0.0,0.0,0.0,0.0,0.0,0.0,0.0,0.0,0.0,0.0,0.0,0.0,0.0,0.0,0.0,0.0,0.0,0.0,0.0,0.0,0.0,0.0,0.0,8.399,0.0,8.4561,8.4561,8.4561,8.4561,0.0,0.0,0.0,0.0,0.0,0.0,0.0,0.0,0.0,0.0,0.0,0.0,0.0,0.0,0.0,0.0,0.0,0.0,0.0,0.0,0.0,0.0,0.0,0.0,0.0,0.0,0.0,0.0,0.0,0.0,0.0,0.0,0.0,0.0,0.0,0.0,0.0,0.0,0.0,0.0,0.0,0.0,0.0,0.0,0.0,0.0,0.0,0.0,0.0,0.0,0.0,0.0,0.0,0.0,0.0,0.0,0.0,0.0,0.0,0.0,0.0,0.0,0.0,0.0,0.0,0.0,0.0,0.0,0.0,0.0,0.0,0.0,0.0,0.0,0.0,0.0,0.0,0.0,0.0,0.0,0.0,0.0,0.0,0.0,0.0,0.0,0.0,0.0,0.0,0.0,0.0,0.0,0.0,0.0,0.0,0.0,0.0,0.0,0.0,0.0,0.0,0.0,0.0,0.0,0.0,0.0,0.0,0.0,0.0,0.0,8.3633,8.357,8.4212,8.4561,0.0,0.0,0.0,0.0,0.0,0.0,0.0,0.0,0.0,0.0,0.0,0.0,0.0,0.0,0.0,0.0,0.0,0.0,0.0,0.0,0.0,0.0,0.0,0.0,0.0,0.0,0.0,0.0,0.0,0.0,0.0,0.0,0.0,0.0,0.0,0.0,0.0,0.0,0.0,0.0,0.0,0.0,0.0,0.0,0.0,0.0,0.0,0.0,0.0,0.0,0.0,0.0,0.0,0.0,0.0,0.0,0.0,0.0,0.0,0.0,0.0,0.0,0.0,0.0,0.0,0.0,0.0,0.0,0.0,0.0,0.0,0.0,0.0,0.0,0.0,0.0,0.0,0.0,0.0,0.0,0.0,0.0,0.0,0.0,0.0,0.0,0.0,0.0,0.0,0.0,0.0,0.0,0.0,0.0,0.0,0.0,0.0,0.0,0.0,0.0,0.0,0.0,0.0,0.0,0.0,0.0,0.0,0.0,0.0,0.0,0.0,8.1975,8.2055,8.3347,0.0,8.4141,0.0,0.0,0.0,0.0,0.0,0.0,0.0,0.0,0.0,0.0,0.0,0.0,0.0,0.0,0.0,0.0,0.0,0.0,0.0,0.0,0.0,0.0,0.0,0.0,0.0,0.0,0.0,0.0,0.0,0.0,0.0,0.0,0.0,0.0,0.0,0.0,0.0,0.0,0.0,0.0,0.0,0.0,0.0,0.0,0.0,0.0,0.0,0.0,0.0,0.0,0.0,0.0,0.0,0.0,0.0,0.0,0.0,0.0,0.0,0.0,0.0,0.0,0.0,0.0,0.0,0.0,0.0,0.0,0.0,0.0,0.0,0.0,0.0,0.0,0.0,0.0,0.0,0.0,0.0,0.0,0.0,0.0,0.0,0.0,0.0,0.0,0.0,0.0,0.0,0.0,0.0,0.0,0.0,0.0,0.0,0.0,0.0,0.0,0.0,0.0,0.0,0.0,0.0,0.0,0.0,0.0,0.0,0.0,0.0,0.0,0.0,0.0,8.0754,8.0968,8.0977,0.0,0.0,0.0,0.0,0.0,0.0,0.0,0.0,0.0,0.0,0.0,0.0,0.0,0.0,0.0,0.0,0.0,0.0,0.0,0.0,0.0,0.0,0.0,0.0,0.0,0.0,0.0,0.0,0.0,0.0,0.0,0.0,0.0,0.0,0.0,0.0,0.0,0.0,0.0,0.0,0.0,0.0,0.0,0.0,0.0,0.0,0.0,0.0,0.0,0.0,0.0,0.0,0.0,0.0,0.0,0.0,0.0,0.0,0.0,0.0,0.0,0.0,0.0,0.0,0.0,0.0,0.0,0.0,0.0,0.0,0.0,0.0,0.0,0.0,0.0,0.0,0.0,0.0,0.0,0.0,0.0,0.0,0.0,0.0,0.0,0.0,0.0,0.0,0.0,0.0,0.0,0.0,0.0,0.0,0.0,0.0,0.0,0.0,0.0,0.0,0.0,0.0,0.0,0.0,0.0,0.0,0.0,0.0,0.0,0.0,7.8836,7.8844,7.9534,7.9883,7.9883,0.0,0.0,0.0,0.0,0.0,0.0,0.0,0.0,0.0,0.0,0.0,0.0,0.0,0.0,0.0,0.0,0.0,0.0,0.0,0.0,0.0,0.0,0.0,0.0,0.0,0.0,0.0,0.0,0.0,0.0,0.0,0.0,0.0,0.0,0.0,0.0,0.0,0.0,0.0,0.0,0.0,0.0,0.0,0.0,0.0,0.0,0.0,0.0,0.0,0.0,0.0,0.0,0.0,0.0,0.0,0.0,0.0,0.0,0.0,0.0,0.0,0.0,0.0,0.0,0.0,0.0,0.0,0.0,0.0,0.0,0.0,0.0,0.0,0.0,0.0,0.0,0.0,0.0,0.0,0.0,0.0,0.0,0.0,0.0,0.0,0.0,0.0,0.0,0.0,0.0,0.0,0.0,0.0,0.0,0.0,0.0,0.0,0.0,0.0,0.0,0.0,0.0,0.0,0.0,0.0,0.0,0.0,0.0,0.0,0.0,0.0,0.0,0.0,0.0,7.9248,0.0,0.0,0.0,0.0,0.0,0.0,0.0,0.0,0.0,0.0,0.0,0.0,0.0,0.0,0.0,0.0,0.0,0.0,0.0,0.0,0.0,0.0,0.0,0.0,0.0,0.0,0.0,0.0,0.0,0.0,0.0,0.0,0.0,0.0,0.0,0.0,0.0,0.0,0.0,0.0,0.0,0.0,0.0,0.0,0.0,0.0,0.0,0.0,0.0,0.0,0.0,0.0,0.0,0.0,0.0,0.0,0.0,0.0,0.0,0.0,0.0,0.0,0.0,0.0,0.0,0.0,0.0,0.0,0.0,0.0,0.0,0.0,0.0,0.0,0.0,0.0,0.0,0.0,0.0,0.0,0.0,0.0,0.0,0.0,0.0,0.0,0.0,0.0,0.0,0.0,0.0,0.0,0.0,0.0,0.0,0.0,0.0,0.0,0.0,0.0,0.0,0.0,0.0,0.0,0.0,0.0,0.0,0.0,0.0,0.0,0.0,0.0,0.0,0.0,0.0,0.0,0.0,0.0,0.0,0.0,0.0,0.0,0.0,0.0,0.0,0.0,0.0,0.0,0.0,0.0,0.0,0.0,0.0,0.0,0.0,0.0,0.0,0.0,0.0,0.0,0.0,0.0,0.0,0.0,0.0,0.0,0.0,0.0,0.0,0.0,0.0,0.0,0.0,0.0,0.0,0.0,0.0,0.0,0.0,0.0,0.0,0.0,0.0,0.0,0.0,0.0,0.0,0.0,0.0,0.0,0.0,0.0,0.0,0.0,0.0,0.0,0.0,0.0,0.0,0.0,0.0,0.0,0.0,0.0,0.0,0.0,0.0,0.0,0.0,0.0,0.0,0.0,0.0,0.0,0.0,0.0,0.0,0.0,0.0,0.0,0.0,0.0,0.0,0.0,0.0,0.0,0.0,0.0,0.0,0.0,0.0,0.0,0.0,0.0,0.0,0.0,0.0,0.0,0.0,0.0,0.0,0.0,0.0,0.0,0.0,0.0,0.0,0.0,0.0,0.0,0.0,0.0,0.0,0.0,0.0,0.0,0.0,0.0,0.0,0.0,0.0,0.0,0.0,0.0,0.0,0.0,0.0,0.0,0.0,0.0,0.0,0.0,0.0,0.0,0.0,0.0,0.0,0.0,0.0,0.0,0.0,0.0,0.0,0.0,0.0,0.0,0.0,0.0,0.0,0.0,0.0,0.0,0.0,0.0,0.0,0.0,0.0,0.0,0.0,0.0,0.0,0.0,0.0,0.0,0.0,0.0,0.0,0.0,0.0,0.0,0.0,0.0,0.0,0.0,0.0,0.0,0.0,0.0,0.0,0.0,0.0,0.0,0.0,0.0,0.0,0.0,0.0,0.0,0.0,0.0,0.0,0.0,0.0,0.0,0.0,0.0,0.0,0.0,0.0,0.0,0.0,0.0,0.0,0.0,0.0,0.0,0.0,0.0,0.0,0.0,0.0,0.0,0.0,0.0,0.0,0.0,0.0,0.0,0.0,0.0,0.0,0.0,0.0,0.0,0.0,0.0,0.0,0.0,0.0,0.0,0.0,0.0,0.0,0.0,0.0,0.0,0.0,0.0,0.0,0.0,0.0,0.0,0.0,0.0,0.0,0.0,0.0,0.0,0.0,0.0,0.0,0.0,0.0,0.0,0.0,0.0,0.0,0.0,0.0,0.0,0.0,0.0,0.0,0.0,0.0,0.0,0.0,0.0,0.0,0.0,0.0,0.0,0.0,0.0,0.0,0.0,0.0,0.0,0.0,0.0,0.0,0.0,0.0,0.0,0.0,0.0,0.0,0.0,0.0,0.0,0.0,0.0,0.0,0.0,0.0,0.0,0.0,0.0,0.0,0.0,0.0,0.0,0.0,0.0,0.0,0.0,0.0,0.0,0.0,0.0,0.0,0.0,0.0,0.0,0.0,0.0,0.0,0.0,0.0,0.0,0.0,0.0,0.0,0.0,0.0,0.0,0.0,0.0,0.0,0.0,0.0,0.0,0.0,0.0,0.0,0.0,0.0,0.0,0.0,0.0,0.0,0.0,0.0,0.0,0.0,0.0,0.0,0.0,0.0,0.0,0.0,0.0,0.0,0.0,0.0,0.0,0.0,0.0,0.0,0.0,0.0,0.0,0.0,0.0,0.0,0.0,0.0,0.0,0.0,0.0,0.0,0.0,0.0,0.0,0.0,0.0,0.0,0.0,0.0,0.0,0.0,0.0,0.0,0.0,0.0,0.0,0.0,0.0,0.0,0.0,0.0,0.0,0.0,0.0,0.0,0.0,0.0,0.0,0.0,0.0,0.0,0.0,0.0,0.0,0.0,0.0,0.0,0.0,0.0,0.0,0.0,0.0,0.0,0.0,0.0,0.0,0.0,0.0,0.0,0.0,0.0,0.0,0.0,0.0,0.0,0.0,0.0,0.0,0.0,0.0,0.0,0.0,0.0,0.0,0.0,0.0,0.0,0.0,0.0,0.0,0.0,0.0,0.0,0.0,0.0,0.0,0.0,0.0,0.0,0.0,0.0,0.0,0.0,0.0,0.0,0.0,0.0,0.0,0.0,0.0,0.0,0.0,0.0,0.0,0.0,0.0,0.0,0.0,0.0,0.0,0.0,0.0,0.0,0.0,0.0,0.0,0.0,0.0,0.0,0.0,0.0,0.0,0.0,0.0,0.0,0.0,0.0,0.0,0.0,0.0,0.0,0.0,0.0,0.0,0.0,0.0,0.0,0.0,0.0,0.0,0.0,0.0,0.0,0.0,0.0,0.0,0.0,0.0,0.0,0.0,0.0,0.0,0.0,0.0,0.0,0.0,0.0,0.0,0.0,0.0,0.0,0.0,0.0,0.0,0.0,0.0,0.0,0.0,0.0,0.0,0.0,0.0,0.0,0.0,0.0,0.0,0.0,0.0,0.0,0.0,0.0,0.0,0.0,0.0,0.0,0.0,0.0,0.0,0.0,0.0,0.0,0.0,0.0,0.0,0.0,0.0,0.0,0.0,0.0,0.0,0.0,0.0,0.0,0.0,0.0,0.0,0.0,0.0,0.0,0.0,0.0,0.0,0.0,0.0,0.0,0.0,0.0,0.0,0.0,0.0,0.0,0.0,0.0,0.0,0.0,0.0,0.0,0.0,0.0,0.0,0.0,0.0,0.0,0.0,0.0,0.0,0.0,0.0,0.0,0.0,0.0,0.0,0.0,0.0,0.0,0.0,0.0,0.0,0.0,0.0,0.0,0.0,0.0,0.0,0.0,0.0,0.0,0.0,0.0,0.0,0.0,0.0,0.0,0.0,0.0,0.0,0.0,0.0,0.0,0.0,0.0,0.0,0.0,0.0,0.0,0.0,0.0,0.0,0.0,0.0,0.0,0.0,0.0,0.0,0.0,0.0,0.0,0.0,0.0,0.0,0.0,0.0,0.0,0.0,0.0,0.0,0.0,0.0,0.0,0.0,0.0,0.0,0.0,0.0,0.0,0.0,0.0,0.0,0.0,0.0,0.0,0.0,0.0,0.0,0.0,0.0,0.0,0.0,0.0,0.0,0.0,0.0,0.0,0.0,0.0,0.0,0.0,0.0,0.0,0.0,0.0,0.0,0.0,0.0,0.0,0.0,0.0,0.0,0.0,0.0,0.0,0.0,0.0,0.0,0.0,0.0,0.0,0.0,0.0,0.0,0.0,0.0,0.0,0.0,0.0,0.0,0.0,0.0,0.0,0.0,0.0,0.0,0.0,0.0,0.0,0.0,0.0,0.0,0.0,0.0,0.0,0.0,0.0,0.0,0.0,0.0,0.0,0.0,0.0,0.0,0.0,0.0,0.0,0.0,0.0,0.0,0.0,0.0,0.0,0.0,0.0,0.0,0.0,0.0,0.0,0.0,0.0,0.0,0.0,0.0,0.0,0.0,0.0,0.0,0.0,0.0,0.0,0.0,0.0,0.0,0.0,0.0,0.0,0.0,0.0,0.0,0.0,0.0,0.0,0.0,0.0,0.0,0.0,0.0,0.0,0.0,0.0,0.0,0.0,0.0,0.0,0.0,0.0,0.0,0.0,0.0,0.0,0.0,0.0,0.0,0.0,0.0,0.0,0.0,0.0,0.0,0.0,0.0,0.0,0.0,0.0,0.0,0.0,0.0,0.0,0.0,0.0,0.0,0.0,0.0,0.0,0.0,0.0,0.0,0.0,0.0,0.0,0.0,0.0,0.0,0.0,0.0,0.0,0.0,0.0,0.0,0.0,0.0,0.0,0.0,0.0,0.0,0.0,0.0,0.0,0.0,0.0,0.0,0.0,0.0,0.0,0.0,0.0,0.0,0.0,0.0,0.0,0.0,0.0,0.0,0.0,0.0,0.0,0.0,0.0,0.0,0.0,0.0]}],[{"header":{"parameterUnit":"kt","parameterCategory":2,"dx":1,"dy":1,"la1":29.587661999999998,"la2":31.0,"lo1":-88.76705300000003,"lo2":-86.6583820000003,"nx":115,"ny":88,"refTime":"2022-09-24T06:00:00:Z","depth":0,"parameterNumber":2,"parameterNumberName":"V-component_of_WINDS"},"data":[11.9116,12.3038,12.4061,12.4649,12.5389,12.6608,12.679,12.6825,12.6857,12.9428,13.2544,13.32,13.3149,13.3709,13.3098,13.3251,13.2894,13.1608,13.2127,13.2485,13.064,12.929,12.7203,12.4784,12.4404,12.3125,12.1839,12.1839,12.1839,12.1839,12.1839,12.1839,12.1839,12.1839,12.1839,12.1786,12.1679,12.1307,12.12,12.0774,11.9851,11.8847,11.8149,11.7772,11.7811,11.788,11.8041,11.8041,11.874,11.9651,12.0547,12.0987,12.12,12.1307,12.1573,12.1679,12.1839,12.1839,12.1839,12.1839,12.1839,12.1839,12.1839,12.1839,12.1839,12.1839,12.1839,12.1839,12.1839,12.1839,12.1839,12.1839,12.1839,12.1839,12.1839,12.1839,12.1573,12.152,12.136,12.0987,12.06,12.0226,11.9958,11.9972,11.9115,11.831,11.8417,11.8149,11.7164,11.6639,11.6423,11.6477,11.6477,11.5812,11.5269,11.599,11.6207,11.6261,11.6098,11.5758,11.5758,11.6261,11.6098,11.5307,11.5128,11.5128,11.5128,11.5128,11.5128,11.5128,11.5128,11.5633,11.7341,11.7772,11.6515,11.7004,11.8284,12.2451,12.249,12.0048,12.3893,12.4311,12.1957,12.1659,12.4553,12.8343,12.5489,12.6159,12.6577,12.5834,12.7099,12.7526,12.6786,12.4983,12.4562,12.4615,12.4615,12.3982,12.3125,12.2807,12.2211,12.1839,12.1839,12.1839,12.1839,12.1839,12.1839,12.1839,12.1786,12.1839,12.1733,12.12,12.056,12.0226,11.9651,11.8579,11.7503,11.6624,11.5866,11.5579,11.5974,11.6585,11.7032,11.7556,11.831,11.8901,11.9544,11.9972,12.0347,12.0774,12.12,12.1307,12.136,12.152,12.1467,12.1679,12.1786,12.1839,12.1839,12.1839,12.1839,12.1839,12.1839,12.1839,12.1839,12.1839,12.1839,12.1839,12.1839,12.1786,12.1786,12.1307,12.088,12.0614,12.0279,11.9905,11.9584,11.9919,12.0827,12.0026,11.8793,11.831,11.8149,11.7664,11.6531,11.6098,11.6207,11.6028,11.5649,11.5199,11.5416,11.5525,11.5595,11.5703,11.5432,11.5362,11.5541,11.5525,11.5128,11.5128,11.5128,11.5128,11.5128,11.5128,11.5128,11.5128,11.5307,11.6894,11.6948,11.6191,11.5691,11.5997,11.8863,11.9252,11.8502,12.0418,12.0856,11.9984,12.0338,12.1857,12.335,12.2328,12.2454,12.3718,12.2913,12.3718,12.3929,12.2529,12.2052,12.1839,12.2529,12.1839,12.1839,12.2158,12.1839,12.1839,12.1839,12.1839,12.1839,12.1839,12.1413,12.088,12.0814,12.0507,11.9865,11.9865,11.9544,11.9169,11.9169,11.8149,11.6515,11.6137,11.547,11.5362,11.5144,11.5307,11.5758,11.5866,11.6423,11.7125,11.7449,11.8041,11.874,11.9101,11.9491,11.9865,12.0079,11.9919,12.0079,12.0347,12.0814,12.1134,12.1294,12.1679,12.1733,12.1679,12.1679,12.1733,12.1733,12.1839,12.1839,12.1839,12.1839,12.1679,12.1613,12.1453,12.0987,12.04,11.9865,11.9491,11.9062,11.874,11.9008,11.9772,11.929,11.8041,11.7449,11.7233,11.6515,11.5541,11.5882,11.6044,11.5649,11.5253,11.509,11.5128,11.5128,11.5128,11.5199,11.5144,11.5144,11.509,11.5128,11.5128,11.5128,11.5128,11.5128,11.5128,11.5128,11.5128,11.5128,11.5128,11.5199,11.547,11.5416,11.4475,11.4628,11.5702,11.6766,11.7665,11.7614,11.8189,11.893,11.9654,11.996,11.9988,12.0189,12.083,12.1898,12.1543,12.1797,12.2183,12.2052,12.1892,12.1839,12.1839,12.1839,12.1839,12.1839,12.1839,12.1839,12.1839,12.1839,12.1839,12.1733,12.1307,12.0333,12.0226,11.9744,11.8847,11.874,11.8471,11.7933,11.761,11.6569,11.5579,11.5199,11.5128,11.5128,11.5128,11.5144,11.5144,11.5144,11.5595,11.6083,11.6207,11.6747,11.7556,11.7826,11.8041,11.831,11.8686,11.874,11.8954,11.9369,11.9691,12.0026,12.0614,12.1147,12.1467,12.1467,12.1507,12.152,12.1626,12.1733,12.1839,12.1839,12.1786,12.152,12.1294,12.1027,12.072,11.9972,11.9223,11.874,11.8202,11.8041,11.8041,11.8041,11.7772,11.7449,11.6978,11.6585,11.6083,11.5579,11.5974,11.5649,11.5253,11.5144,11.509,11.5128,11.5128,11.5128,11.5128,11.5128,11.5128,11.5128,11.5128,11.5128,11.5128,11.5128,11.5128,11.5128,11.5128,11.5128,11.5128,11.5128,11.5128,11.5128,11.5128,11.3449,11.3551,11.4577,11.5668,11.6587,11.6718,11.7201,11.8057,11.8074,11.8177,11.8419,11.897,11.9815,12.0539,12.082,12.1195,12.1517,12.1799,12.1839,12.1839,12.1839,12.1839,12.1839,12.1839,12.1839,12.1839,12.1839,12.1839,12.1839,12.152,12.0987,12.0226,11.9905,11.9047,11.7987,11.7919,11.7487,11.6801,11.6191,11.5687,11.5199,11.5128,11.5128,11.5128,11.5128,11.5128,11.5128,11.509,11.509,11.5144,11.5253,11.5307,11.5866,11.6315,11.7287,11.7718,11.7865,11.7826,11.7972,11.8256,11.8471,11.8847,11.9544,11.9958,12.0079,12.0079,12.024,12.0347,12.0667,12.088,12.088,12.088,12.088,12.072,12.0507,12.0293,12.0026,11.9544,11.8793,11.8056,11.7556,11.7071,11.7071,11.7164,11.7002,11.7503,11.7341,11.7017,11.6515,11.585,11.5649,11.5253,11.509,11.509,11.5128,11.5128,11.5128,11.5128,11.5128,11.5128,11.5128,11.5128,11.5128,11.5128,11.5128,11.5128,11.5128,11.5128,11.5128,11.5128,11.5128,11.5128,11.5128,11.5128,11.5128,11.2264,11.2419,11.35,11.4167,11.468,11.5333,11.5748,11.6079,11.6118,11.6929,11.7976,11.8298,11.889,11.9694,12.0217,12.066,12.1115,12.1437,12.1678,12.1678,12.1839,12.1799,12.1839,12.1839,12.1839,12.1839,12.1839,12.1839,12.1626,12.12,12.024,11.9155,11.8256,11.7434,11.6786,11.6569,11.6191,11.5812,11.5378,11.5144,11.5128,11.5128,11.5128,11.5128,11.5128,11.5128,11.5128,11.5128,11.509,11.5128,11.5128,11.5128,11.5199,11.5416,11.6137,11.6299,11.6569,11.6569,11.6732,11.7017,11.7287,11.761,11.8364,11.8525,11.8525,11.8686,11.8954,11.9208,11.9544,11.9865,11.9812,11.9758,11.9812,11.9865,11.9705,11.9544,11.9276,11.8969,11.8325,11.7518,11.6963,11.6423,11.6152,11.6191,11.6353,11.6515,11.6461,11.6353,11.5974,11.5633,11.5307,11.5128,11.5128,11.5128,11.5128,11.5128,11.5128,11.5128,11.5128,11.5128,11.5128,11.5128,11.5128,11.5128,11.5128,11.5128,11.5128,11.5128,11.5128,11.5128,11.5128,11.5128,11.5128,11.5128,11.5128,11.1127,11.1283,11.2367,11.2831,11.2934,11.3654,11.4116,11.4424,11.4475,11.5355,11.7112,11.7072,11.7696,11.881,11.9493,11.9855,12.0257,12.07,12.1034,12.1195,12.1155,12.1396,12.1557,12.1718,12.1839,12.1839,12.1839,12.1839,12.1533,12.0707,11.9584,11.8095,11.7341,11.6353,11.5633,11.5128,11.5199,11.5144,11.5144,11.5128,11.5128,11.5128,11.5128,11.5128,11.5128,11.5128,11.5128,11.5128,11.5128,11.5128,11.5128,11.5128,11.5128,11.5128,11.5128,11.5128,11.5128,11.5128,11.5199,11.5758,11.6152,11.6369,11.6855,11.6747,11.6801,11.7125,11.7841,11.8149,11.8471,11.8901,11.9062,11.9008,11.9008,11.9008,11.8954,11.8847,11.8647,11.8325,11.7894,11.7233,11.6871,11.6315,11.5525,11.5525,11.5687,11.5307,11.5182,11.5253,11.5182,11.5199,11.5128,11.5128,11.5128,11.5128,11.5128,11.5128,11.5128,11.5128,11.5128,11.5128,11.5128,11.5128,11.5128,11.5128,11.5128,11.5128,11.5128,11.5128,11.5128,11.5128,11.5128,11.5128,11.5128,11.5128,11.5128,11.009,11.0194,11.1231,11.1645,11.1606,11.18,11.2367,11.3294,11.3346,11.4001,11.5015,11.5094,11.6044,11.769,11.8045,11.8516,11.916,11.9361,11.9574,11.9735,12.0298,12.0459,12.0833,12.1235,12.1276,12.1557,12.1544,12.117,12.1559,12.0375,11.8704,11.7171,11.6508,11.5866,11.5362,11.5128,11.5128,11.5128,11.5128,11.5128,11.5128,11.5128,11.5128,11.5128,11.5128,11.5128,11.5128,11.5128,11.5128,11.5128,11.5128,11.5128,11.5128,11.5128,11.5128,11.5128,11.5128,11.5128,11.509,11.509,11.5362,11.547,11.5525,11.5307,11.5525,11.6191,11.6639,11.6963,11.7233,11.7718,11.808,11.8026,11.7919,11.8026,11.8026,11.7933,11.7826,11.7679,11.7341,11.7017,11.6639,11.6098,11.5307,11.5128,11.5307,11.5128,11.5128,11.5128,11.5128,11.5128,11.5128,11.5128,11.5128,11.5128,11.5128,11.5128,11.5128,11.5128,11.5128,11.5128,11.5128,11.5128,11.5128,11.5128,11.5128,11.5128,11.5128,11.5128,11.5128,11.5128,11.5128,11.5128,11.5128,11.5128,11.5128,11.0038,11.009,11.0402,11.0557,11.0557,11.0557,11.0765,11.1231,11.1903,11.2831,11.3705,11.386,11.4672,11.5799,11.6637,11.7339,11.8419,11.885,11.9119,11.9252,11.9521,11.9405,11.9578,11.9936,12.0035,12.0097,12.0004,11.9704,11.9205,11.9168,11.797,11.6345,11.5668,11.5372,11.5253,11.5128,11.5128,11.5128,11.5128,11.5128,11.5128,11.5128,11.5128,11.5128,11.5128,11.5128,11.5128,11.5128,11.5128,11.5128,11.5128,11.5128,11.5128,11.5128,11.5128,11.5128,11.5128,11.5128,11.5128,11.5128,11.5128,11.5128,11.5128,11.5128,11.5199,11.547,11.5649,11.5758,11.592,11.6137,11.6175,11.6121,11.6121,11.6299,11.6353,11.6515,11.6477,11.6963,11.6709,11.6531,11.6152,11.5703,11.5144,11.509,11.5128,11.5128,11.5128,11.5128,11.5128,11.5128,11.5128,11.5128,11.5128,11.5128,11.5128,11.5128,11.5128,11.5128,11.5128,11.5128,11.5128,11.5128,11.5128,11.5128,11.5128,11.5128,11.5128,11.5128,11.5128,11.5128,11.5128,11.5128,11.5128,11.5128,11.5128,11.0038,11.0038,11.0038,11.0038,11.0038,11.0038,11.0038,11.0142,11.0765,11.1696,11.2574,11.2728,11.3346,11.4234,11.5068,11.5562,11.634,11.708,11.72,11.7096,11.7363,11.7598,11.7694,11.7736,11.8,11.8064,11.8012,11.7568,11.6991,11.6859,11.6191,11.562,11.5031,11.484,11.5014,11.5128,11.5128,11.5128,11.5128,11.5128,11.5128,11.5128,11.5128,11.5128,11.5128,11.5128,11.5128,11.5128,11.5128,11.5128,11.5128,11.5128,11.5128,11.5128,11.5128,11.5128,11.5128,11.5128,11.5128,11.5128,11.5128,11.5128,11.5128,11.5128,11.5128,11.5128,11.5128,11.5199,11.5362,11.5307,11.5128,11.509,11.5144,11.5307,11.5362,11.547,11.5595,11.599,11.6207,11.5974,11.5758,11.5307,11.509,11.5128,11.5128,11.5128,11.5128,11.5128,11.5128,11.5128,11.5128,11.5128,11.5128,11.5128,11.5128,11.5128,11.5128,11.5128,11.5128,11.5128,11.5128,11.5128,11.5128,11.5128,11.5128,11.5128,11.5128,11.5128,11.5128,11.5128,11.5128,11.5128,11.5128,11.5128,11.5128,11.0038,11.0038,11.0038,11.0038,11.0038,11.0038,11.0038,11.0038,11.0142,11.0713,11.1503,11.1554,11.2213,11.3076,11.3412,11.3787,11.4032,11.3941,11.4019,11.4319,11.4985,11.491,11.5145,11.5563,11.6021,11.5877,11.589,11.5799,11.551,11.5088,11.5036,11.4686,11.4206,11.4087,11.4976,11.509,11.5128,11.5128,11.5128,11.5128,11.5128,11.5128,11.5128,11.5128,11.5128,11.5128,11.5128,11.5128,11.5128,11.5128,11.5128,11.5128,11.5128,11.5128,11.5128,11.5128,11.5128,11.5128,11.5128,11.5128,11.5128,11.5128,11.5128,11.5128,11.5128,11.5128,11.5128,11.5128,11.5128,11.5128,11.5128,11.5128,11.5128,11.5144,11.5144,11.5199,11.5199,11.547,11.5525,11.547,11.5199,11.5128,11.5128,11.5128,11.5128,11.5128,11.5128,11.5128,11.5128,11.5128,11.5128,11.5128,11.5128,11.5128,11.5128,11.5128,11.5128,11.5128,11.5128,11.5128,11.5128,11.5128,11.5128,11.5128,11.5128,11.5128,11.5128,11.5128,11.5128,11.5128,11.5128,11.5128,11.5128,11.5128,11.5128,11.0038,11.0038,11.0038,11.0038,11.0038,11.0038,11.0038,11.0038,11.0038,11.0246,11.0506,11.0506,11.1076,11.1851,11.2161,11.2419,11.2986,11.314,11.3243,11.3309,11.3413,11.3646,11.3815,11.3947,11.4052,11.4037,11.4025,11.3584,11.3038,11.3241,11.3357,11.335,11.3123,11.3403,11.4087,11.4656,11.5128,11.5128,11.5128,11.5128,11.5128,11.5128,11.5128,11.5128,11.5128,11.5128,11.5128,11.5128,11.5128,11.5128,11.5128,11.5128,11.5128,11.5128,11.5128,11.5128,11.5128,11.5128,11.5128,11.5128,11.5128,11.5128,11.5128,11.5128,11.5128,11.5128,11.5128,11.5128,11.5128,11.5128,11.5128,11.5128,11.5128,11.5128,11.5128,11.5128,11.5128,11.5128,11.5128,11.5128,11.5128,11.5128,11.5128,11.5128,11.5128,11.5128,11.5128,11.5128,11.5128,11.5128,11.5128,11.5128,11.5128,11.5128,11.5128,11.5128,11.5128,11.5128,11.5128,11.5128,11.5128,11.5128,11.5128,11.5128,11.5128,11.5128,11.5128,11.5128,11.5128,11.5128,11.5128,11.5128,11.5128,11.5128,11.5128,11.0038,11.0038,11.0038,11.0038,11.0038,11.0038,11.0038,11.0038,11.0038,11.0038,11.009,11.0038,11.0402,11.0868,11.1076,11.1438,11.1955,11.2058,11.2006,11.2058,11.2058,11.2006,11.2058,11.2032,11.211,11.2032,11.1993,11.1541,11.1076,11.1456,11.1764,11.2049,11.2051,11.253,11.3251,11.4011,11.4656,11.4884,11.5128,11.5128,11.5128,11.5128,11.5128,11.5128,11.5128,11.5128,11.5036,11.5036,11.509,11.5128,11.5128,11.5128,11.5128,11.5128,11.5128,11.5128,11.5128,11.5128,11.5128,11.5128,11.5128,11.5128,11.509,11.5128,11.5128,11.5128,11.5128,11.5128,11.5128,11.5128,11.5128,11.5128,11.5128,11.5128,11.5128,11.5128,11.5128,11.5128,11.5128,11.5128,11.5128,11.5128,11.5128,11.5128,11.5128,11.5128,11.5128,11.5128,11.5128,11.5128,11.5128,11.5128,11.5128,11.5128,11.5128,11.5128,11.5128,11.5128,11.5128,11.5128,11.5128,11.5128,11.5128,11.5128,11.5128,11.5128,11.5128,11.5128,11.5128,11.5128,11.5128,11.5128,11.5128,11.5128,11.5128,11.0038,11.0038,11.0038,11.0038,11.0038,11.0038,11.0038,11.0038,11.0038,11.0038,11.0038,11.0038,11.0038,11.0142,11.0246,11.0246,11.0142,11.0038,11.035,11.0298,11.009,11.035,11.0454,11.0506,11.0298,11.0298,11.0506,11.0454,11.0166,11.0488,11.0674,11.1049,11.1353,11.1771,11.2416,11.3213,11.3973,11.4406,11.4558,11.4634,11.4634,11.4672,11.471,11.4748,11.4824,11.49,11.49,11.471,11.4596,11.4596,11.4558,11.4558,11.4694,11.4732,11.4884,11.4998,11.5128,11.4824,11.4558,11.452,11.4786,11.4862,11.4786,11.4596,11.4732,11.4884,11.5128,11.5128,11.5128,11.5128,11.5128,11.5128,11.5128,11.5128,11.5128,11.5128,11.5128,11.5128,11.5128,11.5128,11.5128,11.5128,11.5128,11.5128,11.5128,11.5128,11.5128,11.5128,11.5128,11.5128,11.5128,11.5128,11.5128,11.5128,11.5128,11.5128,11.5128,11.5128,11.5128,11.5128,11.5128,11.5128,11.5128,11.5128,11.5128,11.5128,11.5128,11.5128,11.5128,11.5128,11.5128,11.5128,11.5128,11.5128,11.5128,11.0038,11.0038,11.0038,11.0038,11.0038,11.0038,11.0038,11.0038,11.0038,11.0038,11.0038,11.0038,11.0038,11.0038,11.0038,11.0038,11.0038,11.0038,11.0038,11.0038,11.0038,11.0038,11.0038,11.0038,11.0038,11.0038,11.0038,11.0038,11.0038,11.0076,11.0152,11.029,11.0822,11.1277,11.1695,11.234,11.2872,11.3305,11.3343,11.3343,11.3305,11.3267,11.3267,11.3267,11.3191,11.3206,11.3153,11.3229,11.3267,11.3305,11.3343,11.3685,11.3973,11.4125,11.4314,11.4694,11.4824,11.4444,11.3723,11.3381,11.3191,11.3191,11.3191,11.3647,11.4011,11.4732,11.509,11.4862,11.4884,11.5014,11.5036,11.5036,11.5036,11.5128,11.5128,11.5128,11.5128,11.5128,11.5128,11.5128,11.5128,11.5128,11.5128,11.5128,11.5128,11.5128,11.5128,11.5128,11.5128,11.5128,11.5128,11.5128,11.5128,11.5128,11.5128,11.5128,11.5128,11.5128,11.5128,11.5128,11.5128,11.5128,11.5128,11.5128,11.5128,11.5128,11.5128,11.5128,11.5128,11.5128,11.5128,11.5128,11.5128,11.5128,11.5128,11.0038,11.0038,11.0038,11.0038,11.0038,11.0038,11.0038,11.0038,11.0038,11.0038,11.0038,11.0038,11.0038,11.0038,11.0038,11.0038,11.0038,11.0038,11.0038,11.0038,11.0038,11.0038,11.0038,11.0038,11.0038,11.0038,11.0038,11.0038,11.0038,11.0038,11.0038,11.0152,11.0442,11.0708,11.0784,11.1558,11.19,11.2089,11.2317,11.2507,11.2507,11.2545,11.2545,11.2545,11.2583,11.2583,11.2583,11.2507,11.2507,11.2507,11.2507,11.2811,11.3062,11.3251,11.3365,11.3989,11.3989,11.3533,11.2659,11.2583,11.2621,11.2545,11.2621,11.2697,11.31,11.3593,11.3913,11.3989,11.4239,11.4428,11.4466,11.4808,11.496,11.5128,11.5128,11.5128,11.5128,11.5128,11.5128,11.5128,11.5128,11.5128,11.5128,11.5128,11.5128,11.5128,11.5128,11.5128,11.5128,11.5128,11.5128,11.5128,11.5128,11.5128,11.5128,11.5128,11.5128,11.5128,11.5128,11.5128,11.5128,11.5128,11.5128,11.5128,11.5128,11.5128,11.5128,11.5128,11.5128,11.5128,11.5128,11.5128,11.5128,11.5128,11.5128,11.0038,11.0038,11.0038,11.0038,11.0038,11.0038,11.0038,11.0038,11.0038,11.0038,11.0038,11.0038,11.0038,11.0038,11.0038,11.0038,11.0038,11.0038,11.0038,11.0038,11.0038,11.0038,11.0038,11.0038,11.0038,11.0038,11.0038,11.0038,11.0038,11.0038,11.0038,11.0038,11.0114,11.0076,11.0266,11.0784,11.1049,11.1201,11.1786,11.2127,11.2089,11.2051,11.2051,11.2089,11.2051,11.2066,11.1938,11.19,11.1976,11.2051,11.2127,11.2241,11.2393,11.2393,11.2355,11.2279,11.2241,11.2241,11.2089,11.1938,11.1938,11.19,11.2014,11.2241,11.2393,11.2507,11.2583,11.2469,11.3138,11.3593,11.3745,11.4352,11.477,11.4846,11.4922,11.5128,11.5128,11.5128,11.5128,11.5128,11.5128,11.5128,11.5128,11.5128,11.5128,11.5128,11.5128,11.5128,11.5128,11.5128,11.5128,11.5128,11.5128,11.5128,11.5128,11.5128,11.5128,11.5128,11.5128,11.5128,11.5128,11.5128,11.5128,11.5128,11.5128,11.5128,11.5128,11.5128,11.5128,11.5128,11.5128,11.5128,11.5128,11.5128,11.5128,11.0038,11.0038,11.0038,11.0038,11.0038,11.0038,11.0038,11.0038,11.0038,11.0038,11.0038,11.0038,11.0038,11.0038,11.0038,11.0038,11.0038,11.0038,11.0038,11.0038,11.0038,11.0038,11.0038,11.0038,11.0038,11.0038,11.0038,11.0038,11.0038,11.0038,11.0038,11.0038,11.0038,11.0038,11.0038,11.0252,11.0176,11.0342,11.0494,11.0532,11.048,11.0532,11.0532,11.0532,11.0532,11.0646,11.076,11.076,11.076,11.0722,11.0722,11.0822,11.1353,11.1467,11.1163,11.0684,11.057,11.0532,11.0608,11.0646,11.0798,11.0836,11.0646,11.095,11.1201,11.1543,11.1733,11.2393,11.2682,11.272,11.2834,11.3517,11.3935,11.4109,11.458,11.5036,11.496,11.509,11.5052,11.4922,11.5128,11.5128,11.5128,11.5128,11.5128,11.5128,11.5128,11.5128,11.5128,11.5128,11.5128,11.5128,11.5036,11.5036,11.5128,11.5128,11.5128,11.5128,11.5128,11.5128,11.5128,11.5128,11.5128,11.5128,11.5128,11.5128,11.5128,11.5128,11.5128,11.5128,11.5128,11.5128,11.5128,11.5128,11.5128,11.0038,11.0038,11.0038,11.0038,11.0038,11.0038,11.0038,11.0038,11.0038,11.0038,11.0038,11.0038,11.0038,11.0038,11.0038,11.0038,11.0038,11.0038,11.0038,11.0038,11.0038,11.0038,11.0038,11.0038,11.0038,11.0038,11.0038,11.0038,11.0038,11.0038,11.0038,11.0038,11.0038,11.0038,11.0038,11.0038,11.0076,11.0076,11.0076,11.0076,11.0076,11.0076,11.0076,11.0076,11.0076,11.0038,11.0038,11.0038,11.0038,11.0038,11.0038,11.0214,11.048,11.0594,11.0442,11.019,11.0114,11.0076,11.0076,11.0038,11.0038,11.0038,11.0076,11.0266,11.048,11.067,11.0784,11.1239,11.1467,11.19,11.1938,11.2697,11.3062,11.3289,11.3897,11.4314,11.4504,11.4808,11.4694,11.4428,11.4618,11.4824,11.4938,11.49,11.5052,11.5128,11.5128,11.5128,11.5128,11.5128,11.5128,11.5036,11.5036,11.509,11.509,11.509,11.5128,11.5128,11.5128,11.5128,11.5128,11.5128,11.5128,11.5128,11.5128,11.5128,11.5128,11.5128,11.5128,11.5128,11.5128,11.5128,11.5128,11.5128,11.5128,10.9645,10.9797,10.9759,10.9924,11.0038,11.0038,11.0038,11.0038,11.0038,11.0038,11.0038,11.0038,11.0038,11.0038,11.0038,11.0038,11.0038,11.0038,11.0038,11.0038,11.0038,11.0038,11.0038,11.0038,11.0038,11.0038,11.0038,11.0038,11.0038,11.0038,11.0038,11.0038,11.0038,11.0038,11.0038,11.0038,11.0038,11.0038,11.0038,11.0038,11.0038,11.0038,11.0038,11.0038,11.0038,11.0038,11.0038,11.0038,11.0038,11.0038,11.0038,11.0076,11.0114,11.0114,11.0114,11.0038,11.0038,11.0038,11.0038,11.0038,11.0038,11.0038,11.0038,11.0076,11.0076,11.0114,11.0266,11.0366,11.0708,11.1011,11.1049,11.1771,11.2241,11.2507,11.2986,11.3555,11.3669,11.3935,11.4179,11.3707,11.4087,11.4444,11.4217,11.4103,11.4065,11.4027,11.4027,11.4065,11.4103,11.4255,11.4444,11.4634,11.477,11.49,11.49,11.4824,11.4938,11.4938,11.496,11.496,11.5052,11.509,11.5128,11.5128,11.5128,11.509,11.509,11.5128,11.5128,11.5128,11.5128,11.5128,11.5128,11.5128,11.5128,10.8227,10.8872,10.8872,10.9341,10.9948,11.0,10.9924,11.0,11.0038,10.9886,11.0038,11.0038,10.9962,11.0038,11.0038,11.0038,11.0038,11.0038,11.0038,11.0038,11.0038,11.0038,11.0038,11.0038,11.0038,11.0038,11.0038,11.0038,11.0038,11.0038,11.0038,11.0038,11.0038,11.0038,11.0038,11.0038,11.0038,11.0038,11.0038,11.0038,11.0038,11.0038,11.0038,11.0038,11.0038,11.0038,11.0038,11.0038,11.0038,11.0038,11.0038,11.0038,11.0038,11.0038,11.0038,10.9948,10.9848,10.9772,10.9734,10.9848,10.9924,11.0038,11.0,11.0,11.0038,11.0038,11.0038,11.0114,11.0138,11.0342,11.0304,11.0988,11.1315,11.1543,11.215,11.2659,11.2735,11.2773,11.2963,11.2773,11.3115,11.3419,11.3305,11.3343,11.3077,11.2887,11.2887,11.2887,11.2849,11.2925,11.3115,11.3305,11.3745,11.3935,11.4065,11.4049,11.4558,11.4672,11.4846,11.4884,11.4976,11.4786,11.4542,11.4786,11.4922,11.509,11.5052,11.509,11.5128,11.5128,11.5128,11.5128,11.5128,11.5128,11.5128,10.7746,10.8037,10.8037,10.8316,10.862,10.8696,10.8696,10.8696,10.8658,10.8923,10.9265,10.9289,10.9607,10.9986,11.0038,11.0038,11.0038,11.0038,11.0038,11.0038,11.0038,11.0038,11.0038,11.0038,11.0038,11.0038,11.0038,11.0038,11.0038,11.0038,11.0038,11.0038,11.0038,11.0038,11.0038,11.0038,11.0038,11.0038,11.0038,11.0038,11.0038,11.0038,11.0038,11.0038,11.0038,11.0038,11.0,11.0038,11.0038,10.9848,10.9203,10.8658,10.8658,10.8709,10.8658,10.8696,10.8658,10.8696,10.8696,10.8696,10.8885,10.9227,10.9251,10.9569,10.9924,11.0038,11.0038,11.0038,11.0038,11.0038,11.0076,11.0442,11.0518,11.0708,11.1315,11.1824,11.1862,11.1862,11.1862,11.1885,11.2203,11.2393,11.2507,11.2735,11.2621,11.2393,11.2355,11.2393,11.2279,11.2203,11.2279,11.2317,11.2758,11.31,11.3213,11.3479,11.3951,11.4141,11.4239,11.4314,11.4239,11.4049,11.3935,11.4087,11.4201,11.4466,11.4748,11.509,11.5128,11.49,11.477,11.5014,11.5014,11.4748,11.471,10.7101,10.7253,10.7253,10.7367,10.7481,10.7519,10.7519,10.7557,10.7557,10.7974,10.8303,10.8417,10.8809,10.9417,10.9303,10.9455,10.9355,10.9355,10.9607,10.9683,10.9924,10.9924,10.9469,10.9607,10.9683,10.9772,10.9873,11.0038,11.0038,11.0038,11.0038,11.0038,11.0038,11.0038,11.0038,11.0038,11.0038,11.0038,11.0038,11.0038,11.0038,11.0038,11.0038,11.0038,11.0038,10.9962,10.9797,10.9721,10.9645,10.9189,10.8316,10.7708,10.7708,10.7671,10.7671,10.7708,10.7633,10.7595,10.7557,10.7671,10.7822,10.8341,10.8455,10.8734,10.9469,10.9393,10.9507,10.9721,10.9721,10.981,11.0,11.0038,11.0114,11.0214,11.0632,11.0974,11.0974,11.0936,11.0936,11.1049,11.152,11.1976,11.1938,11.1824,11.1824,11.1938,11.1938,11.1976,11.1862,11.1748,11.1634,11.1444,11.1847,11.2188,11.2378,11.272,11.3039,11.3191,11.3327,11.3479,11.31,11.291,11.3229,11.3365,11.3479,11.3707,11.3951,11.4255,11.4217,11.4368,11.4314,11.4179,11.4065,11.4255,11.4179,10.5734,10.6468,10.6468,10.6835,10.7405,10.7481,10.7329,10.7443,10.7329,10.7443,10.7582,10.7633,10.7784,10.7746,10.8088,10.786,10.786,10.805,10.8265,10.8834,10.9341,10.9151,10.8202,10.8568,10.8796,10.891,10.9645,10.9848,10.9772,10.9924,11.0,10.9962,10.9948,11.0038,11.0038,11.0038,11.0038,11.0038,11.0038,11.0,10.9886,10.9835,10.981,10.9772,10.9734,10.9417,10.8948,10.8758,10.8455,10.7822,10.7633,10.7367,10.7354,10.7443,10.7405,10.7329,10.7253,10.7291,10.7405,10.7253,10.743,10.7595,10.7633,10.7708,10.7898,10.805,10.8278,10.8809,10.8796,10.9151,10.9659,10.9962,10.9962,11.0038,10.9948,11.01,11.0152,11.0152,11.01,11.0138,11.0228,11.0304,11.0304,11.0252,11.0328,11.0988,11.0874,11.0912,11.0912,11.095,11.0874,11.076,11.1064,11.1353,11.1619,11.1885,11.2089,11.2127,11.2264,11.2226,11.1885,11.1923,11.2317,11.2583,11.2606,11.2758,11.3153,11.3153,11.2963,11.3077,11.3457,11.3229,11.3054,11.3381,11.3533,10.5191,10.5544,10.5544,10.5722,10.5988,10.6026,10.6026,10.6026,10.6026,10.6342,10.6759,10.6848,10.7063,10.7481,10.7481,10.7481,10.7519,10.7519,10.762,10.8088,10.8392,10.8164,10.7746,10.7784,10.7961,10.8037,10.8354,10.8544,10.8658,10.9024,10.9176,10.9289,10.9759,11.0038,10.9962,11.0038,11.0038,11.0038,11.0038,10.9721,10.9251,10.9213,10.9075,10.862,10.8544,10.8468,10.8126,10.7961,10.7354,10.6329,10.6026,10.6026,10.6026,10.6026,10.6026,10.6026,10.6026,10.6026,10.6026,10.6026,10.6266,10.6683,10.6797,10.7025,10.7367,10.7519,10.7557,10.7974,10.7961,10.8151,10.8544,10.8999,10.9455,10.9721,10.9113,10.8772,10.9176,10.9265,10.9493,10.9886,11.0038,11.0038,11.0076,11.0076,11.0076,11.0,10.9886,10.9886,10.9924,11.0076,11.0152,11.0266,11.0494,11.0646,11.0874,11.095,11.1026,11.095,11.0936,11.086,11.0708,11.0708,11.1216,11.1634,11.1695,11.1885,11.2469,11.2735,11.2355,11.2203,11.2507,11.2583,11.2659,11.2887,11.2849,10.4318,10.4318,10.428,10.4318,10.4318,10.428,10.4394,10.4671,10.466,10.5203,10.5848,10.5962,10.6266,10.6747,10.6797,10.6823,10.6759,10.6759,10.6911,10.7088,10.6987,10.6873,10.6873,10.7063,10.7126,10.7253,10.7519,10.7519,10.7557,10.8075,10.8341,10.8379,10.8961,10.9265,10.9393,10.9227,10.9341,10.9341,10.9303,10.8961,10.8417,10.8379,10.8037,10.7557,10.7557,10.7557,10.7519,10.7329,10.6418,10.4812,10.4432,10.4318,10.4318,10.4318,10.433,10.428,10.4318,10.4318,10.4356,10.4508,10.4937,10.5594,10.5772,10.6228,10.6835,10.6835,10.6949,10.7177,10.7215,10.7291,10.7557,10.7999,10.862,10.9075,10.8354,10.786,10.8227,10.8379,10.8568,10.9189,10.9317,10.9241,10.9189,10.9189,10.9189,10.9189,10.9189,10.9151,10.9113,10.9189,10.9455,10.9607,10.9848,10.9924,10.9962,10.9962,10.9962,10.9835,10.9797,10.9835,10.991,10.9948,11.0328,11.067,11.0784,11.0898,11.152,11.1976,11.1862,11.152,11.1596,11.1482,11.171,11.1976,11.1862,10.2621,10.2535,10.2621,10.2686,10.2735,10.2724,10.3191,10.3771,10.3847,10.4254,10.4849,10.4925,10.5039,10.5077,10.5115,10.5153,10.5153,10.5191,10.5582,10.581,10.5506,10.5191,10.5355,10.5924,10.6228,10.6418,10.7025,10.7329,10.7215,10.7443,10.7595,10.7595,10.7746,10.7708,10.7898,10.7708,10.786,10.7898,10.7822,10.7784,10.7544,10.7595,10.7481,10.7316,10.7329,10.724,10.7139,10.6456,10.5442,10.4037,10.3153,10.2838,10.2649,10.2573,10.2773,10.2849,10.2659,10.2724,10.2849,10.3418,10.3923,10.4075,10.4595,10.5115,10.5077,10.5115,10.5343,10.6114,10.6278,10.662,10.7177,10.7519,10.7481,10.7633,10.7329,10.7291,10.7519,10.7557,10.7708,10.7784,10.7671,10.7708,10.7898,10.786,10.786,10.786,10.7898,10.7974,10.805,10.8468,10.8682,10.8999,10.9265,10.9303,10.9279,10.9279,10.9393,10.9265,10.9138,10.9265,10.9379,10.9493,10.9759,10.9886,11.0,11.0024,11.0252,11.0608,11.0684,11.076,11.0646,11.0266,11.0342,11.0608,11.0646,10.2469,10.2469,10.2469,10.2469,10.2469,10.2469,10.2659,10.2887,10.2925,10.3115,10.3294,10.337,10.337,10.337,10.337,10.3722,10.4227,10.4265,10.4102,10.3836,10.3494,10.376,10.4303,10.4607,10.4987,10.5419,10.576,10.5912,10.5912,10.6456,10.6759,10.6873,10.7253,10.7481,10.7519,10.7519,10.7519,10.7519,10.7481,10.7253,10.6873,10.681,10.6494,10.5988,10.5912,10.5874,10.5798,10.4595,10.357,10.3001,10.2659,10.2469,10.2469,10.2431,10.2469,10.2469,10.2469,10.2431,10.2507,10.2697,10.2925,10.2963,10.3229,10.337,10.337,10.3418,10.3798,10.4569,10.4759,10.5063,10.5848,10.638,10.619,10.5317,10.562,10.5874,10.595,10.638,10.6835,10.7253,10.7443,10.7519,10.7519,10.7519,10.7519,10.7519,10.7519,10.7519,10.7557,10.7746,10.786,10.8088,10.8468,10.8582,10.8557,10.862,10.8734,10.8582,10.8379,10.8468,10.8658,10.8772,10.8809,10.8885,10.9075,10.9151,10.9265,10.9455,10.9697,11.0,11.019,10.9886,10.9645,10.9772,10.9621,10.1624,10.1662,10.171,10.1624,10.1624,10.1672,10.1814,10.209,10.209,10.2241,10.2431,10.2469,10.2469,10.2469,10.2469,10.2773,10.3315,10.3136,10.2859,10.2583,10.2507,10.2811,10.3315,10.3391,10.3646,10.4128,10.4432,10.4633,10.4785,10.5506,10.5886,10.5962,10.6405,10.6721,10.6683,10.6721,10.6709,10.6709,10.6709,10.6494,10.5962,10.5886,10.5469,10.4698,10.4584,10.4432,10.4128,10.3115,10.2345,10.209,10.209,10.1938,10.171,10.1672,10.1624,10.1624,10.1624,10.1624,10.171,10.19,10.209,10.2128,10.2307,10.2431,10.2469,10.2507,10.2773,10.3277,10.3391,10.3581,10.4216,10.4975,10.4873,10.3543,10.3874,10.4166,10.4242,10.4709,10.5431,10.6152,10.6519,10.6671,10.6721,10.6683,10.6557,10.6557,10.6607,10.6607,10.6721,10.6835,10.7139,10.7215,10.7481,10.7708,10.7898,10.805,10.7898,10.7595,10.7443,10.7367,10.7671,10.786,10.7822,10.786,10.8164,10.8265,10.8379,10.853,10.8772,10.9037,10.9165,10.9151,10.9189,10.9075,10.8809,9.9916,9.9954,9.9954,9.9954,9.9954,10.0001,10.0457,10.0989,10.1188,10.1482,10.1938,10.2269,10.2155,10.2317,10.2117,10.2317,10.2128,10.1558,10.1558,10.2165,10.2231,10.2317,10.2469,10.2469,10.2583,10.2773,10.3429,10.3771,10.3809,10.4481,10.4849,10.4925,10.4963,10.4963,10.5001,10.5001,10.5001,10.4963,10.4963,10.4963,10.4914,10.4887,10.447,10.3885,10.3733,10.3315,10.2507,10.2317,10.1824,10.1302,10.1188,10.0799,10.0068,9.9954,9.9916,9.9954,9.9954,9.9954,10.003,10.0694,10.1036,10.1178,10.1862,10.209,10.209,10.2203,10.2279,10.2431,10.2469,10.2545,10.2735,10.3353,10.3429,10.2659,10.2659,10.2773,10.2697,10.2583,10.2887,10.3847,10.4595,10.4963,10.5001,10.4963,10.5077,10.5115,10.5153,10.5241,10.5419,10.5924,10.6316,10.6468,10.6645,10.6873,10.7177,10.7405,10.6911,10.657,10.638,10.638,10.6683,10.6835,10.6759,10.6747,10.7012,10.724,10.7354,10.7898,10.805,10.8126,10.786,10.7898,10.8088,10.824,10.8012,9.8331,9.8331,9.8331,9.8331,9.8331,9.8377,9.8529,9.8833,9.9318,9.9698,9.9992,10.0485,10.0713,10.0713,10.0713,10.0485,9.9963,9.9698,10.0001,10.0675,10.0713,10.1102,10.1558,10.1634,10.1938,10.2431,10.2773,10.2849,10.2925,10.3153,10.3256,10.3256,10.3266,10.3256,10.3256,10.3218,10.3256,10.3256,10.3266,10.3256,10.3256,10.3256,10.3104,10.2811,10.2366,10.1634,10.0751,10.0229,9.9812,9.9508,9.9014,9.8643,9.8369,9.8331,9.8331,9.8331,9.8331,9.8377,9.8369,9.8597,9.9023,9.9508,9.9812,10.0229,10.0723,10.0713,10.1064,10.153,10.1634,10.19,10.2241,10.2214,10.1986,10.1834,10.2128,10.2469,10.2469,10.2431,10.2545,10.2849,10.3191,10.3218,10.3218,10.3304,10.3608,10.4151,10.4189,10.4443,10.4849,10.5229,10.5431,10.5469,10.5646,10.5722,10.576,10.5431,10.4949,10.5279,10.5279,10.5431,10.557,10.5646,10.5646,10.5722,10.5874,10.6102,10.657,10.7139,10.7405,10.7557,10.7063,10.6532,10.6949,10.7253,10.7063,9.758,9.758,9.758,9.758,9.758,9.758,9.758,9.7656,9.8103,9.8331,9.8407,9.8816,9.9043,9.9043,9.9043,9.8778,9.8331,9.8331,9.8597,9.9052,9.909,9.9546,10.0267,10.0343,10.0761,10.1434,10.1558,10.1662,10.1976,10.2355,10.2469,10.2469,10.2469,10.2469,10.2469,10.2469,10.2469,10.2469,10.2469,10.2469,10.2507,10.2469,10.1976,10.1131,10.0609,9.9963,9.9128,9.8597,9.8331,9.8331,9.7837,9.758,9.758,9.758,9.758,9.758,9.758,9.758,9.758,9.758,9.7846,9.8255,9.8331,9.8597,9.893,9.9128,9.9318,9.9812,10.0115,10.0343,10.0571,10.0277,9.9935,10.0049,10.0609,10.1027,10.1178,10.1358,10.171,10.1938,10.2014,10.2165,10.2431,10.2469,10.2659,10.3153,10.3315,10.3494,10.395,10.4015,10.4015,10.4053,10.4053,10.4053,10.4053,10.357,10.338,10.3912,10.4178,10.4166,10.4053,10.4053,10.4216,10.4166,10.4053,10.4254,10.4405,10.4937,10.4975,10.5165,10.5153,10.4887,10.5696,10.4975,10.5165,9.7466,9.7428,9.7428,9.7306,9.7466,9.739,9.7428,9.7314,9.7466,9.7542,9.7458,9.7656,9.758,9.7466,9.7466,9.7504,9.7542,9.7496,9.7618,9.7732,9.7694,9.7989,9.8673,9.8711,9.9081,9.9764,9.984,10.022,10.115,10.19,10.2307,10.2317,10.2155,10.2231,10.2203,10.2165,10.2269,10.2117,10.2165,10.2231,10.2231,10.2117,10.0951,9.909,9.8749,9.8445,9.777,9.7534,9.7542,9.7542,9.739,9.739,9.7428,9.739,9.7352,9.7352,9.739,9.739,9.7352,9.7314,9.739,9.7496,9.7542,9.758,9.7808,9.7808,9.7884,9.7694,9.8369,9.8369,9.7875,9.7998,9.7922,9.7922,9.8407,9.8787,9.8825,9.9508,10.0144,10.0761,10.0951,10.1216,10.2014,10.2317,10.2193,10.2355,10.2431,10.2507,10.2659,10.2621,10.2659,10.2697,10.2659,10.2469,10.2383,10.2431,10.2431,10.2762,10.3039,10.2697,10.2507,10.2469,10.2545,10.2621,10.2811,10.2811,10.2583,10.2659,10.2963,10.3115,10.3218,10.318,10.3722,10.2849,10.3001,9.5764,9.5719,9.5719,9.5719,9.5764,9.5719,9.5764,9.584,9.6357,9.6577,9.6698,9.7314,9.6896,9.5878,9.5719,9.606,9.6585,9.6577,9.6964,9.7542,9.758,9.7694,9.7884,9.7922,9.7989,9.8225,9.8255,9.8673,9.947,10.022,10.0637,10.0599,10.0599,10.0599,10.0599,10.0599,10.0599,10.0599,10.0599,10.0599,10.0448,9.9508,9.8559,9.7998,9.7875,9.7846,9.758,9.6926,9.6577,9.6577,9.606,9.5764,9.5764,9.5764,9.5764,9.5764,9.5764,9.5719,9.5764,9.5764,9.5984,9.6547,9.6577,9.6888,9.7428,9.758,9.758,9.7504,9.7154,9.688,9.6691,9.7192,9.7542,9.758,9.7686,9.7922,9.7922,9.8074,9.8415,9.8605,9.9204,9.9546,9.9764,10.0258,10.0865,10.1406,10.1558,10.1748,10.2279,10.2393,10.2393,10.2469,10.2383,10.2165,10.171,10.1596,10.19,10.2165,10.2355,10.2317,10.2469,10.2421,10.2383,10.1927,10.2355,10.2393,10.2128,10.2279,10.2535,10.2507,10.2545,10.2535,10.2241,10.2393,10.2431,9.5042,9.5042,9.5042,9.5042,9.5042,9.5042,9.5042,9.5035,9.5567,9.5749,9.5787,9.6288,9.603,9.508,9.5042,9.5301,9.5749,9.5749,9.6015,9.6478,9.6554,9.6706,9.7002,9.7002,9.723,9.7542,9.758,9.7846,9.8255,9.8749,9.8976,9.8976,9.8976,9.8976,9.8976,9.893,9.893,9.893,9.8976,9.8976,9.8816,9.8027,9.7428,9.7078,9.7002,9.6888,9.6516,9.6015,9.5749,9.5711,9.5301,9.5042,9.5042,9.5042,9.5042,9.5042,9.5042,9.5042,9.5042,9.5042,9.5225,9.5673,9.5749,9.5939,9.6478,9.6554,9.6554,9.6478,9.6098,9.5749,9.5787,9.625,9.6554,9.6554,9.6812,9.704,9.704,9.7306,9.758,9.7618,9.7998,9.8255,9.8331,9.8673,9.9318,10.0039,10.0571,10.0789,10.1292,10.1396,10.1396,10.1358,10.114,10.0875,10.0799,10.0723,10.0913,10.1244,10.1396,10.1396,10.132,10.1396,10.1396,10.1358,10.1282,10.133,10.1444,10.1396,10.1396,10.132,10.1358,10.1396,10.1396,10.1444,10.1064,9.5042,9.5042,9.5042,9.5042,9.5042,9.5042,9.5042,9.508,9.508,9.5004,9.4769,9.4852,9.4852,9.4928,9.4845,9.4966,9.508,9.508,9.508,9.5118,9.5042,9.5453,9.6129,9.6167,9.6547,9.72,9.7276,9.7276,9.7466,9.7504,9.7496,9.758,9.758,9.7656,9.7618,9.7618,9.7618,9.758,9.7428,9.7352,9.7352,9.7352,9.6926,9.6122,9.6122,9.5787,9.5194,9.5042,9.508,9.5042,9.5004,9.4883,9.4883,9.4807,9.4814,9.4814,9.4776,9.4814,9.4814,9.4852,9.4814,9.4928,9.4883,9.4959,9.5156,9.4966,9.4807,9.4807,9.4883,9.4921,9.4928,9.508,9.5232,9.5301,9.5795,9.6122,9.6205,9.685,9.7352,9.7306,9.7352,9.742,9.7466,9.7656,9.7951,9.8711,9.928,9.9613,9.9689,9.9689,9.9689,9.9575,9.9157,9.909,9.9508,9.9689,9.9698,9.9651,9.9689,9.9689,9.9727,9.9727,9.9689,9.9727,9.9736,9.9774,9.9727,9.9689,9.9689,9.9736,9.9689,9.9689,9.9689,9.9727,9.9356,9.5042,9.5042,9.5042,9.5042,9.5042,9.5042,9.5042,9.5042,9.5042,9.432,9.3212,9.3098,9.344,9.3965,9.4047,9.4345,9.5004,9.5042,9.5042,9.5042,9.5042,9.5111,9.5301,9.5301,9.5415,9.5612,9.565,9.5946,9.6509,9.6547,9.6888,9.7504,9.758,9.758,9.758,9.758,9.758,9.7504,9.625,9.565,9.565,9.5605,9.5491,9.5339,9.5301,9.5225,9.508,9.5042,9.5042,9.5004,9.4389,9.4003,9.3965,9.344,9.3098,9.3098,9.3098,9.3098,9.3098,9.3098,9.3364,9.3927,9.3965,9.4313,9.4852,9.3857,9.3098,9.3174,9.3667,9.4003,9.4123,9.4579,9.5042,9.5042,9.527,9.5339,9.5301,9.5453,9.5605,9.5681,9.6167,9.6501,9.666,9.7162,9.758,9.7724,9.7951,9.8103,9.8103,9.8103,9.8103,9.8112,9.7998,9.7998,9.8027,9.8141,9.8225,9.8103,9.8141,9.8217,9.8217,9.8141,9.8141,9.8217,9.8225,9.8255,9.8187,9.8187,9.8263,9.8301,9.8293,9.8225,9.8301,9.8217,9.796,9.3895,9.3895,9.394,9.394,9.3857,9.3857,9.394,9.394,9.394,9.3364,9.2566,9.2528,9.275,9.313,9.3168,9.344,9.3857,9.3895,9.413,9.4427,9.4427,9.4655,9.5042,9.5042,9.5042,9.5042,9.5042,9.5263,9.5635,9.5673,9.5946,9.6364,9.6402,9.6402,9.6402,9.6448,9.6402,9.6448,9.5536,9.5042,9.5042,9.5042,9.5042,9.5042,9.5042,9.5042,9.5042,9.47,9.4427,9.4465,9.3629,9.3168,9.313,9.237,9.1915,9.1915,9.1616,9.1388,9.1388,9.1388,9.1687,9.2484,9.2516,9.2636,9.2756,9.2219,9.1915,9.1953,9.2674,9.313,9.3168,9.3591,9.3895,9.3895,9.4237,9.4427,9.4465,9.4731,9.5042,9.5035,9.5453,9.5673,9.5673,9.6136,9.6516,9.6888,9.6964,9.7154,9.7542,9.6972,9.6516,9.6888,9.6964,9.7116,9.7542,9.758,9.758,9.758,9.758,9.758,9.758,9.758,9.7618,9.758,9.758,9.758,9.7618,9.758,9.758,9.758,9.758,9.758,9.758,9.758,9.7276,9.2376,9.2376,9.249,9.2528,9.2528,9.2528,9.2528,9.249,9.2034,9.1806,9.1801,9.1801,9.1882,9.2034,9.2148,9.2224,9.2332,9.249,9.2864,9.3509,9.3547,9.3971,9.47,9.47,9.4731,9.4845,9.4807,9.4928,9.5042,9.508,9.5042,9.508,9.5042,9.508,9.5042,9.5042,9.5042,9.5042,9.5042,9.5042,9.5042,9.5042,9.5004,9.489,9.4807,9.4852,9.4693,9.3971,9.3547,9.3509,9.268,9.2186,9.2148,9.1193,9.0538,9.0467,8.9822,8.9409,8.9253,8.9295,8.9599,9.024,9.0543,9.024,8.9367,9.0012,9.0467,9.0505,9.1345,9.2034,9.2034,9.211,9.2219,9.2332,9.294,9.3433,9.3547,9.4161,9.4624,9.4541,9.4769,9.4845,9.4928,9.5042,9.5415,9.5901,9.6091,9.6319,9.6706,9.5992,9.5453,9.5901,9.6046,9.6395,9.6858,9.72,9.7048,9.7238,9.7124,9.701,9.7056,9.701,9.701,9.7162,9.7048,9.7086,9.7086,9.72,9.7086,9.701,9.701,9.7048,9.701,9.7048,9.6706,9.1416,9.1454,9.2262,9.2528,9.2528,9.2528,9.2528,9.2338,0.0,0.0,0.0,8.838,8.8802,8.9527,9.013,9.0814,9.1454,9.2181,9.2604,9.2756,9.2756,9.2832,9.2984,9.2984,9.3326,9.3927,9.3927,9.4313,9.4997,9.5042,9.5042,9.5042,9.5042,9.5042,9.5042,9.5042,9.5042,9.5042,9.5042,9.5042,9.5042,9.5042,9.4693,9.3927,9.3927,9.3667,9.2984,9.2832,9.2712,9.2674,9.1312,9.0434,9.0396,8.8949,8.7811,8.7245,8.7014,8.6638,8.5916,8.584,8.5916,8.603,8.7318,8.7469,8.5914,8.6676,8.7169,8.7169,8.8536,8.9489,8.9489,9.0016,9.07,9.134,9.153,9.1909,9.2642,9.2908,9.2984,9.306,9.3553,9.3927,9.3965,9.4541,9.5156,9.527,9.5263,9.5339,9.5377,9.5232,9.4959,9.5225,9.5339,9.5339,9.5536,9.5567,9.5498,9.565,9.5567,9.5498,9.5498,9.5536,9.5498,9.5605,9.5536,9.5574,9.5536,9.565,9.5498,9.5536,9.5491,9.5536,9.5536,9.5491,9.5384,8.9291,8.9329,8.9746,8.9979,0.0,8.9979,8.9751,8.9299,8.7625,8.709,8.7469,8.7507,8.7697,8.8156,8.8532,8.8911,8.9287,8.9746,9.0249,9.0667,9.1085,9.1502,9.1877,9.2338,9.2712,9.3092,9.3136,9.3364,9.3788,9.3788,9.3971,9.4389,9.4345,9.4579,9.5042,9.5042,9.4624,9.3781,9.3826,9.3743,9.3743,9.3743,9.3553,9.3092,9.3092,0.0,0.0,0.0,0.0,0.0,0.0,0.0,0.0,0.0,0.0,8.5043,8.4587,8.417,8.3713,8.3675,8.3637,8.3675,8.4851,8.4701,8.2613,8.4096,8.5045,8.5083,8.6147,8.6906,8.6865,8.7625,8.827,8.8684,8.9485,9.013,9.0629,9.1009,9.1383,9.1801,9.2137,9.2592,9.3016,9.3516,9.3895,9.4275,9.4389,9.4541,9.4845,9.4313,9.3933,9.4313,9.4693,9.5042,9.5042,9.5042,9.508,9.5042,9.5042,9.5042,9.5042,9.5042,9.5042,9.5042,9.5042,9.5042,9.5042,9.5042,9.5042,9.5042,9.5042,9.4852,9.3895,9.3781,9.3743,8.6786,8.6786,8.6938,8.6976,8.6976,8.6673,8.6141,8.5575,8.5575,8.5954,8.6521,8.6521,8.6521,8.6559,8.671,8.6748,8.6786,8.6938,8.7473,8.8388,8.8991,8.9708,9.0505,9.1231,9.1649,9.1844,9.1844,9.1996,9.2256,9.2256,9.2674,9.3471,9.3471,9.3857,9.4548,0.0,0.0,0.0,9.2452,9.2528,9.2528,9.2528,9.2408,9.2256,9.2105,0.0,9.1806,9.0363,8.9443,8.9257,8.7811,0.0,0.0,0.0,0.0,0.0,0.0,0.0,0.0,0.0,0.0,0.0,8.136,8.1171,7.9576,8.1209,8.2304,8.217,8.3547,8.4234,8.3634,8.4754,8.565,8.584,8.7058,8.7932,8.8122,8.8802,8.9561,9.0164,9.0543,9.108,9.1839,9.2181,9.256,9.332,9.3471,9.3819,9.4472,9.3402,9.2832,9.3357,9.4009,9.4548,9.4586,9.4503,9.4434,9.4541,9.4541,9.4548,9.4465,9.4465,9.4548,9.4465,9.4541,9.4503,9.4548,9.4541,9.4427,9.4586,9.4548,9.4123,9.2832,9.2566,9.2528,8.4248,8.4323,8.5005,8.5231,8.5157,8.3713,8.303,8.2916,8.2877,8.2992,8.3068,8.3068,8.3028,8.3143,8.3866,8.4248,8.4323,8.4967,8.5764,8.66,8.6751,8.7166,8.7963,8.8039,8.8536,8.9299,8.9299,9.0021,9.1302,9.134,9.1801,9.2642,9.268,9.2756,9.2794,9.1388,9.0847,9.134,9.2105,9.2528,9.2528,9.2528,9.2143,9.134,9.07,8.9979,8.9299,8.8346,8.7469,8.6789,8.584,8.4891,8.4134,8.2614,8.136,0.0,7.969,0.0,0.0,0.0,0.0,0.0,0.0,0.0,0.0,7.6956,7.6912,7.6215,8.0149,8.1589,7.875,8.1153,8.3259,8.398,8.4286,8.4703,8.5385,8.622,8.6827,8.69,8.8194,8.9451,9.0168,9.0923,9.1644,9.2408,9.2566,9.2484,9.2756,9.249,9.2338,9.2642,9.2794,9.2794,9.2832,9.2832,9.2832,9.2832,9.2908,9.287,9.287,9.2908,9.287,9.2908,9.2984,9.2908,9.287,9.2908,9.2908,9.2946,9.2832,9.2604,9.2338,9.2224,9.2528,8.3031,8.303,8.3371,8.2499,8.0791,8.007,7.9956,8.0373,8.0373,8.0639,8.1133,8.1133,8.1133,8.1209,8.2006,8.2347,8.2423,8.3221,8.3751,8.4168,8.4703,8.5309,8.6065,8.66,8.7283,8.8039,8.8039,8.846,8.9101,8.9097,8.9599,9.0439,9.0477,8.9755,8.8346,8.808,8.8118,8.8456,8.9253,8.9751,8.9751,9.0206,9.0097,8.9139,8.876,8.8232,8.7435,8.6562,8.5726,8.4931,8.4056,8.2954,8.1779,8.0525,7.9272,0.0,0.0,0.0,0.0,0.0,0.0,0.0,0.0,0.0,0.0,0.0,7.3775,7.2851,7.6987,7.8407,7.5251,7.6646,7.8074,7.8958,7.7794,7.8767,8.3093,8.2314,8.2322,8.4655,8.5957,8.6979,8.7852,8.8608,8.9594,9.0928,9.032,8.9713,8.9751,8.967,8.9903,9.0401,9.0477,9.0629,9.1085,9.1117,9.1161,9.1155,9.1497,9.1763,9.1801,9.2181,9.2528,9.2528,9.2528,9.2528,9.2528,9.2528,9.2528,9.23,9.1085,8.9865,8.9713,8.9751,8.9945,8.1246,8.1246,8.0867,7.9234,7.6956,7.6918,7.7298,7.7831,7.7867,7.8209,7.8854,7.8892,7.8854,7.8892,7.9538,7.988,8.007,8.0639,8.1284,8.1891,8.2575,8.345,8.436,8.5081,8.5726,8.6255,8.6293,8.6369,8.6559,8.6597,8.7014,8.7856,8.7324,8.6147,8.4474,8.5043,8.5499,8.5688,8.6486,8.6976,8.7204,8.8042,8.8194,8.7466,8.709,8.6597,8.5992,8.4929,8.3904,8.2957,8.2234,8.1018,7.9272,7.8133,0.0,0.0,0.0,0.0,0.0,0.0,0.0,0.0,0.0,6.6023,6.4266,0.0,6.931,0.0,7.3039,7.4726,7.2449,7.2837,0.0,0.0,7.2034,7.2766,7.8321,7.7825,7.8217,8.1395,8.3279,8.4701,8.5575,8.6369,8.728,8.8308,8.7545,8.6938,8.7166,8.7356,8.7697,8.8384,8.8536,8.8726,8.9295,8.9367,8.9367,8.9409,8.9898,9.0278,9.0278,9.0847,9.135,9.1307,9.1307,9.1307,9.1274,9.1307,9.1155,9.0667,8.8688,8.6862,8.6862,8.709,8.7435,7.7943,7.783,7.6271,7.5473,7.5207,7.5245,7.5245,7.5321,7.5321,7.5359,7.5471,7.5435,7.5435,7.5435,7.5511,0.0,7.6615,7.6616,7.7981,8.0259,8.0335,8.1209,8.2612,8.2688,8.2764,8.284,8.2763,8.3219,8.4058,8.4058,8.4436,8.5157,8.2993,8.212,8.2612,8.2688,8.3105,8.3982,8.4739,8.5575,8.641,8.7166,8.7583,8.7469,8.5952,8.5119,8.5005,8.3524,8.193,8.0487,8.0297,7.912,7.6653,0.0,0.0,0.0,0.0,0.0,0.0,0.0,0.0,0.0,0.0,0.0,0.0,0.0,0.0,6.2748,6.7352,0.0,7.0223,7.0583,0.0,0.0,0.0,6.7868,6.9062,7.2879,7.5525,7.5866,0.0,0.0,8.3868,8.4663,8.4929,8.4361,8.4817,8.5461,8.6296,8.6941,8.7507,8.7394,8.7545,8.7583,8.7469,8.7549,8.7507,8.7507,8.7694,8.7773,8.7732,8.7887,8.7887,8.7963,8.7887,8.7925,8.7887,8.7925,8.7394,8.5992,8.5385,8.5157,8.5195,8.5726,8.6258,7.4527,7.2211,7.1527,7.0991,7.0426,7.0459,7.0426,7.0459,7.0426,7.0459,7.0459,7.0459,7.0459,7.0497,7.1029,0.0,0.0,0.0,7.5248,7.6273,7.726,7.8361,7.9462,7.9994,8.0487,8.0981,8.0981,8.1171,8.1551,8.1551,8.0677,7.8969,0.0,0.0,7.9462,8.0487,8.1398,8.2272,8.3602,8.4625,8.5461,8.5762,8.5726,8.5233,8.4016,8.3221,8.2727,8.1626,8.0259,7.8589,7.76,7.6081,0.0,0.0,0.0,0.0,0.0,0.0,0.0,0.0,0.0,0.0,0.0,5.6307,5.3029,0.0,0.0,0.0,5.9682,6.1491,6.0577,6.131,0.0,0.0,0.0,0.0,0.0,0.0,0.0,6.8989,7.4363,7.8209,7.8541,7.8871,7.9683,8.1357,8.2613,8.3561,8.3902,0.0,8.4434,8.4434,8.4434,8.4434,8.4434,8.4434,8.4434,8.4434,8.4891,8.5233,8.5271,8.561,8.5914,8.5914,8.5952,8.5954,8.5952,8.5079,8.4168,8.3561,8.3409,8.3409,8.3409,8.3713,8.413,7.0422,0.0,0.0,0.0,0.0,6.6744,6.6712,6.6674,6.6712,6.6744,6.6744,6.6744,0.0,0.0,0.0,0.0,0.0,0.0,7.1779,7.267,7.3881,7.5134,7.6463,7.6996,7.7754,7.8626,7.8626,7.8663,7.8588,7.7493,7.5795,7.3677,0.0,0.0,0.0,0.0,7.9765,8.0601,8.2234,8.345,8.4208,8.4206,8.4056,8.3792,8.2689,8.1701,8.0981,7.9917,7.8474,7.6539,7.4866,0.0,0.0,0.0,0.0,0.0,0.0,0.0,0.0,0.0,0.0,0.0,0.0,0.0,0.0,0.0,0.0,0.0,0.0,0.0,5.3172,5.4034,5.5083,0.0,0.0,0.0,0.0,0.0,0.0,0.0,0.0,0.0,7.0599,7.2445,7.4645,0.0,0.0,8.1506,8.0723,8.0634,8.0628,8.0628,7.9571,0.0,7.9138,8.0,8.0706,8.0979,8.2366,8.3373,8.3373,8.3828,8.4246,8.4246,8.4206,8.3904,8.303,8.1158,7.9751,7.9714,7.9638,7.9638,7.9791,8.0709,8.1625,0.0,0.0,0.0,0.0,0.0,0.0,0.0,0.0,6.4928,6.4853,0.0,6.4784,0.0,0.0,0.0,0.0,0.0,6.5849,0.0,0.0,7.0132,7.1493,7.366,7.3773,7.4264,7.5131,7.5169,7.5169,7.4906,7.1261,0.0,0.0,0.0,0.0,0.0,0.0,7.8019,7.8855,8.0487,8.1701,8.2498,8.2536,8.2878,8.3678,8.2196,8.0905,8.0107,7.8475,7.6425,7.3884,7.2249,0.0,0.0,0.0,0.0,0.0,0.0,0.0,0.0,0.0,0.0,0.0,0.0,0.0,0.0,0.0,0.0,0.0,0.0,0.0,0.0,5.0863,0.0,0.0,0.0,0.0,0.0,0.0,0.0,0.0,0.0,0.0,5.9671,6.5806,7.0243,6.8682,0.0,0.0,0.0,0.0,7.638,7.638,7.2876,7.0618,7.1459,7.4272,7.6653,7.7482,0.0,0.0,8.2305,8.2382,8.2304,8.2459,8.2344,8.1512,7.8289,7.5169,7.3274,7.3237,7.3089,7.3018,7.3388,7.5758,7.8484,0.0,0.0,0.0,0.0,0.0,0.0,0.0,0.0,0.0,5.8467,0.0,5.8467,0.0,0.0,0.0,0.0,0.0,0.0,0.0,0.0,6.6254,6.7427,6.8342,6.9401,7.0077,0.0,7.0494,6.9375,0.0,0.0,0.0,0.0,0.0,0.0,0.0,0.0,7.5971,7.7943,7.9652,8.0867,8.1588,8.2196,8.2309,8.212,8.155,8.0335,7.8475,7.6235,7.3846,0.0,0.0,0.0,0.0,0.0,0.0,0.0,0.0,0.0,0.0,0.0,0.0,0.0,0.0,0.0,0.0,0.0,0.0,0.0,0.0,0.0,0.0,0.0,4.518,0.0,0.0,0.0,0.0,0.0,0.0,0.0,0.0,0.0,5.4667,5.8706,6.2561,6.4369,6.8289,7.0895,7.079,0.0,0.0,0.0,0.0,0.0,0.0,0.0,7.1242,7.1206,7.1684,7.1866,7.1613,7.3647,7.5508,7.6112,0.0,0.0,6.9968,6.7785,6.7083,6.7083,6.6753,6.6621,6.6982,6.7909,6.8884,0.0,0.0,0.0,0.0,0.0,0.0,0.0,0.0,0.0,5.3704,5.3716,0.0,0.0,0.0,0.0,0.0,0.0,0.0,0.0,0.0,0.0,0.0,6.3989,6.5277,0.0,0.0,0.0,0.0,0.0,0.0,0.0,0.0,0.0,0.0,0.0,0.0,7.3381,7.5875,7.8135,7.9765,8.0829,8.136,8.1512,8.1246,8.0715,7.9538,7.7602,0.0,0.0,0.0,0.0,0.0,0.0,0.0,0.0,0.0,0.0,0.0,0.0,0.0,0.0,0.0,0.0,0.0,0.0,0.0,0.0,0.0,0.0,0.0,0.0,0.0,4.0934,0.0,0.0,0.0,0.0,0.0,0.0,0.0,0.0,0.0,0.0,0.0,5.6318,5.8555,6.2383,6.5029,6.5163,6.5693,6.625,0.0,0.0,0.0,0.0,0.0,0.0,0.0,0.0,0.0,0.0,0.0,0.0,0.0,0.0,6.9654,6.3667,6.1669,6.0977,6.0977,0.0,0.0,0.0,0.0,0.0,0.0,0.0,0.0,0.0,0.0,0.0,0.0,0.0,0.0,0.0,5.1001,0.0,0.0,5.1026,0.0,0.0,0.0,0.0,0.0,0.0,0.0,0.0,0.0,0.0,0.0,0.0,0.0,0.0,0.0,0.0,0.0,0.0,0.0,0.0,0.0,0.0,7.0208,7.2717,7.5948,7.8361,7.9993,8.0069,8.0449,8.1095,7.9576,7.8286,7.7448,0.0,0.0,0.0,0.0,0.0,0.0,0.0,0.0,0.0,0.0,0.0,0.0,0.0,0.0,0.0,0.0,0.0,0.0,0.0,0.0,0.0,0.0,0.0,0.0,0.0,0.0,3.9345,4.0301,4.1245,0.0,0.0,0.0,0.0,0.0,0.0,0.0,0.0,0.0,0.0,5.7667,6.1774,5.9957,5.9959,6.0212,6.027,5.678,5.44,5.5419,5.759,5.9453,0.0,0.0,0.0,0.0,0.0,0.0,0.0,0.0,0.0,0.0,0.0,0.0,0.0,0.0,0.0,0.0,0.0,0.0,0.0,0.0,0.0,0.0,0.0,0.0,0.0,0.0,0.0,0.0,0.0,0.0,0.0,0.0,0.0,0.0,0.0,0.0,0.0,0.0,0.0,0.0,0.0,0.0,0.0,0.0,0.0,0.0,0.0,0.0,0.0,0.0,0.0,0.0,0.0,0.0,6.8889,7.1856,7.5003,7.7412,7.912,7.9765,7.988,7.95,7.8438,7.692,0.0,0.0,0.0,0.0,0.0,0.0,0.0,0.0,0.0,0.0,0.0,0.0,0.0,0.0,0.0,0.0,0.0,0.0,0.0,0.0,0.0,0.0,0.0,0.0,0.0,0.0,0.0,0.0,3.9033,3.9474,4.0046,0.0,0.0,0.0,0.0,0.0,0.0,0.0,0.0,0.0,0.0,5.2811,5.3506,5.4858,5.5919,5.6404,5.5669,5.5014,5.4925,5.5099,5.5012,5.4439,0.0,0.0,0.0,0.0,0.0,0.0,0.0,0.0,0.0,0.0,0.0,0.0,0.0,0.0,0.0,0.0,0.0,0.0,0.0,0.0,0.0,0.0,0.0,0.0,0.0,0.0,0.0,0.0,0.0,0.0,0.0,0.0,0.0,0.0,0.0,0.0,0.0,0.0,0.0,0.0,0.0,0.0,0.0,0.0,0.0,0.0,0.0,0.0,0.0,0.0,0.0,0.0,0.0,6.6926,7.0168,7.354,7.6273,7.8247,7.9158,7.9273,7.8741,7.764,7.5748,0.0,0.0,0.0,0.0,0.0,0.0,0.0,0.0,0.0,0.0,0.0,0.0,0.0,0.0,0.0,0.0,0.0,0.0,0.0,0.0,0.0,0.0,0.0,0.0,0.0,0.0,0.0,0.0,3.755,3.8018,3.8588,0.0,0.0,0.0,0.0,0.0,0.0,0.0,0.0,0.0,0.0,4.7639,4.9215,5.0987,0.0,0.0,5.341,5.3437,5.2913,5.2123,5.1332,5.0382,4.9127,0.0,0.0,0.0,0.0,0.0,0.0,0.0,0.0,0.0,0.0,0.0,0.0,0.0,0.0,0.0,0.0,0.0,0.0,0.0,0.0,0.0,0.0,0.0,0.0,0.0,0.0,0.0,0.0,0.0,0.0,0.0,0.0,0.0,0.0,0.0,0.0,0.0,0.0,0.0,0.0,0.0,0.0,0.0,0.0,0.0,0.0,0.0,0.0,0.0,0.0,0.0,0.0,6.4717,6.7857,7.164,7.4871,7.741,7.821,7.8628,7.8552,7.688,7.4436,0.0,0.0,0.0,0.0,0.0,0.0,0.0,0.0,0.0,0.0,0.0,0.0,0.0,0.0,0.0,0.0,0.0,0.0,0.0,0.0,0.0,0.0,0.0,0.0,0.0,0.0,0.0,0.0,0.0,0.0,0.0,0.0,0.0,0.0,0.0,0.0,0.0,0.0,0.0,0.0,0.0,4.5543,4.672,4.8304,4.9577,0.0,0.0,5.0108,4.9447,4.8964,4.8356,4.7723,0.0,0.0,0.0,0.0,0.0,0.0,0.0,0.0,0.0,0.0,0.0,0.0,0.0,0.0,0.0,0.0,0.0,0.0,0.0,0.0,0.0,0.0,0.0,0.0,0.0,0.0,0.0,0.0,0.0,0.0,0.0,0.0,0.0,0.0,0.0,0.0,0.0,0.0,0.0,0.0,0.0,0.0,0.0,0.0,0.0,0.0,0.0,0.0,0.0,0.0,0.0,0.0,0.0,0.0,6.6171,7.0512,7.4033,7.6463,7.7412,7.7489,7.6806,7.4602,0.0,0.0,0.0,0.0,0.0,0.0,0.0,0.0,0.0,0.0,0.0,0.0,0.0,0.0,0.0,0.0,0.0,0.0,0.0,0.0,0.0,0.0,0.0,0.0,0.0,0.0,0.0,3.3163,0.0,0.0,0.0,0.0,0.0,0.0,0.0,0.0,0.0,0.0,0.0,0.0,0.0,0.0,4.3844,4.4995,4.6261,4.7275,0.0,0.0,4.8138,4.7213,4.6963,4.6521,0.0,0.0,0.0,0.0,0.0,0.0,0.0,0.0,0.0,0.0,0.0,0.0,0.0,0.0,0.0,0.0,0.0,0.0,0.0,0.0,0.0,0.0,0.0,0.0,0.0,0.0,0.0,0.0,0.0,0.0,0.0,0.0,0.0,0.0,0.0,0.0,0.0,0.0,0.0,0.0,0.0,0.0,0.0,0.0,0.0,0.0,0.0,0.0,0.0,0.0,0.0,0.0,0.0,0.0,6.0895,6.3145,6.5814,6.9007,7.257,7.2164,7.2714,7.4628,7.1621,6.8624,0.0,0.0,0.0,0.0,0.0,0.0,0.0,0.0,0.0,0.0,0.0,0.0,0.0,0.0,0.0,0.0,0.0,0.0,0.0,0.0,0.0,0.0,0.0,0.0,0.0,0.0,0.0,0.0,0.0,0.0,0.0,0.0,0.0,0.0,0.0,0.0,0.0,0.0,0.0,0.0,0.0,0.0,4.3584,4.452,0.0,0.0,0.0,4.6097,4.5214,0.0,0.0,0.0,0.0,0.0,0.0,0.0,0.0,0.0,0.0,0.0,0.0,0.0,0.0,0.0,0.0,0.0,0.0,0.0,0.0,0.0,0.0,0.0,0.0,0.0,0.0,0.0,0.0,0.0,0.0,0.0,0.0,0.0,0.0,0.0,0.0,0.0,0.0,0.0,0.0,0.0,0.0,0.0,0.0,0.0,0.0,0.0,0.0,0.0,0.0,0.0,0.0,0.0,0.0,0.0,0.0,0.0,5.9173,5.9692,6.2378,6.7024,6.5205,6.6526,7.177,6.8197,6.5412,0.0,0.0,0.0,0.0,0.0,0.0,0.0,0.0,0.0,0.0,0.0,0.0,0.0,0.0,0.0,0.0,0.0,0.0,0.0,0.0,0.0,0.0,0.0,0.0,0.0,0.0,0.0,0.0,0.0,0.0,0.0,0.0,0.0,0.0,0.0,0.0,0.0,0.0,0.0,0.0,0.0,4.1287,4.2415,4.3032,4.3578,0.0,0.0,4.4111,4.3474,4.3337,0.0,0.0,0.0,0.0,0.0,0.0,0.0,0.0,0.0,0.0,0.0,0.0,0.0,0.0,0.0,0.0,0.0,0.0,0.0,0.0,0.0,0.0,0.0,0.0,0.0,0.0,0.0,0.0,0.0,0.0,0.0,0.0,0.0,0.0,0.0,0.0,0.0,0.0,0.0,0.0,0.0,0.0,0.0,0.0,0.0,0.0,0.0,0.0,0.0,0.0,0.0,0.0,0.0,0.0,0.0,0.0,5.4391,5.658,5.9409,6.2573,6.2293,6.385,6.766,6.4773,6.2008,0.0,0.0,0.0,0.0,0.0,0.0,0.0,0.0,0.0,0.0,0.0,0.0,0.0,0.0,0.0,0.0,0.0,0.0,0.0,0.0,0.0,0.0,0.0,0.0,0.0,0.0,0.0,0.0,0.0,0.0,0.0,0.0,0.0,0.0,0.0,0.0,0.0,0.0,0.0,0.0,0.0,4.0617,4.1235,4.1895,0.0,0.0,0.0,0.0,4.2395,4.2291,0.0,0.0,0.0,0.0,0.0,0.0,0.0,0.0,0.0,0.0,0.0,0.0,0.0,0.0,0.0,0.0,0.0,0.0,0.0,0.0,0.0,0.0,0.0,0.0,0.0,0.0,0.0,0.0,0.0,0.0,0.0,0.0,0.0,0.0,0.0,0.0,0.0,0.0,0.0,0.0,0.0,0.0,0.0,0.0,0.0,0.0,0.0,0.0,0.0,0.0,0.0,0.0,0.0,0.0,0.0,0.0,5.0239,5.1329,5.3621,5.7045,5.6235,5.7749,6.1856,5.9999,5.8289,0.0,0.0,0.0,0.0,0.0,0.0,0.0,0.0,0.0,0.0,0.0,0.0,0.0,0.0,0.0,0.0,0.0,0.0,0.0,0.0,0.0,0.0,0.0,0.0,0.0,0.0,0.0,0.0,0.0,0.0,0.0,0.0,0.0,0.0,0.0,0.0,0.0,0.0,0.0,0.0,3.862,3.9296,4.0068,0.0,0.0,0.0,0.0,0.0,0.0,4.07,4.0461,0.0,0.0,0.0,0.0,0.0,0.0,0.0,0.0,0.0,0.0,0.0,0.0,0.0,0.0,0.0,0.0,0.0,0.0,0.0,0.0,0.0,0.0,0.0,0.0,0.0,0.0,0.0,0.0,0.0,0.0,0.0,0.0,0.0,0.0,0.0,0.0,0.0,0.0,0.0,0.0,0.0,0.0,0.0,0.0,0.0,0.0,0.0,0.0,0.0,0.0,0.0,0.0,0.0,0.0,0.0,4.6352,4.6017,4.7628,5.1322,4.9873,5.1319,5.5942,5.5254,5.4506,5.3956,0.0,0.0,0.0,0.0,0.0,0.0,0.0,0.0,0.0,0.0,0.0,0.0,0.0,0.0,0.0,0.0,0.0,0.0,0.0,0.0,0.0,0.0,0.0,0.0,0.0,0.0,0.0,0.0,0.0,0.0,0.0,0.0,0.0,0.0,0.0,0.0,0.0,0.0,0.0,3.7375,3.7919,0.0,0.0,0.0,0.0,0.0,0.0,0.0,0.0,3.9156,0.0,0.0,0.0,0.0,0.0,0.0,0.0,0.0,0.0,0.0,0.0,0.0,0.0,0.0,0.0,0.0,0.0,0.0,0.0,0.0,0.0,0.0,0.0,0.0,0.0,0.0,0.0,0.0,0.0,0.0,0.0,0.0,0.0,0.0,0.0,0.0,0.0,0.0,0.0,0.0,0.0,0.0,0.0,0.0,0.0,0.0,0.0,0.0,0.0,0.0,0.0,0.0,0.0,0.0,0.0,0.0,4.3304,4.4772,4.6365,4.6626,4.8539,5.2213,5.2686,5.0933,4.6774,0.0,0.0,0.0,0.0,0.0,0.0,0.0,0.0,0.0,0.0,0.0,0.0,0.0,0.0,0.0,0.0,0.0,0.0,0.0,0.0,0.0,0.0,0.0,0.0,0.0,0.0,0.0,0.0,0.0,0.0,0.0,0.0,0.0,0.0,0.0,0.0,0.0,0.0,3.4592,3.5994,0.0,0.0,0.0,0.0,0.0,0.0,0.0,0.0,3.9286,0.0,0.0,0.0,0.0,0.0,0.0,0.0,0.0,0.0,0.0,0.0,0.0,0.0,0.0,0.0,0.0,0.0,0.0,0.0,0.0,0.0,0.0,0.0,0.0,0.0,0.0,0.0,0.0,0.0,0.0,0.0,0.0,0.0,0.0,0.0,0.0,0.0,0.0,0.0,0.0,0.0,0.0,0.0,0.0,0.0,0.0,0.0,0.0,0.0,0.0,0.0,0.0,0.0,0.0,0.0,0.0,0.0,0.0,4.3708,4.4858,4.5448,4.6399,4.7735,4.8492,4.6956,0.0,0.0,0.0,0.0,0.0,0.0,0.0,0.0,0.0,0.0,0.0,0.0,0.0,0.0,0.0,0.0,0.0,0.0,0.0,0.0,0.0,0.0,0.0,0.0,0.0,0.0,0.0,0.0,0.0,0.0,0.0,0.0,0.0,0.0,0.0,0.0,0.0,0.0,0.0,0.0,0.0,0.0,0.0,0.0,0.0,0.0,0.0,0.0,0.0,0.0,0.0,0.0,0.0,0.0,0.0,0.0,0.0,0.0,0.0,0.0,0.0,0.0,0.0,0.0,0.0,0.0,0.0,0.0,0.0,0.0,0.0,0.0,0.0,0.0,0.0,0.0,0.0,0.0,0.0,0.0,0.0,0.0,0.0,0.0,0.0,0.0,0.0,0.0,0.0,0.0,0.0,0.0,0.0,0.0,0.0,0.0,0.0,0.0,0.0,0.0,0.0,0.0,0.0,0.0,0.0,0.0,0.0,0.0,4.3071,4.3955,4.4461,4.4565,4.4137,4.4486,4.3362,0.0,0.0,0.0,0.0,0.0,0.0,0.0,0.0,0.0,0.0,0.0,0.0,0.0,0.0,0.0,0.0,0.0,0.0,0.0,0.0,0.0,0.0,0.0,0.0,0.0,0.0,0.0,0.0,0.0,0.0,0.0,0.0,0.0,0.0,0.0,0.0,0.0,0.0,0.0,0.0,0.0,0.0,0.0,0.0,0.0,0.0,0.0,0.0,3.6047,0.0,0.0,0.0,0.0,0.0,0.0,0.0,0.0,0.0,0.0,0.0,0.0,0.0,0.0,0.0,0.0,0.0,0.0,0.0,0.0,0.0,0.0,0.0,0.0,0.0,0.0,0.0,0.0,0.0,0.0,0.0,0.0,0.0,0.0,0.0,0.0,0.0,0.0,0.0,0.0,0.0,0.0,0.0,0.0,0.0,0.0,0.0,0.0,0.0,0.0,0.0,0.0,0.0,0.0,0.0,0.0,0.0,0.0,0.0,4.214,4.2212,4.2785,4.298,4.2909,4.201,4.0625,0.0,0.0,0.0,0.0,0.0,0.0,0.0,0.0,0.0,0.0,0.0,0.0,0.0,0.0,0.0,0.0,0.0,0.0,0.0,0.0,0.0,0.0,0.0,0.0,0.0,0.0,0.0,0.0,0.0,0.0,0.0,0.0,0.0,0.0,0.0,0.0,0.0,0.0,0.0,0.0,0.0,0.0,0.0,0.0,0.0,0.0,0.0,0.0,0.0,0.0,0.0,0.0,0.0,0.0,0.0,0.0,0.0,0.0,0.0,0.0,0.0,0.0,0.0,0.0,0.0,0.0,0.0,0.0,0.0,0.0,0.0,0.0,0.0,0.0,0.0,0.0,0.0,0.0,0.0,0.0,0.0,0.0,0.0,0.0,0.0,0.0,0.0,0.0,0.0,0.0,0.0,0.0,0.0,0.0,0.0,0.0,0.0,0.0,0.0,0.0,0.0,0.0,0.0,0.0,0.0,0.0,0.0,0.0,4.1089,4.1427,4.1973,4.1817,4.0773,3.9994,3.9088,0.0,0.0,0.0,0.0,0.0,0.0,0.0,0.0,0.0,0.0,0.0,0.0,0.0,0.0,0.0,0.0,0.0,0.0,0.0,0.0,0.0,0.0,0.0,0.0,0.0,0.0,0.0,0.0,0.0,0.0,0.0,0.0,0.0,0.0,0.0,0.0,0.0,0.0,0.0,0.0,0.0,0.0,0.0,0.0,0.0,0.0,0.0,0.0,0.0,0.0,0.0,0.0,0.0,0.0,0.0,0.0,0.0,0.0,0.0,0.0,0.0,0.0,0.0,0.0,0.0,0.0,0.0,0.0,0.0,0.0,0.0,0.0,0.0,0.0,0.0,0.0,0.0,0.0,0.0,0.0,0.0,0.0,0.0,0.0,0.0,0.0,0.0,0.0,0.0,0.0,0.0,0.0,0.0,0.0,0.0,0.0,0.0,0.0,0.0,0.0,0.0,0.0,0.0,0.0,0.0,0.0,0.0,0.0,0.0,4.0535,4.0751,4.0284,3.9133,3.8381,3.7708,0.0,0.0,0.0,0.0,0.0,0.0,0.0,0.0,0.0,0.0,0.0,0.0,0.0,0.0,0.0,0.0,0.0,0.0,0.0,0.0,0.0,0.0,0.0,0.0,0.0,0.0,0.0,0.0,0.0,0.0,0.0,0.0,0.0,0.0,0.0,0.0,0.0,0.0,0.0,0.0,0.0,0.0,0.0,0.0,0.0,0.0,0.0,0.0,0.0,0.0,0.0,0.0,0.0,0.0,0.0,0.0,0.0,0.0,0.0,0.0,0.0,0.0,0.0,0.0,0.0,0.0,0.0,0.0,0.0,0.0,0.0,0.0,0.0,0.0,0.0,0.0,0.0,0.0,0.0,0.0,0.0,0.0,0.0,0.0,0.0,0.0,0.0,0.0,0.0,0.0,0.0,0.0,0.0,0.0,0.0,0.0,0.0,0.0,0.0,0.0,0.0,0.0,0.0,0.0,0.0,0.0,0.0,0.0,0.0,3.9363,3.8438,3.8127,3.8516,3.7421,3.6304,0.0,0.0,0.0,0.0,0.0,0.0,0.0,0.0,0.0,0.0,0.0,0.0,0.0,0.0,0.0,0.0,0.0,0.0,0.0,0.0,0.0,0.0,0.0,0.0,0.0,0.0,0.0,0.0,0.0,0.0,0.0,0.0,0.0,0.0,0.0,0.0,0.0,0.0,0.0,0.0,0.0,0.0,0.0,0.0,0.0,0.0,0.0,0.0,0.0,0.0,0.0,0.0,0.0,0.0,0.0,0.0,0.0,0.0,0.0,0.0,0.0,0.0,0.0,0.0,0.0,0.0,0.0,0.0,0.0,0.0,0.0,0.0,0.0,0.0,0.0,0.0,0.0,0.0,0.0,0.0,0.0,0.0,0.0,0.0,0.0,0.0,0.0,0.0,0.0,0.0,0.0,0.0,0.0,0.0,0.0,0.0,0.0,0.0,0.0,0.0,0.0,0.0,0.0,0.0,0.0,0.0,0.0,0.0,0.0,3.6587,3.6618,3.6697,3.6877,3.5761,3.4982,3.4462,0.0,0.0,0.0,0.0,0.0,0.0,0.0,0.0,0.0,0.0,0.0,0.0,0.0,0.0,0.0,0.0,0.0,0.0,0.0,0.0,0.0,0.0,0.0,0.0,0.0,0.0,0.0,0.0,0.0,0.0,0.0,0.0,0.0,0.0,0.0,0.0,0.0,0.0,0.0,0.0,0.0,0.0,0.0,0.0,0.0,0.0,0.0,0.0,0.0,0.0,0.0,0.0,0.0,0.0,0.0,0.0,0.0,0.0,0.0,0.0,0.0,0.0,0.0,0.0,0.0,0.0,0.0,0.0,0.0,0.0,0.0,0.0,0.0,0.0,0.0,0.0,0.0,0.0,0.0,0.0,0.0,0.0,0.0,0.0,0.0,0.0,0.0,0.0,0.0,0.0,0.0,0.0,0.0,0.0,0.0,0.0,0.0,0.0,0.0,0.0,0.0,0.0,0.0,0.0,0.0,0.0,0.0,0.0,3.4514,3.4748,3.4982,3.5138,3.4176,3.3578,0.0,0.0,0.0,0.0,0.0,0.0,0.0,0.0,0.0,0.0,0.0,0.0,0.0,0.0,0.0,0.0,0.0,0.0,0.0,0.0,0.0,0.0,0.0,0.0,0.0,0.0,0.0,0.0,0.0,0.0,0.0,0.0,0.0,0.0,0.0,0.0,0.0,0.0,0.0,0.0,0.0,0.0,0.0,0.0,0.0,0.0,0.0,0.0,0.0,0.0,0.0,0.0,0.0,0.0,0.0,0.0,0.0,0.0,0.0,0.0,0.0,0.0,0.0,0.0,0.0,0.0,0.0,0.0,0.0,0.0,0.0,0.0,0.0,0.0,0.0,0.0,0.0,0.0,0.0,0.0,0.0,0.0,0.0,0.0,0.0,0.0,0.0,0.0,0.0,0.0,0.0,0.0,0.0,0.0,0.0,0.0,0.0,0.0,0.0,0.0,0.0,0.0,0.0,0.0,0.0,0.0,0.0,0.0,3.2327,3.3367,3.2851,3.2904,3.3394,3.2851,3.2255,0.0,0.0,0.0,0.0,0.0,0.0,0.0,0.0,0.0,0.0,0.0,0.0,0.0,0.0,0.0,0.0,0.0,0.0,0.0,0.0,0.0,0.0,0.0,0.0,0.0,0.0,0.0,0.0,0.0,0.0,0.0,0.0,0.0,0.0,0.0,0.0,0.0,0.0,0.0,0.0,0.0,0.0,0.0,0.0,0.0,0.0,0.0,0.0,0.0,0.0,0.0,0.0,0.0,0.0,0.0,0.0,0.0,0.0,0.0,0.0,0.0,0.0,0.0,0.0,0.0,0.0,0.0,0.0,0.0,0.0,0.0,0.0,0.0,0.0,0.0,0.0,0.0,0.0,0.0,0.0,0.0,0.0,0.0,0.0,0.0,0.0,0.0,0.0,0.0,0.0,0.0,0.0,0.0,0.0,0.0,0.0,0.0,0.0,0.0,0.0,0.0,0.0,0.0,0.0,0.0,0.0,0.0,0.0,0.0,3.2223,0.0,3.2566,0.0,3.2251,3.1837,0.0,0.0,0.0,0.0,0.0,0.0,0.0,0.0,0.0,0.0,0.0,0.0,0.0,0.0,0.0,0.0,0.0,0.0,0.0,0.0,0.0,0.0,0.0,0.0,0.0,0.0,0.0,0.0,0.0,0.0,0.0,0.0,0.0,0.0,0.0,0.0,0.0,0.0,0.0,0.0,0.0,0.0,0.0,0.0,0.0,0.0,0.0,0.0,0.0,0.0,0.0,0.0,0.0,0.0,0.0,0.0,0.0,0.0,0.0,0.0,0.0,0.0,0.0,0.0,0.0,0.0,0.0,0.0,0.0,0.0,0.0,0.0,0.0,0.0,0.0,0.0,0.0,0.0,0.0,0.0,0.0,0.0,0.0,0.0,0.0,0.0,0.0,0.0,0.0,0.0,0.0,0.0,0.0,0.0,0.0,0.0,0.0,0.0,0.0,0.0,0.0,0.0,0.0,0.0,0.0,0.0,0.0,0.0,0.0,3.1294,3.166,3.1841,3.1792,3.1502,3.1343,0.0,0.0,0.0,0.0,0.0,0.0,0.0,0.0,0.0,0.0,0.0,0.0,0.0,0.0,0.0,0.0,0.0,0.0,0.0,0.0,0.0,0.0,0.0,0.0,0.0,0.0,0.0,0.0,0.0,0.0,0.0,0.0,0.0,0.0,0.0,0.0,0.0,0.0,0.0,0.0,0.0,0.0,0.0,0.0,0.0,0.0,0.0,0.0,0.0,0.0,0.0,0.0,0.0,0.0,0.0,0.0,0.0,0.0,0.0,0.0,0.0,0.0,0.0,0.0,0.0,0.0,0.0,0.0,0.0,0.0,0.0,0.0,0.0,0.0,0.0,0.0,0.0,0.0,0.0,0.0,0.0,0.0,0.0,0.0,0.0,0.0,0.0,0.0,0.0,0.0,0.0,0.0,0.0,0.0,0.0,0.0,0.0,0.0,0.0,0.0,0.0,0.0,0.0,0.0,0.0,0.0,0.0,0.0,0.0,0.0,3.0705,3.0728,3.0777,3.0728,3.0728,0.0,0.0,0.0,0.0,0.0,0.0,0.0,0.0,0.0,0.0,0.0,0.0,0.0,0.0,0.0,0.0,0.0,0.0,0.0,0.0,0.0,0.0,0.0,0.0,0.0,0.0,0.0,0.0,0.0,0.0,0.0,0.0,0.0,0.0,0.0,0.0,0.0,0.0,0.0,0.0,0.0,0.0,0.0,0.0,0.0,0.0,0.0,0.0,0.0,0.0,0.0,0.0,0.0,0.0,0.0,0.0,0.0,0.0,0.0,0.0,0.0,0.0,0.0,0.0,0.0,0.0,0.0,0.0,0.0,0.0,0.0,0.0,0.0,0.0,0.0,0.0,0.0,0.0,0.0,0.0,0.0,0.0,0.0,0.0,0.0,0.0,0.0,0.0,0.0,0.0,0.0,0.0,0.0,0.0,0.0,0.0,0.0,0.0,0.0,0.0,0.0,0.0,0.0,0.0,0.0,0.0,0.0,0.0,0.0,0.0,3.0544,0.0,3.0751,3.0751,3.0751,3.0751,0.0,0.0,0.0,0.0,0.0,0.0,0.0,0.0,0.0,0.0,0.0,0.0,0.0,0.0,0.0,0.0,0.0,0.0,0.0,0.0,0.0,0.0,0.0,0.0,0.0,0.0,0.0,0.0,0.0,0.0,0.0,0.0,0.0,0.0,0.0,0.0,0.0,0.0,0.0,0.0,0.0,0.0,0.0,0.0,0.0,0.0,0.0,0.0,0.0,0.0,0.0,0.0,0.0,0.0,0.0,0.0,0.0,0.0,0.0,0.0,0.0,0.0,0.0,0.0,0.0,0.0,0.0,0.0,0.0,0.0,0.0,0.0,0.0,0.0,0.0,0.0,0.0,0.0,0.0,0.0,0.0,0.0,0.0,0.0,0.0,0.0,0.0,0.0,0.0,0.0,0.0,0.0,0.0,0.0,0.0,0.0,0.0,0.0,0.0,0.0,0.0,0.0,0.0,0.0,0.0,0.0,0.0,0.0,0.0,0.0,3.0414,3.0365,3.0599,3.0751,0.0,0.0,0.0,0.0,0.0,0.0,0.0,0.0,0.0,0.0,0.0,0.0,0.0,0.0,0.0,0.0,0.0,0.0,0.0,0.0,0.0,0.0,0.0,0.0,0.0,0.0,0.0,0.0,0.0,0.0,0.0,0.0,0.0,0.0,0.0,0.0,0.0,0.0,0.0,0.0,0.0,0.0,0.0,0.0,0.0,0.0,0.0,0.0,0.0,0.0,0.0,0.0,0.0,0.0,0.0,0.0,0.0,0.0,0.0,0.0,0.0,0.0,0.0,0.0,0.0,0.0,0.0,0.0,0.0,0.0,0.0,0.0,0.0,0.0,0.0,0.0,0.0,0.0,0.0,0.0,0.0,0.0,0.0,0.0,0.0,0.0,0.0,0.0,0.0,0.0,0.0,0.0,0.0,0.0,0.0,0.0,0.0,0.0,0.0,0.0,0.0,0.0,0.0,0.0,0.0,0.0,0.0,0.0,0.0,0.0,0.0,2.9862,2.9866,3.031,0.0,3.0573,0.0,0.0,0.0,0.0,0.0,0.0,0.0,0.0,0.0,0.0,0.0,0.0,0.0,0.0,0.0,0.0,0.0,0.0,0.0,0.0,0.0,0.0,0.0,0.0,0.0,0.0,0.0,0.0,0.0,0.0,0.0,0.0,0.0,0.0,0.0,0.0,0.0,0.0,0.0,0.0,0.0,0.0,0.0,0.0,0.0,0.0,0.0,0.0,0.0,0.0,0.0,0.0,0.0,0.0,0.0,0.0,0.0,0.0,0.0,0.0,0.0,0.0,0.0,0.0,0.0,0.0,0.0,0.0,0.0,0.0,0.0,0.0,0.0,0.0,0.0,0.0,0.0,0.0,0.0,0.0,0.0,0.0,0.0,0.0,0.0,0.0,0.0,0.0,0.0,0.0,0.0,0.0,0.0,0.0,0.0,0.0,0.0,0.0,0.0,0.0,0.0,0.0,0.0,0.0,0.0,0.0,0.0,0.0,0.0,0.0,0.0,0.0,2.9442,2.952,2.9498,0.0,0.0,0.0,0.0,0.0,0.0,0.0,0.0,0.0,0.0,0.0,0.0,0.0,0.0,0.0,0.0,0.0,0.0,0.0,0.0,0.0,0.0,0.0,0.0,0.0,0.0,0.0,0.0,0.0,0.0,0.0,0.0,0.0,0.0,0.0,0.0,0.0,0.0,0.0,0.0,0.0,0.0,0.0,0.0,0.0,0.0,0.0,0.0,0.0,0.0,0.0,0.0,0.0,0.0,0.0,0.0,0.0,0.0,0.0,0.0,0.0,0.0,0.0,0.0,0.0,0.0,0.0,0.0,0.0,0.0,0.0,0.0,0.0,0.0,0.0,0.0,0.0,0.0,0.0,0.0,0.0,0.0,0.0,0.0,0.0,0.0,0.0,0.0,0.0,0.0,0.0,0.0,0.0,0.0,0.0,0.0,0.0,0.0,0.0,0.0,0.0,0.0,0.0,0.0,0.0,0.0,0.0,0.0,0.0,0.0,2.8718,2.8697,2.9022,2.9174,2.9174,0.0,0.0,0.0,0.0,0.0,0.0,0.0,0.0,0.0,0.0,0.0,0.0,0.0,0.0,0.0,0.0,0.0,0.0,0.0,0.0,0.0,0.0,0.0,0.0,0.0,0.0,0.0,0.0,0.0,0.0,0.0,0.0,0.0,0.0,0.0,0.0,0.0,0.0,0.0,0.0,0.0,0.0,0.0,0.0,0.0,0.0,0.0,0.0,0.0,0.0,0.0,0.0,0.0,0.0,0.0,0.0,0.0,0.0,0.0,0.0,0.0,0.0,0.0,0.0,0.0,0.0,0.0,0.0,0.0,0.0,0.0,0.0,0.0,0.0,0.0,0.0,0.0,0.0,0.0,0.0,0.0,0.0,0.0,0.0,0.0,0.0,0.0,0.0,0.0,0.0,0.0,0.0,0.0,0.0,0.0,0.0,0.0,0.0,0.0,0.0,0.0,0.0,0.0,0.0,0.0,0.0,0.0,0.0,0.0,0.0,0.0,0.0,0.0,0.0,2.8918,0.0,0.0,0.0,0.0,0.0,0.0,0.0,0.0,0.0,0.0,0.0,0.0,0.0,0.0,0.0,0.0,0.0,0.0,0.0,0.0,0.0,0.0,0.0,0.0,0.0,0.0,0.0,0.0,0.0,0.0,0.0,0.0,0.0,0.0,0.0,0.0,0.0,0.0,0.0,0.0,0.0,0.0,0.0,0.0,0.0,0.0,0.0,0.0,0.0,0.0,0.0,0.0,0.0,0.0,0.0,0.0,0.0,0.0,0.0,0.0,0.0,0.0,0.0,0.0,0.0,0.0,0.0,0.0,0.0,0.0,0.0,0.0,0.0,0.0,0.0,0.0,0.0,0.0,0.0,0.0,0.0,0.0,0.0,0.0,0.0,0.0,0.0,0.0,0.0,0.0,0.0,0.0,0.0,0.0,0.0,0.0,0.0,0.0,0.0,0.0,0.0,0.0,0.0,0.0,0.0,0.0,0.0,0.0,0.0,0.0,0.0,0.0,0.0,0.0,0.0,0.0,0.0,0.0,0.0,0.0,0.0,0.0,0.0,0.0,0.0,0.0,0.0,0.0,0.0,0.0,0.0,0.0,0.0,0.0,0.0,0.0,0.0,0.0,0.0,0.0,0.0,0.0,0.0,0.0,0.0,0.0,0.0,0.0,0.0,0.0,0.0,0.0,0.0,0.0,0.0,0.0,0.0,0.0,0.0,0.0,0.0,0.0,0.0,0.0,0.0,0.0,0.0,0.0,0.0,0.0,0.0,0.0,0.0,0.0,0.0,0.0,0.0,0.0,0.0,0.0,0.0,0.0,0.0,0.0,0.0,0.0,0.0,0.0,0.0,0.0,0.0,0.0,0.0,0.0,0.0,0.0,0.0,0.0,0.0,0.0,0.0,0.0,0.0,0.0,0.0,0.0,0.0,0.0,0.0,0.0,0.0,0.0,0.0,0.0,0.0,0.0,0.0,0.0,0.0,0.0,0.0,0.0,0.0,0.0,0.0,0.0,0.0,0.0,0.0,0.0,0.0,0.0,0.0,0.0,0.0,0.0,0.0,0.0,0.0,0.0,0.0,0.0,0.0,0.0,0.0,0.0,0.0,0.0,0.0,0.0,0.0,0.0,0.0,0.0,0.0,0.0,0.0,0.0,0.0,0.0,0.0,0.0,0.0,0.0,0.0,0.0,0.0,0.0,0.0,0.0,0.0,0.0,0.0,0.0,0.0,0.0,0.0,0.0,0.0,0.0,0.0,0.0,0.0,0.0,0.0,0.0,0.0,0.0,0.0,0.0,0.0,0.0,0.0,0.0,0.0,0.0,0.0,0.0,0.0,0.0,0.0,0.0,0.0,0.0,0.0,0.0,0.0,0.0,0.0,0.0,0.0,0.0,0.0,0.0,0.0,0.0,0.0,0.0,0.0,0.0,0.0,0.0,0.0,0.0,0.0,0.0,0.0,0.0,0.0,0.0,0.0,0.0,0.0,0.0,0.0,0.0,0.0,0.0,0.0,0.0,0.0,0.0,0.0,0.0,0.0,0.0,0.0,0.0,0.0,0.0,0.0,0.0,0.0,0.0,0.0,0.0,0.0,0.0,0.0,0.0,0.0,0.0,0.0,0.0,0.0,0.0,0.0,0.0,0.0,0.0,0.0,0.0,0.0,0.0,0.0,0.0,0.0,0.0,0.0,0.0,0.0,0.0,0.0,0.0,0.0,0.0,0.0,0.0,0.0,0.0,0.0,0.0,0.0,0.0,0.0,0.0,0.0,0.0,0.0,0.0,0.0,0.0,0.0,0.0,0.0,0.0,0.0,0.0,0.0,0.0,0.0,0.0,0.0,0.0,0.0,0.0,0.0,0.0,0.0,0.0,0.0,0.0,0.0,0.0,0.0,0.0,0.0,0.0,0.0,0.0,0.0,0.0,0.0,0.0,0.0,0.0,0.0,0.0,0.0,0.0,0.0,0.0,0.0,0.0,0.0,0.0,0.0,0.0,0.0,0.0,0.0,0.0,0.0,0.0,0.0,0.0,0.0,0.0,0.0,0.0,0.0,0.0,0.0,0.0,0.0,0.0,0.0,0.0,0.0,0.0,0.0,0.0,0.0,0.0,0.0,0.0,0.0,0.0,0.0,0.0,0.0,0.0,0.0,0.0,0.0,0.0,0.0,0.0,0.0,0.0,0.0,0.0,0.0,0.0,0.0,0.0,0.0,0.0,0.0,0.0,0.0,0.0,0.0,0.0,0.0,0.0,0.0,0.0,0.0,0.0,0.0,0.0,0.0,0.0,0.0,0.0,0.0,0.0,0.0,0.0,0.0,0.0,0.0,0.0,0.0,0.0,0.0,0.0,0.0,0.0,0.0,0.0,0.0,0.0,0.0,0.0,0.0,0.0,0.0,0.0,0.0,0.0,0.0,0.0,0.0,0.0,0.0,0.0,0.0,0.0,0.0,0.0,0.0,0.0,0.0,0.0,0.0,0.0,0.0,0.0,0.0,0.0,0.0,0.0,0.0,0.0,0.0,0.0,0.0,0.0,0.0,0.0,0.0,0.0,0.0,0.0,0.0,0.0,0.0,0.0,0.0,0.0,0.0,0.0,0.0,0.0,0.0,0.0,0.0,0.0,0.0,0.0,0.0,0.0,0.0,0.0,0.0,0.0,0.0,0.0,0.0,0.0,0.0,0.0,0.0,0.0,0.0,0.0,0.0,0.0,0.0,0.0,0.0,0.0,0.0,0.0,0.0,0.0,0.0,0.0,0.0,0.0,0.0,0.0,0.0,0.0,0.0,0.0,0.0,0.0,0.0,0.0,0.0,0.0,0.0,0.0,0.0,0.0,0.0,0.0,0.0,0.0,0.0,0.0,0.0,0.0,0.0,0.0,0.0,0.0,0.0,0.0,0.0,0.0,0.0,0.0,0.0,0.0,0.0,0.0,0.0,0.0,0.0,0.0,0.0,0.0,0.0,0.0,0.0,0.0,0.0,0.0,0.0,0.0,0.0,0.0,0.0,0.0,0.0,0.0,0.0,0.0,0.0,0.0,0.0,0.0,0.0,0.0,0.0,0.0,0.0,0.0,0.0,0.0,0.0,0.0,0.0,0.0,0.0,0.0,0.0,0.0,0.0,0.0,0.0,0.0,0.0,0.0,0.0,0.0,0.0,0.0,0.0,0.0,0.0,0.0,0.0,0.0,0.0,0.0,0.0,0.0,0.0,0.0,0.0,0.0,0.0,0.0,0.0,0.0,0.0,0.0,0.0,0.0,0.0,0.0,0.0,0.0,0.0,0.0,0.0,0.0,0.0,0.0,0.0,0.0,0.0,0.0,0.0,0.0,0.0,0.0,0.0,0.0,0.0,0.0,0.0,0.0,0.0,0.0,0.0,0.0,0.0,0.0,0.0,0.0,0.0,0.0,0.0,0.0,0.0,0.0,0.0,0.0,0.0,0.0,0.0,0.0,0.0,0.0,0.0,0.0,0.0,0.0,0.0,0.0,0.0,0.0,0.0,0.0,0.0,0.0,0.0,0.0,0.0,0.0,0.0,0.0,0.0,0.0,0.0,0.0,0.0,0.0,0.0,0.0,0.0,0.0,0.0,0.0,0.0,0.0,0.0,0.0,0.0,0.0,0.0,0.0,0.0,0.0,0.0,0.0,0.0,0.0,0.0,0.0,0.0,0.0,0.0,0.0,0.0,0.0,0.0,0.0,0.0,0.0,0.0,0.0,0.0,0.0,0.0,0.0,0.0,0.0,0.0,0.0,0.0,0.0,0.0,0.0,0.0,0.0,0.0,0.0,0.0,0.0,0.0,0.0,0.0,0.0,0.0,0.0,0.0,0.0,0.0,0.0,0.0,0.0,0.0,0.0,0.0,0.0,0.0,0.0,0.0,0.0,0.0,0.0,0.0,0.0,0.0,0.0,0.0,0.0,0.0,0.0,0.0,0.0,0.0,0.0,0.0,0.0,0.0,0.0,0.0,0.0,0.0,0.0,0.0,0.0,0.0,0.0,0.0,0.0,0.0,0.0,0.0,0.0,0.0,0.0,0.0,0.0,0.0,0.0,0.0,0.0,0.0,0.0,0.0,0.0,0.0,0.0,0.0,0.0,0.0,0.0,0.0,0.0,0.0,0.0,0.0,0.0,0.0,0.0,0.0,0.0,0.0,0.0,0.0,0.0,0.0,0.0,0.0,0.0,0.0,0.0,0.0,0.0,0.0,0.0,0.0,0.0,0.0,0.0,0.0,0.0,0.0,0.0,0.0,0.0,0.0,0.0,0.0,0.0,0.0,0.0,0.0,0.0,0.0,0.0,0.0,0.0,0.0,0.0,0.0,0.0,0.0,0.0,0.0,0.0,0.0,0.0,0.0,0.0,0.0,0.0,0.0,0.0]}]]]